[[{"header":{"parameterUnit":"m.s-1","parameterCategory":1,"la1":30.6,"la2":29.2853,"lo1":-89.7004,"lo2":-87.6739,"dy":0.0162,"dx":0.0183,"nx":112,"ny":82,"refTime":"2023-04-22T18:00:00:Z","depth":0,"parameterNumber":2,"parameterNumberName":"U-component_of_WINDS"},"data":[0.0,0.0,0.0,0.0,0.0,0.0,0.0,0.0,0.0,0.0,0.0,0.0,0.0,0.0,0.0,0.0,0.0,0.0,0.0,0.0,0.0,0.0,0.0,0.0,0.0,0.0,0.0,0.0,0.0,0.0,0.0,0.0,0.0,0.0,0.0,0.0,0.0,0.0,0.0,0.0,0.0,0.0,0.0,0.0,0.0,0.0,0.0,0.0,0.0,0.0,0.0,0.0,0.0,0.0,0.0,0.0,0.0,0.0,0.0,0.0,0.0,0.0,0.0,0.0,0.0,0.0,0.0,0.0,0.0,0.0,0.0,0.0,0.0,0.0,0.0,0.0,0.0,0.0,0.0,0.0,0.0,0.0,0.0,0.0,0.0,0.0,0.0,0.0,0.0,0.0,4.6855,5.0202,5.6588,6.0242,5.9396,5.6318,5.1844,4.5724,0.0,0.0,0.0,0.0,0.0,0.0,0.0,0.0,0.0,0.0,0.0,0.0,0.0,0.0,0.0,0.0,0.0,0.0,0.0,0.0,0.0,0.0,0.0,0.0,0.0,0.0,0.0,0.0,0.0,0.0,0.0,0.0,0.0,0.0,0.0,0.0,0.0,0.0,0.0,0.0,0.0,0.0,0.0,0.0,0.0,0.0,0.0,0.0,0.0,0.0,0.0,0.0,0.0,0.0,0.0,0.0,0.0,0.0,0.0,0.0,0.0,0.0,0.0,0.0,0.0,0.0,0.0,0.0,0.0,0.0,0.0,0.0,0.0,0.0,0.0,0.0,0.0,0.0,0.0,0.0,0.0,0.0,0.0,0.0,0.0,0.0,0.0,0.0,0.0,0.0,0.0,0.0,0.0,0.0,0.0,0.0,0.0,0.0,0.0,0.0,0.0,0.0,0.0,0.0,4.824,5.5088,5.8165,5.9358,5.855,5.3866,4.9006,4.4459,0.0,0.0,0.0,0.0,0.0,0.0,0.0,0.0,0.0,0.0,0.0,0.0,0.0,0.0,0.0,0.0,0.0,0.0,0.0,0.0,0.0,0.0,0.0,0.0,0.0,0.0,0.0,0.0,0.0,0.0,0.0,0.0,0.0,0.0,0.0,0.0,0.0,0.0,0.0,0.0,0.0,0.0,0.0,0.0,0.0,0.0,0.0,0.0,0.0,0.0,0.0,0.0,0.0,0.0,0.0,0.0,0.0,0.0,0.0,0.0,0.0,0.0,0.0,0.0,0.0,0.0,0.0,0.0,0.0,0.0,0.0,0.0,0.0,0.0,0.0,0.0,0.0,0.0,0.0,0.0,0.0,0.0,0.0,0.0,0.0,0.0,0.0,0.0,0.0,0.0,0.0,0.0,0.0,0.0,0.0,0.0,0.0,0.0,0.0,0.0,0.0,0.0,0.0,4.7201,5.024,5.6973,5.8781,5.8973,5.7703,5.3445,4.8914,4.4403,4.2259,0.0,0.0,0.0,0.0,0.0,0.0,0.0,0.0,0.0,0.0,0.0,0.0,0.0,0.0,0.0,0.0,0.0,0.0,0.0,0.0,0.0,0.0,0.0,0.0,0.0,0.0,0.0,0.0,0.0,0.0,0.0,0.0,0.0,0.0,0.0,0.0,0.0,0.0,0.0,0.0,0.0,0.0,0.0,0.0,0.0,0.0,0.0,0.0,0.0,0.0,0.0,0.0,0.0,0.0,0.0,0.0,0.0,0.0,0.0,0.0,0.0,0.0,0.0,0.0,0.0,0.0,0.0,0.0,0.0,0.0,0.0,0.0,0.0,0.0,0.0,0.0,0.0,0.0,0.0,0.0,0.0,0.0,0.0,0.0,0.0,0.0,0.0,0.0,0.0,0.0,0.0,0.0,0.0,0.0,0.0,0.0,0.0,0.0,0.0,0.0,0.0,0.0,4.9625,5.2049,5.7434,5.855,5.8165,5.6242,5.2571,4.8426,4.3991,4.0899,0.0,0.0,0.0,0.0,0.0,0.0,0.0,0.0,0.0,0.0,0.0,0.0,0.0,0.0,0.0,0.0,0.0,0.0,0.0,0.0,0.0,0.0,0.0,0.0,0.0,0.0,0.0,0.0,0.0,0.0,0.0,0.0,0.0,0.0,0.0,0.0,0.0,0.0,0.0,0.0,0.0,0.0,0.0,0.0,0.0,0.0,0.0,0.0,0.0,0.0,0.0,0.0,0.0,0.0,0.0,0.0,0.0,0.0,0.0,0.0,0.0,0.0,0.0,0.0,0.0,0.0,0.0,0.0,0.0,0.0,0.0,0.0,0.0,0.0,0.0,0.0,0.0,0.0,0.0,0.0,0.0,0.0,0.0,0.0,0.0,0.0,0.0,0.0,0.0,0.0,0.0,0.0,0.0,0.0,0.0,0.0,0.0,0.0,0.0,0.0,0.0,0.0,5.0279,5.3087,5.6703,5.7126,5.6165,5.3664,4.9644,4.5722,4.22,3.88,0.0,0.0,0.0,0.0,0.0,0.0,0.0,0.0,0.0,0.0,0.0,0.0,0.0,0.0,0.0,0.0,0.0,0.0,0.0,0.0,0.0,0.0,0.0,0.0,0.0,0.0,0.0,0.0,0.0,0.0,0.0,0.0,0.0,0.0,0.0,0.0,0.0,0.0,0.0,0.0,0.0,0.0,0.0,0.0,0.0,0.0,0.0,0.0,0.0,0.0,0.0,0.0,0.0,0.0,0.0,0.0,0.0,0.0,0.0,0.0,0.0,0.0,0.0,0.0,0.0,0.0,0.0,0.0,0.0,0.0,0.0,0.0,0.0,0.0,0.0,0.0,0.0,0.0,0.0,0.0,0.0,0.0,0.0,0.0,0.0,0.0,0.0,0.0,0.0,0.0,0.0,0.0,0.0,0.0,0.0,0.0,0.0,0.0,0.0,0.0,0.0,0.0,4.924,5.2241,0.0,5.5895,5.5164,5.2626,4.9009,4.5432,4.2008,0.0,0.0,0.0,0.0,0.0,0.0,0.0,0.0,0.0,0.0,0.0,0.0,0.0,0.0,0.0,0.0,0.0,0.0,0.0,0.0,0.0,0.0,0.0,0.0,0.0,0.0,0.0,0.0,0.0,0.0,0.0,0.0,0.0,0.0,0.0,0.0,0.0,0.0,0.0,0.0,0.0,0.0,0.0,0.0,0.0,0.0,0.0,0.0,0.0,0.0,0.0,0.0,0.0,0.0,0.0,0.0,0.0,0.0,0.0,0.0,0.0,0.0,0.0,0.0,0.0,0.0,0.0,0.0,0.0,0.0,0.0,0.0,0.0,0.0,0.0,0.0,0.0,0.0,0.0,0.0,0.0,0.0,0.0,0.0,0.0,0.0,0.0,0.0,0.0,0.0,0.0,0.0,0.0,0.0,0.0,0.0,0.0,0.0,0.0,0.0,0.0,0.0,4.5163,4.8086,5.0856,0.0,5.4164,5.3356,5.0548,4.674,4.3508,4.1162,0.0,0.0,0.0,0.0,0.0,0.0,0.0,0.0,0.0,0.0,0.0,0.0,0.0,0.0,0.0,0.0,0.0,0.0,0.0,0.0,0.0,0.0,0.0,0.0,0.0,0.0,0.0,0.0,0.0,0.0,0.0,0.0,0.0,0.0,0.0,0.0,0.0,0.0,0.0,0.0,0.0,0.0,0.0,0.0,0.0,0.0,0.0,0.0,0.0,0.0,0.0,0.0,0.0,0.0,0.0,0.0,0.0,0.0,0.0,0.0,0.0,0.0,0.0,0.0,0.0,0.0,0.0,0.0,0.0,0.0,0.0,0.0,0.0,0.0,0.0,0.0,0.0,0.0,0.0,0.0,0.0,0.0,0.0,0.0,0.0,0.0,0.0,0.0,0.0,0.0,0.0,0.0,0.0,0.0,0.0,0.0,0.0,0.0,0.0,0.0,0.0,0.0,4.5124,4.7048,4.9048,5.1587,5.1895,5.051,4.7163,4.22,3.9277,0.0,0.0,0.0,0.0,0.0,0.0,0.0,0.0,0.0,0.0,0.0,0.0,0.0,0.0,0.0,0.0,0.0,0.0,0.0,0.0,0.0,0.0,0.0,0.0,0.0,0.0,0.0,0.0,0.0,0.0,0.0,0.0,0.0,0.0,0.0,0.0,0.0,0.0,0.0,0.0,0.0,0.0,0.0,0.0,0.0,0.0,0.0,0.0,0.0,0.0,0.0,0.0,0.0,0.0,0.0,0.0,0.0,0.0,0.0,0.0,0.0,0.0,0.0,0.0,0.0,0.0,0.0,0.0,0.0,0.0,0.0,0.0,0.0,0.0,0.0,0.0,0.0,0.0,0.0,0.0,0.0,0.0,0.0,0.0,0.0,0.0,0.0,0.0,0.0,0.0,0.0,0.0,0.0,0.0,0.0,0.0,0.0,0.0,0.0,0.0,0.0,0.0,0.0,4.2624,4.547,4.7778,4.9086,4.9779,4.8779,4.5355,4.1508,3.9046,3.843,0.0,0.0,0.0,0.0,0.0,0.0,0.0,0.0,0.0,0.0,0.0,0.0,0.0,0.0,0.0,0.0,0.0,0.0,0.0,0.0,0.0,0.0,0.0,0.0,0.0,0.0,0.0,0.0,0.0,0.0,0.0,0.0,0.0,0.0,0.0,0.0,0.0,0.0,0.0,0.0,0.0,0.0,0.0,0.0,0.0,0.0,0.0,0.0,0.0,0.0,0.0,0.0,0.0,0.0,0.0,0.0,0.0,0.0,0.0,0.0,0.0,0.0,0.0,0.0,0.0,0.0,0.0,0.0,0.0,0.0,0.0,0.0,0.0,0.0,0.0,0.0,0.0,0.0,0.0,0.0,0.0,0.0,0.0,0.0,0.0,0.0,0.0,0.0,0.0,0.0,0.0,0.0,0.0,0.0,0.0,0.0,0.0,0.0,0.0,0.0,0.0,0.0,4.1508,4.3893,4.597,4.7471,4.7778,4.6624,4.3547,3.9585,3.7046,3.6507,0.0,0.0,0.0,0.0,0.0,0.0,0.0,0.0,0.0,0.0,0.0,0.0,0.0,0.0,0.0,0.0,0.0,0.0,0.0,0.0,0.0,0.0,0.0,0.0,0.0,0.0,0.0,0.0,0.0,0.0,0.0,0.0,0.0,0.0,0.0,0.0,0.0,0.0,0.0,0.0,0.0,0.0,0.0,0.0,0.0,0.0,0.0,0.0,0.0,0.0,0.0,0.0,0.0,0.0,0.0,0.0,0.0,0.0,0.0,0.0,0.0,0.0,0.0,0.0,0.0,0.0,0.0,0.0,0.0,0.0,0.0,0.0,0.0,0.0,0.0,0.0,0.0,0.0,0.0,0.0,0.0,0.0,0.0,0.0,0.0,0.0,0.0,0.0,0.0,0.0,0.0,0.0,0.0,0.0,0.0,0.0,0.0,0.0,0.0,0.0,0.0,0.0,4.1207,4.2338,4.3799,4.6357,4.5799,4.4201,4.1662,3.693,3.4045,3.3968,0.0,0.0,0.0,0.0,0.0,0.0,0.0,0.0,0.0,0.0,0.0,0.0,0.0,0.0,0.0,0.0,0.0,0.0,0.0,0.0,0.0,0.0,0.0,0.0,0.0,0.0,0.0,0.0,0.0,0.0,0.0,0.0,0.0,0.0,0.0,0.0,0.0,0.0,0.0,0.0,0.0,0.0,0.0,0.0,0.0,0.0,0.0,0.0,0.0,0.0,0.0,0.0,0.0,0.0,0.0,0.0,0.0,0.0,0.0,0.0,3.8679,0.0,0.0,0.0,0.0,0.0,0.0,0.0,0.0,0.0,0.0,0.0,0.0,0.0,0.0,0.0,0.0,0.0,0.0,0.0,0.0,0.0,0.0,0.0,0.0,0.0,0.0,0.0,0.0,0.0,0.0,0.0,0.0,0.0,0.0,0.0,0.0,0.0,0.0,0.0,0.0,0.0,4.0081,4.0778,4.1942,4.4228,4.3348,4.1585,3.9046,3.5353,3.2891,3.2275,2.8852,0.0,0.0,0.0,0.0,0.0,0.0,0.0,0.0,0.0,0.0,0.0,0.0,0.0,0.0,0.0,0.0,0.0,0.0,0.0,0.0,0.0,0.0,0.0,0.0,0.0,0.0,0.0,0.0,0.0,0.0,0.0,0.0,0.0,0.0,0.0,0.0,0.0,0.0,0.0,0.0,0.0,0.0,0.0,0.0,0.0,0.0,0.0,0.0,0.0,0.0,0.0,0.0,0.0,0.0,0.0,0.0,0.0,0.0,0.0,0.0,3.8432,0.0,0.0,0.0,0.0,0.0,0.0,0.0,0.0,0.0,0.0,0.0,0.0,0.0,0.0,0.0,0.0,0.0,0.0,0.0,0.0,0.0,0.0,0.0,0.0,0.0,0.0,0.0,0.0,0.0,0.0,0.0,0.0,0.0,0.0,0.0,0.0,0.0,0.0,0.0,0.0,3.9367,3.9813,4.0652,4.2622,4.1848,4.0123,3.7584,3.4276,3.1775,3.0544,2.8044,0.0,0.0,0.0,0.0,0.0,0.0,0.0,0.0,0.0,0.0,0.0,0.0,0.0,0.0,0.0,0.0,0.0,0.0,0.0,0.0,0.0,0.0,0.0,0.0,0.0,0.0,0.0,0.0,0.0,0.0,0.0,0.0,0.0,0.0,0.0,0.0,0.0,0.0,0.0,0.0,0.0,0.0,0.0,0.0,0.0,0.0,0.0,0.0,0.0,0.0,0.0,0.0,0.0,0.0,4.1442,4.1513,4.0934,4.0222,3.9335,3.7361,3.6103,3.558,0.0,0.0,0.0,0.0,0.0,0.0,0.0,0.0,0.0,0.0,0.0,0.0,0.0,0.0,0.0,0.0,0.0,0.0,0.0,0.0,0.0,0.0,0.0,0.0,0.0,3.5516,3.4883,0.0,0.0,0.0,0.0,0.0,0.0,0.0,0.0,0.0,0.0,0.0,0.0,3.8693,3.8916,3.9531,4.1289,4.0492,3.8854,3.6469,3.3314,3.0737,2.9006,2.7313,2.6467,0.0,0.0,0.0,0.0,0.0,0.0,0.0,0.0,0.0,0.0,0.0,0.0,0.0,0.0,0.0,0.0,0.0,0.0,0.0,0.0,0.0,0.0,0.0,0.0,0.0,0.0,0.0,0.0,0.0,0.0,0.0,0.0,3.6772,3.6772,0.0,0.0,0.0,0.0,0.0,0.0,0.0,0.0,0.0,0.0,0.0,0.0,0.0,0.0,4.2431,4.3296,4.3262,4.245,4.3744,4.3029,4.0481,4.0722,4.04,3.9548,3.8892,0.0,3.781,3.7184,0.0,0.0,0.0,0.0,0.0,0.0,0.0,0.0,0.0,0.0,0.0,0.0,0.0,0.0,0.0,0.0,0.0,0.0,0.0,0.0,0.0,0.0,3.6205,3.6205,3.5625,3.4963,0.0,3.4801,3.468,3.3946,0.0,0.0,0.0,0.0,0.0,0.0,0.0,0.0,3.7544,3.7332,3.784,4.0005,3.8421,3.6469,3.4661,3.2083,2.9879,2.8253,2.6533,2.5938,2.6728,2.7565,0.0,0.0,0.0,0.0,0.0,0.0,0.0,0.0,0.0,0.0,0.0,0.0,0.0,0.0,0.0,0.0,0.0,0.0,0.0,0.0,0.0,0.0,0.0,0.0,0.0,0.0,0.0,0.0,0.0,3.8227,3.8667,3.6975,3.9106,4.0426,0.0,0.0,0.0,0.0,0.0,0.0,0.0,0.0,0.0,4.1122,4.1477,4.2198,4.3321,4.4073,4.4213,4.3786,4.4888,4.4457,4.2721,4.2894,4.2757,4.2364,4.1748,4.1137,4.0504,3.9441,3.9124,3.926,0.0,0.0,0.0,0.0,0.0,4.1258,4.1258,0.0,0.0,0.0,0.0,0.0,0.0,0.0,0.0,0.0,0.0,0.0,0.0,0.0,0.0,3.8212,3.8028,3.7624,3.7184,3.6306,3.5304,0.0,3.3997,3.4127,3.4642,0.0,0.0,0.0,0.0,0.0,3.6243,3.655,3.7079,3.8044,3.6919,3.5402,3.3686,3.1226,2.9306,2.811,2.6434,2.5621,2.6054,2.6868,2.7735,0.0,0.0,0.0,0.0,0.0,0.0,0.0,0.0,0.0,0.0,0.0,0.0,0.0,0.0,0.0,0.0,0.0,0.0,0.0,0.0,0.0,0.0,0.0,0.0,0.0,0.0,0.0,0.0,3.9309,3.9884,3.711,3.9749,4.1186,0.0,0.0,0.0,0.0,0.0,0.0,4.0258,4.1056,4.1757,4.2415,4.261,4.3235,4.4447,4.5219,4.574,4.6007,4.6549,4.6447,4.5703,4.5534,4.5331,4.5094,4.435,4.3572,4.2746,4.1174,3.9965,3.9141,4.0185,4.0818,0.0,4.1384,4.1562,4.1699,4.1699,4.1699,4.1662,4.1479,0.0,3.9239,3.8836,0.0,0.0,0.0,0.0,3.6964,3.8579,0.0,3.9276,4.0267,4.0341,3.9974,3.9166,3.7734,3.6122,0.0,3.4446,3.4712,3.4764,0.0,0.0,0.0,0.0,3.4776,3.543,3.6045,3.6416,3.6416,3.5773,3.4532,3.254,3.0502,2.8852,2.7868,2.6351,2.5546,2.5531,2.6357,2.7133,2.7776,0.0,0.0,0.0,0.0,0.0,0.0,0.0,0.0,0.0,0.0,0.0,0.0,0.0,0.0,0.0,0.0,0.0,0.0,0.0,0.0,0.0,0.0,0.0,0.0,0.0,0.0,0.0,0.0,0.0,3.7043,4.0629,0.0,0.0,0.0,0.0,3.9806,4.1438,4.2232,4.1563,4.2833,4.3595,4.3595,4.4299,4.552,4.7276,4.8034,4.8895,4.9796,4.9864,4.9492,4.8748,4.8071,4.7361,4.665,4.5906,4.5162,4.4236,4.1008,4.0101,4.0631,3.9012,3.9608,4.1178,3.9698,3.9506,4.001,4.001,4.001,4.0267,4.1772,4.1662,4.0708,3.9166,3.8652,0.0,0.0,3.747,3.7808,3.9423,3.9827,4.023,4.1809,4.1589,4.0818,4.001,3.8579,3.6822,0.0,3.3805,3.3583,3.3832,0.0,3.416,3.4199,3.4891,3.5468,3.5493,3.5584,3.5647,3.5643,3.5004,3.3504,3.0948,2.986,2.8651,2.7071,2.609,2.5635,2.5702,2.6484,2.6913,2.6952,2.7776,0.0,0.0,0.0,0.0,0.0,0.0,0.0,0.0,0.0,0.0,0.0,0.0,0.0,0.0,0.0,0.0,0.0,0.0,0.0,0.0,0.0,0.0,0.0,0.0,0.0,0.0,0.0,0.0,4.2489,4.435,0.0,4.2202,4.2124,4.1876,4.1002,4.1922,4.2571,4.2707,4.3548,4.4787,4.6265,4.6153,4.7119,4.9337,4.9143,4.9264,4.9589,4.9132,4.8852,4.8696,4.803,4.7914,4.8173,4.7462,4.6718,4.5771,4.3124,4.1576,4.0874,4.07,4.0411,4.0246,4.1131,4.1248,4.1163,4.2121,4.2413,4.2232,4.1123,4.0194,3.9276,3.7624,3.7147,3.7184,3.7441,3.7507,3.7845,3.946,3.99,4.0157,4.1258,4.0928,4.0267,3.9974,3.9019,3.7875,3.6555,3.5613,3.5203,3.5816,3.4977,3.4391,3.4968,3.4814,3.4661,3.4699,3.5238,3.5624,3.566,3.448,3.3134,3.1642,2.9763,2.8171,2.7043,2.6155,2.5679,2.5703,2.5977,2.6406,2.6953,2.6676,2.7401,0.0,0.0,0.0,0.0,0.0,0.0,0.0,0.0,0.0,0.0,0.0,0.0,0.0,0.0,0.0,0.0,0.0,0.0,0.0,0.0,0.0,0.0,0.0,0.0,0.0,0.0,4.5602,4.638,4.753,4.7306,4.482,4.4269,4.3515,4.223,4.3107,4.3862,4.4287,4.4975,4.6026,4.7589,4.7191,4.7831,4.9852,4.9377,4.931,4.9693,4.8733,4.8321,4.8507,4.7867,4.7933,4.8509,4.7815,4.7259,4.6616,4.4621,4.2974,4.1744,4.1469,4.0735,4.0095,4.1595,4.2105,4.2175,4.331,4.3719,4.3358,4.1379,4.0157,3.9276,3.7918,3.7204,3.6936,3.7484,3.763,3.7953,3.9305,3.9768,4.001,4.0561,4.0304,3.9827,3.9533,3.9093,3.8542,3.7991,3.728,3.6804,3.7052,3.6188,3.5661,3.6276,3.5584,3.5045,3.5084,3.5418,3.5436,3.4924,3.3938,3.2628,3.0887,2.9526,2.8125,2.6641,2.6289,2.6016,2.5703,2.5977,2.6406,2.6992,2.6378,2.6945,2.8714,0.0,0.0,0.0,0.0,0.0,0.0,0.0,0.0,0.0,0.0,0.0,0.0,0.0,0.0,0.0,0.0,0.0,0.0,0.0,0.0,0.0,0.0,0.0,4.2286,4.6278,4.8815,4.8206,5.0033,4.9758,4.581,4.5815,4.5363,4.3528,4.5244,4.6352,4.6352,4.695,4.7309,4.7309,4.7309,4.7764,4.8759,4.8759,4.9296,5.032,4.8914,4.8243,4.8253,4.7789,4.7539,4.7572,4.7066,4.6853,4.6718,4.5229,4.4147,4.3234,4.1068,4.0519,4.0908,4.099,4.1753,4.2806,4.3322,4.3497,4.3351,4.2543,4.1735,4.0965,4.012,3.8951,3.7893,3.7859,3.7893,3.8074,3.8867,3.9462,3.9863,3.9863,3.9863,3.9643,3.8872,3.8689,3.8689,3.8689,3.8484,3.8064,3.7316,3.7639,3.8007,3.8007,3.7238,0.0,3.6661,3.6115,3.5093,3.3459,3.3378,3.207,2.8672,2.9141,2.8476,2.5859,2.6484,2.6562,2.5742,2.6523,2.6953,2.6953,2.6992,2.7033,2.7036,0.0,0.0,0.0,0.0,0.0,0.0,0.0,0.0,0.0,0.0,0.0,0.0,0.0,0.0,0.0,0.0,0.0,0.0,0.0,0.0,0.0,0.0,4.3742,4.6743,4.868,5.0541,5.2503,5.3281,5.2664,5.0059,4.9405,4.8326,4.6371,4.6711,4.704,4.704,4.7219,4.7309,4.7309,4.7309,4.7452,4.7679,4.7679,4.7849,4.8157,4.7302,4.6973,4.7122,4.6548,4.6724,4.7572,4.7438,4.7483,4.7496,4.6007,4.4959,4.4215,4.3572,4.2426,4.1273,4.2837,4.3437,4.3523,4.3677,4.3615,4.3277,4.1882,4.1295,4.0789,3.8995,3.8176,3.7825,3.7506,3.7649,3.7966,3.8146,3.8627,3.9019,3.9019,3.9019,3.8982,3.8762,3.8689,3.8689,3.8689,3.8804,3.8877,3.8893,3.8213,3.7704,3.7939,0.0,0.0,3.5892,3.574,3.5524,3.5176,3.4646,3.3164,3.043,2.9844,2.8476,2.5859,2.5937,2.5937,2.5703,2.5937,2.6055,2.6055,2.7305,2.7926,0.0,0.0,0.0,0.0,0.0,0.0,0.0,0.0,0.0,0.0,0.0,0.0,0.0,0.0,0.0,0.0,0.0,0.0,0.0,0.0,0.0,0.0,4.2865,4.6244,4.9875,5.0476,5.147,5.389,5.4155,5.3389,5.1389,5.0879,4.9708,4.7426,4.7549,4.7608,4.7309,4.6814,4.655,4.655,4.655,4.655,4.655,4.7019,4.7309,4.7309,4.6651,4.6267,4.6081,4.585,4.597,0.0,4.6945,4.7206,4.7245,4.6136,4.5466,0.0,0.0,0.0,0.0,0.0,4.3807,4.3379,4.361,4.3616,4.3316,4.2156,4.1502,4.0886,3.9121,3.8182,3.76,3.7048,3.7058,3.7323,3.7542,3.7998,3.8433,3.8658,3.8689,3.8689,3.8689,3.8689,3.8689,3.8689,0.0,0.0,3.9339,3.8639,3.8097,3.8312,3.6987,3.6007,0.0,3.5468,3.4963,3.4691,3.3968,3.25,2.9961,2.9687,0.0,0.0,0.0,2.625,2.625,2.6602,0.0,0.0,0.0,2.8476,0.0,0.0,0.0,0.0,3.0637,3.0948,0.0,0.0,0.0,0.0,0.0,0.0,0.0,0.0,0.0,0.0,0.0,0.0,0.0,0.0,0.0,0.0,4.576,4.832,5.1611,5.153,5.1769,5.3451,5.3611,5.2994,5.1274,5.0917,4.988,4.7695,4.7938,4.782,4.7135,0.0,0.0,0.0,0.0,4.5207,4.5389,4.655,4.7076,4.7189,4.6591,4.5933,4.5155,4.5458,4.5279,4.4856,4.5979,4.652,4.6616,4.6126,4.5953,4.5716,4.4044,4.3458,4.3523,4.3811,4.3418,0.0,0.0,0.0,0.0,4.2737,4.1933,4.0953,3.966,3.8391,3.724,3.654,3.6333,3.6498,3.6981,3.7506,3.8032,3.8496,3.8658,3.8689,3.8689,3.8689,3.8689,3.8689,3.8689,3.8773,3.8897,3.8704,3.8575,3.8633,3.7453,0.0,3.657,3.5315,3.4083,3.3263,0.0,0.0,2.8711,2.918,2.8516,2.6016,2.6484,2.6836,2.6836,2.7617,2.7695,2.6992,2.8633,2.875,2.7305,2.8945,2.9706,2.9675,3.1088,3.1352,0.0,0.0,0.0,0.0,0.0,0.0,0.0,0.0,0.0,0.0,0.0,0.0,0.0,0.0,0.0,4.3897,4.6849,4.9273,5.0455,5.097,5.1994,5.4114,5.4397,5.3914,5.2616,5.1475,5.0334,4.8984,4.8027,4.6962,4.5779,4.5508,0.0,4.3882,4.3882,4.4349,4.5389,4.5689,4.5991,4.6501,0.0,0.0,4.4496,4.4509,4.4613,4.4856,4.5833,4.6673,4.7375,4.7435,4.7374,4.7031,4.5003,4.4402,4.4605,4.4097,4.3648,4.3356,4.3463,4.3214,4.27,4.1937,4.0841,3.9585,3.8314,3.7297,0.0,3.5888,3.6071,3.6416,3.6539,3.7248,3.7928,3.8032,3.8401,3.8689,3.8689,3.8689,3.8689,3.8689,3.8689,3.8499,3.7927,3.7437,3.7257,3.7681,3.6417,3.5484,3.571,3.5468,3.4943,3.4122,3.4036,3.299,3.0428,2.9844,2.8789,2.6875,2.625,2.5937,2.5937,2.6094,2.6445,2.6992,2.8008,2.8711,2.9101,3.0156,3.0607,3.0467,3.0731,3.0723,0.0,0.0,0.0,0.0,0.0,0.0,0.0,0.0,0.0,0.0,0.0,3.701,0.0,0.0,4.2038,4.3976,4.6189,4.7952,4.8585,4.896,5.0103,5.2634,5.29,5.251,5.1697,5.0936,4.9823,4.8024,4.7195,4.6127,4.4563,4.3882,4.3218,4.2544,4.2544,4.2698,4.3062,4.4265,4.4906,4.4991,4.5531,4.5274,4.4317,4.4317,4.4168,4.4159,4.553,4.6454,4.6939,4.7245,4.7196,4.6861,4.5409,4.5054,4.5399,4.5035,4.4309,4.3463,4.3178,4.2921,4.2544,4.1481,4.0468,3.9433,3.8126,3.7227,3.6454,3.5768,3.5766,3.6071,3.6333,3.6786,3.7281,3.7969,3.8043,3.8038,3.84,3.8218,3.7998,3.8267,3.83,3.8255,3.8108,3.755,3.6965,3.6572,3.5685,3.5157,3.527,3.5028,3.4712,3.4302,3.3583,3.2474,3.0778,2.9214,2.7734,2.6367,2.5937,2.5898,2.6328,2.6367,2.6562,2.6992,2.7851,2.8281,2.8281,2.918,2.9784,3.011,2.9979,3.0173,0.0,0.0,0.0,0.0,0.0,0.0,0.0,3.5728,3.6174,3.7734,3.7545,3.7688,4.0063,4.0757,4.1791,4.4193,4.5558,4.644,4.7039,4.7011,4.774,4.9985,5.0206,4.994,4.9321,4.9144,4.8214,4.6211,4.5946,4.5072,4.3245,4.2181,4.1518,4.1219,4.1115,4.1025,4.0843,4.2574,4.3507,4.343,4.4314,4.4571,4.4137,4.4137,4.3838,4.3379,4.5185,4.6121,4.627,4.6608,4.6562,4.6152,4.547,4.5287,4.5331,4.559,4.4674,4.3286,4.2846,4.2537,4.2221,4.1206,4.0308,3.9434,3.8235,3.7381,3.6603,3.5825,3.5622,3.5711,3.6156,3.6291,3.6637,3.7712,3.7556,3.735,3.7948,3.7633,3.7323,3.7685,3.7825,3.7995,3.8245,3.7857,3.7108,3.5938,3.5426,3.5171,3.5107,3.4657,3.4312,3.4199,3.2904,3.1525,3.0224,2.8317,2.675,2.5664,2.5664,2.6016,2.6719,2.6758,2.6836,2.6992,2.7695,2.7773,2.7266,2.7969,2.8711,2.9487,2.9413,2.9752,3.2111,3.267,3.3859,3.5321,3.5683,3.6432,0.0,0.0,3.7247,3.9693,3.9168,3.8971,4.0928,4.2186,4.3588,4.5586,4.6468,4.7011,4.7094,4.6652,4.6495,4.6796,4.6796,4.6671,4.6056,4.5496,4.5036,4.4705,4.4204,4.3204,4.1887,4.169,4.1119,3.9981,3.9398,3.9697,4.0843,4.0573,4.1187,4.2738,4.2823,4.3089,4.3449,4.3449,4.3389,4.3379,4.4683,4.5688,4.6453,4.659,4.6203,4.5578,4.5376,4.4494,4.3471,4.4453,4.3944,4.277,4.2693,4.1979,4.107,4.0932,4.0062,3.8933,3.8125,3.7381,3.6603,3.5825,3.5622,3.5622,3.5667,3.6071,3.6451,3.6561,3.6895,3.7208,3.7314,3.7243,3.721,3.7248,3.7614,3.7677,3.7025,3.7234,3.7292,3.6656,3.5925,3.5393,3.5148,3.5026,3.4779,3.4263,3.3417,3.1648,2.8646,2.8124,2.731,2.5703,2.5625,2.5664,2.5859,2.5859,2.6211,2.6992,2.7109,2.7461,2.8164,2.8242,2.871,2.9484,2.9472,2.9829,3.2925,3.3251,3.4024,3.5143,3.6158,3.7278,3.9006,3.8559,3.8388,4.0594,4.0014,3.976,4.1619,4.1749,4.2056,0.0,4.3572,4.373,4.373,4.3546,4.3127,4.2574,4.2496,4.3238,4.5244,4.4844,4.4193,4.3436,4.2797,4.1887,4.0541,4.0465,4.0262,3.9697,3.9471,3.9323,3.9205,3.9625,3.9933,3.9953,4.1369,4.2096,4.2304,4.2981,4.3404,4.3594,4.4143,4.4669,4.5263,4.4834,4.4749,4.4782,4.3777,4.3276,4.3073,4.353,4.3068,4.2139,4.1768,4.1331,4.0908,4.0528,3.9486,3.8396,3.8497,3.7719,3.6705,3.64,3.6299,3.6197,3.5723,3.58,3.6044,3.6522,3.6423,3.6395,3.6878,3.6602,3.6374,3.6666,3.6904,3.7029,3.7005,3.739,3.7499,3.6784,3.6407,3.6058,3.5607,3.5703,3.519,3.3609,3.3199,3.1823,2.8943,2.8318,2.7572,2.6306,2.5796,2.5788,2.6337,2.5866,2.6002,2.6914,2.6445,2.6367,2.6797,2.7305,2.7734,2.8086,2.9062,2.9652,3.3554,3.4017,3.4597,3.5602,3.6872,3.8195,3.9114,3.8655,3.8701,4.0642,3.9544,3.8692,4.0261,3.973,3.934,3.9878,3.9965,4.0062,4.0062,3.9805,3.9218,3.8436,3.8093,3.9143,4.1992,4.2735,4.2636,4.1821,4.1354,4.0642,3.98,3.9697,3.9697,3.9697,3.9396,3.8843,3.8015,3.8537,3.8606,3.8107,3.9858,4.0802,4.1169,4.2304,4.3157,4.3666,4.3561,4.3668,4.3848,4.3272,4.317,4.3357,4.2274,4.2007,4.2181,4.2181,4.192,4.1473,4.1024,4.0861,4.0659,4.0254,3.9377,3.8531,3.8667,3.8091,3.728,3.6637,3.6603,3.6603,3.5825,3.5622,3.5757,3.6332,3.6028,3.5791,3.6332,3.6028,3.5677,3.6079,3.6291,3.6539,3.6904,3.7396,3.7503,3.6813,3.6705,3.6504,3.5874,3.5893,3.519,3.3134,3.2942,3.1903,2.9325,2.8461,2.7672,2.6776,2.594,2.5744,2.6411,2.5822,2.5834,2.6493,2.5895,2.5625,2.5664,2.6328,2.6875,2.7383,2.8594,2.9419,3.2986,3.4094,3.4984,3.7153,3.8175,3.9066,4.1063,3.8994,3.738,3.9819,3.7345,3.5007,3.5636,3.5727,3.5776,3.6385,3.6748,3.7065,3.7065,3.5821,3.5001,3.4978,3.4116,3.3708,0.0,3.7176,3.9246,3.9775,3.98,3.9697,3.9697,3.9697,3.9697,3.9697,3.8642,3.804,3.8015,3.7031,3.7015,3.8107,3.8198,3.8827,3.9972,4.1169,4.2275,4.3289,4.2873,4.2767,4.2692,4.2359,4.1807,4.1106,4.1177,4.0815,4.0188,4.0188,4.0514,4.0886,4.092,4.0577,4.0138,4.0138,4.0054,3.9749,3.8362,3.8396,3.8464,3.6265,3.6197,3.6603,3.5825,3.5622,3.5622,3.5656,3.5656,3.5622,3.5656,3.5656,3.5622,3.5622,3.6071,3.6416,3.6416,3.6865,3.711,3.6746,3.6702,3.6412,3.5615,3.5302,3.4557,3.3058,3.2891,3.1852,2.9313,2.8362,2.7554,2.6728,2.5871,2.5438,2.5553,2.5515,2.5524,2.5524,2.558,2.5586,2.5586,2.5703,2.6602,2.8242,2.832,2.9258,3.2835,3.478,3.6692,3.81,3.8416,3.8638,4.0128,3.82,3.6374,3.7332,3.552,3.3704,3.365,3.3627,3.3786,3.4283,3.4944,3.5511,3.5825,3.5466,3.4904,3.4229,3.387,0.0,0.0,0.0,0.0,3.8065,3.7903,3.8295,3.9672,3.9697,3.9697,3.9697,3.8969,3.8391,3.8015,3.7287,3.69,3.6964,3.7769,3.8738,3.9885,4.0658,4.0914,4.0879,4.1055,4.1026,4.0696,4.0037,3.9715,3.9548,3.9121,3.9084,3.9262,3.8778,3.9016,3.9664,4.0186,4.0254,3.9986,3.9512,3.9039,3.8633,3.8633,3.8464,3.8227,3.7922,3.7686,3.7347,3.6569,3.5994,3.5622,3.5622,3.5622,3.5622,3.5622,3.5622,3.5622,3.5622,3.5756,3.5854,3.5854,3.5918,3.5671,3.4833,3.5393,3.5816,3.5553,3.5098,3.4281,3.2783,3.2622,3.19,3.011,2.8698,2.8016,2.8285,2.6428,2.562,2.6197,2.5659,2.539,2.5428,2.5461,2.5507,2.5586,2.6211,2.6523,2.6602,2.8359,2.918,3.4575,3.6177,3.7587,3.9192,3.867,3.8059,3.8847,3.6929,3.4865,3.4648,3.2855,3.1111,3.0586,3.0327,3.0413,3.096,3.1481,3.2233,3.3112,3.2921,3.2556,3.2341,3.2041,3.1848,0.0,0.0,0.0,3.6991,3.7154,3.7879,3.9569,3.9697,3.9697,3.9697,3.8969,3.8391,3.8015,3.7262,3.6609,3.6056,3.6636,3.75,3.8705,3.8977,3.9056,3.8837,3.9273,3.9205,3.8698,3.835,3.8341,3.8391,3.7961,3.8076,3.8469,3.7962,3.7915,3.8243,3.8758,3.8916,3.8816,3.8085,3.7668,3.7502,3.7486,3.7469,3.7519,3.7434,3.7282,3.6947,3.6209,3.5639,3.5191,3.4958,3.4911,3.4911,3.4911,3.4911,3.4911,3.4911,3.4911,3.4811,3.4579,3.4312,3.3943,3.3206,3.3872,3.4522,3.4784,3.4298,3.3494,3.2479,3.22,3.1584,3.0356,2.9087,2.8544,2.9083,2.7005,2.6005,2.6582,2.5774,2.5303,2.5351,2.539,2.5461,2.5535,2.611,2.6479,2.6641,2.832,2.9141,3.7667,3.8056,3.7793,3.9978,3.8896,3.725,3.7345,3.5042,3.2629,3.1797,2.9444,2.7226,2.6387,0.0,2.5957,2.6836,2.7051,2.7715,2.9394,2.8594,2.8262,0.0,0.0,0.0,0.0,0.0,0.0,3.6179,0.0,3.7853,3.9465,3.9594,3.9594,3.9697,3.8592,3.8015,3.8015,3.6885,3.6056,3.5437,3.4977,3.5302,3.6392,3.6399,3.6734,3.731,3.7557,3.7307,3.6837,3.7304,3.7402,3.7372,3.7575,3.7616,3.7616,3.7584,3.7195,3.6557,3.6494,3.655,3.6653,3.5947,3.6172,3.6437,3.5123,3.5636,3.6442,3.5054,3.5103,3.5465,3.4774,3.4544,3.4399,3.3719,3.3598,3.3598,3.3515,3.3515,3.3515,3.3463,3.3515,3.3342,3.2656,3.2265,3.2097,3.1996,3.2223,3.2692,3.3451,3.2863,3.2342,3.2164,3.1606,3.0914,3.0075,2.9436,2.9121,2.9159,2.7572,2.6687,2.6736,2.5841,2.538,2.538,2.539,2.539,2.539,2.5447,2.6396,2.8046,2.8164,2.9101,3.5298,3.6814,3.7924,3.868,3.7251,3.5367,3.3994,3.1268,2.8821,2.7422,2.5413,2.3916,2.4049,2.4414,2.5156,2.6348,2.7598,0.0,3.0351,3.0273,0.0,3.0039,0.0,2.9668,2.959,2.9746,0.0,0.0,3.3356,3.4612,3.7878,3.8031,3.8582,3.9697,3.8592,3.8015,3.8015,3.6508,3.568,3.5437,3.4977,3.4881,3.5188,3.5182,3.5269,3.5385,3.5432,3.5078,3.4534,3.5357,3.499,3.4048,3.5524,3.5567,3.4747,3.4456,3.4193,3.368,3.2232,3.3634,3.5947,3.5187,3.5091,3.5155,3.4803,3.4963,3.5273,3.5453,3.5227,3.4904,3.4743,3.429,3.382,3.3649,3.3598,3.3411,3.2761,3.2623,3.2431,3.1793,3.2183,3.2437,3.1885,3.1707,3.1459,3.0874,3.0831,3.1329,3.2592,3.2385,3.1892,3.142,3.1017,3.0564,3.006,2.9331,2.9219,3.0033,2.8312,2.7649,2.8429,2.6921,2.6106,2.6264,2.5659,2.5341,2.539,2.5416,2.5708,2.6241,2.7559,2.8437,3.6137,3.6307,3.5966,3.6088,3.3882,3.1302,2.9412,2.7518,2.5484,2.3503,2.2171,2.1263,2.0851,2.1291,2.2226,2.3437,0.0,0.0,2.776,2.79,2.8242,0.0,2.9238,0.0,3.0156,3.0176,3.0616,0.0,3.2135,3.3616,3.6356,3.6487,3.6825,3.7484,3.6645,3.6223,3.6382,3.56,3.5177,3.5177,3.4374,3.3997,3.3972,3.3725,3.3493,3.329,0.0,3.3105,3.2608,3.3549,3.3395,3.2664,3.3837,3.3675,3.2897,3.2709,3.2198,3.148,3.0369,3.1257,3.2728,3.2307,3.2397,3.2579,3.2276,3.2397,3.2697,3.313,3.2942,3.2665,3.2665,3.2302,3.1916,3.1611,3.1585,3.1441,3.0952,3.0865,3.069,3.0189,3.028,3.0413,3.0517,3.0269,3.0113,3.0344,3.0336,3.069,3.1806,3.1479,3.1117,3.0975,3.0448,2.9979,2.975,2.9396,2.9467,3.0028,2.8707,2.8203,2.8938,2.7217,2.6364,2.6621,2.5726,2.5303,2.5351,2.5351,2.5582,2.6063,2.7478,2.8371,3.6932,3.5167,3.2708,3.2865,2.9996,2.666,2.4911,2.3761,2.2498,2.0105,1.9445,1.8979,1.7826,1.8096,1.8853,2.0069,2.072,2.1865,2.4105,2.44,2.5227,2.7807,2.7766,2.8301,3.0353,3.0161,3.0219,3.0859,3.2031,3.3311,3.4869,3.4979,3.4712,3.437,3.3944,3.3765,3.4095,3.4161,3.4198,3.4123,3.3107,3.2612,3.2587,3.2137,3.1589,3.1173,0.0,0.0,3.1119,3.2046,3.2307,3.2236,3.2522,3.2022,3.1237,3.1322,3.0419,2.924,2.9158,2.8741,2.8373,2.8848,2.9425,2.9758,2.9168,2.9425,2.9831,2.9695,2.9679,2.9679,2.9679,2.9679,2.9553,2.9073,2.9002,2.9002,2.8876,2.8748,2.8684,2.8812,2.8337,2.8201,2.8964,2.8618,2.8643,2.991,3.008,3.0309,3.0998,3.0456,3.0198,3.065,2.9831,2.9312,2.9373,2.9551,2.9697,2.9677,2.8964,2.8634,2.8888,2.7224,2.6429,2.6705,2.5744,2.5254,2.5303,2.5303,2.5707,2.6535,2.7595,2.8515,3.0449,3.0255,2.9816,2.9202,2.7554,2.5407,2.3048,2.095,1.9081,1.7535,1.6759,1.6542,1.6971,1.8129,1.9405,2.0782,2.1877,2.322,2.5111,2.5376,2.5559,0.0,2.6282,2.7005,2.8664,2.8728,0.0,0.0,0.0,0.0,3.2823,3.2934,3.3095,3.3488,3.3375,3.296,3.2143,3.1746,3.1338,3.1019,3.0331,3.0056,3.0011,3.0052,3.0001,2.9941,0.0,0.0,3.0139,3.1044,3.097,3.0419,3.1974,3.0844,2.8299,2.8613,2.7284,2.5269,2.4751,2.4541,2.4968,2.805,2.9058,2.914,2.903,2.9058,2.8986,2.8201,2.7927,2.7927,2.7927,2.7927,2.8109,2.8821,2.9002,2.8812,2.8038,2.743,2.7095,2.7802,2.7854,2.7873,2.8174,2.828,2.8382,2.8561,2.8706,2.9225,3.0309,2.9955,2.9754,3.0168,2.9233,2.8808,2.9353,2.9434,2.9514,2.9677,2.9383,2.9308,2.954,2.7769,2.6951,2.7319,2.5817,2.5122,2.5303,2.5303,2.539,2.5582,2.7257,2.8117,2.8807,2.8277,2.7343,2.6304,2.4517,2.2201,1.9831,1.8024,1.6507,1.4977,1.4497,1.4474,1.4754,1.5718,1.6876,1.8018,1.8754,1.9941,2.212,2.227,2.2777,2.453,2.4778,2.5375,2.6953,2.7021,0.0,0.0,0.0,0.0,3.1156,3.0843,3.0724,3.0914,3.1266,3.1099,3.0643,3.0585,3.0382,3.0229,2.9642,2.9284,2.9105,2.8802,2.8579,2.8364,0.0,0.0,2.8131,2.8536,2.8481,2.8187,2.9036,2.8227,2.6526,2.6505,2.5559,2.4198,2.3682,2.3526,2.3795,2.5575,2.6127,2.6127,2.6127,2.6127,2.6034,2.5526,2.5456,2.5456,2.5456,2.5456,2.5526,2.6034,2.6127,2.599,2.5624,2.5228,2.5205,2.6089,2.6296,2.6629,2.7664,2.8002,2.8253,2.8675,2.891,2.9249,2.975,2.9563,2.9445,2.9756,2.8782,2.8272,2.8603,2.8772,2.8911,2.903,2.9126,2.9291,2.9514,2.783,2.7042,2.7327,2.5806,2.5065,2.5133,2.5234,2.5303,2.5341,2.7169,2.801,2.7367,2.6496,2.5096,2.394,2.1712,1.9305,1.7194,1.5832,1.4589,1.3144,1.2946,1.3053,1.2879,1.352,1.4402,1.5337,1.5738,1.6714,1.8958,1.9132,1.9973,2.269,2.3047,0.0,2.5375,2.5254,0.0,0.0,0.0,0.0,2.9316,2.8881,2.8652,2.8652,2.8917,2.8941,2.8513,2.876,2.87,2.8381,2.8228,2.7914,2.7554,2.7524,2.7325,2.6838,0.0,0.0,0.0,2.6191,2.6086,2.6086,2.6086,2.5448,2.4459,2.4068,2.346,2.2759,2.2294,2.22,2.22,2.22,2.2648,2.3187,2.343,2.3356,2.3187,2.3136,2.3136,2.3136,2.3136,2.3224,2.3408,2.3743,2.3676,2.3682,2.3682,2.3682,2.3954,2.4802,2.5016,2.5487,2.7136,2.7621,2.7963,2.8621,2.8899,2.9107,2.9183,2.9016,2.8893,2.8999,2.8404,2.7988,2.7897,2.8112,2.8272,2.8272,2.8676,2.8962,2.9206,2.784,2.7177,2.7387,2.6071,2.5411,2.545,2.5685,2.5751,2.58,2.7467,2.8236,2.3278,2.3528,2.3011,2.2362,2.0402,1.8303,1.7007,1.5204,1.3601,1.2893,1.2849,1.2866,1.312,1.3667,1.4456,1.5605,1.6032,1.6874,1.8704,1.9172,1.9784,2.0848,2.1186,0.0,2.3698,2.3792,0.0,0.0,0.0,0.0,0.0,2.7473,2.7773,2.7773,2.7427,2.6429,2.4776,2.4804,2.4061,2.2484,2.3665,2.3956,2.3629,2.5473,2.603,2.5546,0.0,0.0,0.0,2.5249,2.4788,2.4788,2.4788,2.3213,2.0937,2.0615,1.9603,1.8311,1.8019,1.7883,1.7883,1.7883,1.9771,2.219,2.3187,2.2848,2.204,2.2146,2.2113,2.2113,2.2113,2.2429,2.3083,2.4349,2.4435,2.4122,2.4122,2.4122,2.4288,2.4873,2.5016,2.537,2.644,2.6738,2.6943,2.7175,2.7371,2.7748,2.8477,2.7984,2.757,2.7524,2.8007,2.8254,2.794,2.7926,2.7954,2.7954,2.8281,2.8453,2.8478,2.8004,2.7811,2.8015,2.7177,2.68,2.7,2.721,2.7306,2.7306,2.8476,2.9017,2.1647,2.2418,2.2325,2.1216,1.9706,1.8036,1.6313,1.4736,1.3427,1.2639,1.2478,1.2625,1.312,1.3253,1.3667,1.4843,1.4843,1.5364,1.7315,1.7542,1.8156,1.9933,2.0254,0.0,0.0,0.0,0.0,0.0,0.0,0.0,0.0,2.4562,2.5148,2.5148,2.4542,2.3824,2.3135,2.2911,2.2401,2.1744,2.2265,2.2141,2.1559,2.2434,2.2465,2.1841,0.0,0.0,0.0,2.1725,2.1548,2.1548,2.1548,2.0838,1.9881,1.9417,1.8969,1.837,1.7795,1.7581,1.7549,1.7335,1.7688,1.8338,1.9399,1.9478,1.9164,1.9122,1.914,1.914,1.914,2.001,2.1012,2.1569,2.2068,2.236,2.236,2.2232,2.2268,2.3032,2.3672,2.442,2.5441,2.6553,2.705,2.647,2.684,2.7257,2.7292,2.733,2.7391,2.7342,2.7163,2.6978,2.6757,2.6948,2.7199,2.7547,2.7862,2.8166,2.8376,2.7804,2.7579,2.7901,2.723,2.6953,2.7044,2.7226,2.7395,2.7521,2.8479,2.9001,1.991,2.1067,2.1483,2.0281,1.8958,1.7488,1.5685,1.4362,1.328,1.2465,1.2305,1.2465,1.2973,1.2893,1.3185,1.4215,1.4041,1.4429,1.6313,1.6473,1.7012,1.8581,0.0,1.8903,0.0,0.0,0.0,0.0,0.0,0.0,0.0,2.0229,2.1213,2.2538,2.1861,2.1283,2.0867,2.0189,1.9861,1.9876,2.0194,1.9937,1.9377,2.0166,2.0074,0.0,0.0,0.0,0.0,1.9131,1.8948,1.8948,1.8948,1.8764,1.8349,1.7916,1.7792,1.7819,1.7141,1.6955,1.6908,1.666,1.6079,1.5657,1.6415,1.6692,1.6862,1.7302,1.7335,1.7335,1.7647,1.8428,1.9177,1.9823,2.0402,2.0881,2.117,2.0977,2.1015,2.1832,2.2765,2.3818,2.4874,2.6321,2.7065,2.6238,2.6666,2.6895,2.6493,2.6751,2.6975,2.6844,2.6366,2.601,2.6059,2.6407,2.6691,2.6888,2.7422,2.7805,2.8057,2.7733,2.7671,2.7981,2.7696,2.7524,2.7524,2.7736,2.793,2.8092,2.8798,2.927,1.7077,1.8941,2.0107,1.9519,1.8036,1.642,1.5231,1.4055,1.3039,1.2425,1.2305,1.2398,1.2768,1.2822,1.3118,1.3948,1.4082,1.4603,1.6072,1.6526,1.651,0.0,0.0,1.6172,0.0,0.0,0.0,0.0,0.0,0.0,0.0,1.429,1.6016,2.045,1.9926,1.8875,1.758,1.607,1.5352,1.5518,1.6575,1.6887,1.6494,1.9018,0.0,0.0,0.0,0.0,0.0,1.8226,1.7684,1.7684,1.7684,1.6951,1.5792,1.5498,1.5391,1.5351,1.5147,1.5053,1.5053,1.504,1.504,1.504,1.504,1.5389,1.602,1.7446,1.7532,1.7499,1.8567,1.8321,1.8313,2.025,2.0314,2.0272,2.1067,2.123,2.1313,2.1894,2.2765,2.3818,2.4874,2.5886,2.6578,2.6661,2.6684,2.6578,2.626,2.6238,2.605,2.5558,2.5488,2.5675,2.6163,2.6633,2.6644,2.6063,2.6822,2.7303,2.7303,2.7994,2.8402,2.8402,2.8797,2.8998,2.8998,2.9249,2.9394,2.9414,2.9813,3.015,1.6138,1.72,1.7675,1.7101,1.6233,1.5257,1.4282,1.3293,1.2628,1.2799,1.2428,1.2308,1.3124,1.281,1.2799,1.3908,1.3294,1.3112,1.4178,1.3964,1.3959,1.451,1.5525,1.5992,0.0,0.0,0.0,0.0,0.0,0.0,0.0,0.0,1.459,1.6004,1.5514,1.5045,1.4641,1.4201,1.389,1.4019,1.4173,1.4138,1.379,1.4529,0.0,0.0,0.0,0.0,0.0,1.4912,1.5114,1.521,1.6089,1.6197,1.5818,1.5725,1.5698,1.5658,1.5364,1.5257,1.5231,1.503,1.4963,1.5003,1.5204,1.511,1.4977,1.5419,1.5619,1.5777,1.6166,1.6758,1.7777,1.9255,2.0009,2.0692,2.1511,2.1445,2.1271,2.1431,2.2039,2.2649,2.3297,2.4557,2.5387,2.5031,2.5259,2.5395,2.5409,2.5159,2.5269,2.6079,2.6208,2.6217,2.6336,2.685,2.7016,2.6639,2.7227,2.7774,2.8034,2.7792,2.8023,2.8785,2.8665,2.859,2.859,2.8938,2.9291,2.9626,2.9877,3.015,1.4065,1.5284,1.5765,1.5297,1.4736,1.4095,1.332,1.2612,1.2195,1.2459,1.204,1.1925,1.2727,1.2494,1.2302,1.293,1.2409,1.2083,1.2461,1.2391,0.0,1.2805,0.0,0.0,0.0,0.0,0.0,0.0,0.0,0.0,0.0,0.0,1.2196,1.2117,1.2358,1.2516,1.2516,1.1973,1.1973,1.2507,1.2191,1.1973,1.1765,1.2173,0.0,0.0,0.0,0.0,0.0,1.2813,1.3102,1.3199,1.398,1.4376,1.4376,1.4376,1.4376,1.4351,1.4181,1.4121,1.4096,1.4494,1.4917,1.5297,1.5378,1.5137,1.4856,1.4856,1.491,1.5017,1.5231,1.5874,1.6904,1.8596,1.9482,2.0303,2.1428,2.1426,2.1191,2.1016,2.1643,2.2331,2.2436,2.366,2.4681,2.4518,2.4735,2.5012,2.5266,2.4822,2.4978,2.6272,2.621,2.6307,2.6822,2.7172,2.7264,2.7088,2.7595,2.8142,2.8596,2.8315,2.8334,2.8759,2.8678,2.8479,2.8192,2.8565,2.906,2.9589,2.9796,3.0037,0.0,1.2875,1.4242,1.3961,1.3494,1.2933,1.2371,1.2011,0.0,1.145,1.1328,1.1352,1.1726,1.1721,1.1569,1.126,1.1352,1.1409,0.0,1.1414,0.0,0.0,1.0434,0.0,0.0,0.0,0.0,0.0,0.0,0.0,0.0,0.0,0.9313,0.9157,1.0327,1.0891,1.0891,0.9588,0.9581,1.0975,1.07,1.0412,1.031,1.1456,0.0,0.0,0.0,0.0,0.0,1.1755,1.1755,1.1755,1.1853,1.195,1.195,1.195,1.195,1.195,1.195,1.195,1.2134,1.3488,1.4663,1.5684,1.5511,1.5431,1.5418,1.5404,1.5217,1.515,1.5685,1.5631,1.5957,1.8182,1.8807,1.9242,2.0832,2.1209,2.1172,2.0781,2.1724,2.2449,2.2095,2.3167,2.4258,2.4848,2.4921,2.5129,2.5528,2.5134,2.5152,2.6031,2.5742,2.6042,2.7408,2.7527,2.7422,2.7274,2.7778,2.8362,2.8921,2.9248,2.9074,2.8453,2.8794,2.8611,2.7954,2.8317,2.8797,2.9394,2.9589,2.9796,0.8474,0.0,1.2131,1.2064,1.1944,1.181,0.0,1.141,1.1169,1.1062,1.053,1.0208,1.0503,1.0096,0.9948,1.0637,0.9952,0.9605,1.0072,0.0,0.0,1.0087,0.0,0.0,0.0,0.0,0.0,0.0,0.0,0.0,0.0,0.0,0.9313,0.9157,0.9342,0.9375,0.9375,0.9044,0.8989,0.9298,0.9154,0.8991,0.8823,0.9093,0.0,0.0,0.0,0.0,0.9023,0.9993,1.0485,1.0583,1.156,1.195,1.195,1.195,1.195,1.195,1.195,1.195,1.2134,1.3488,1.4076,1.4543,1.5455,1.5725,1.5685,1.5458,1.5511,1.5658,1.5792,1.5778,1.6101,1.7565,1.8653,1.9608,2.063,2.1267,2.1797,2.2012,2.1765,2.1709,2.2264,2.2752,2.3383,2.4258,2.4399,2.4719,2.5478,2.5134,2.4963,2.5322,2.5782,2.6246,2.6712,2.7678,2.7767,2.666,2.7574,2.8174,2.8367,2.8277,2.8388,2.8866,2.866,2.8433,2.8272,2.8972,2.9357,2.9394,2.9454,2.968,0.733,0.8617,0.9868,0.9868,0.9896,0.9923,0.9923,0.9789,0.9587,0.9563,0.9248,0.9041,0.94,0.8772,0.8505,0.9461,0.8169,0.0,0.0,0.0,0.8608,0.956,0.0,0.0,0.0,0.0,0.0,0.0,0.0,0.0,0.0,0.0,0.9178,0.8954,0.8872,0.8866,0.894,0.8866,0.8825,0.8811,0.8676,0.852,0.8364,0.8303,0.0,0.0,0.0,0.0,0.8038,0.8825,0.9122,0.9114,0.9797,1.0092,1.0092,1.0092,1.0092,1.0092,1.0092,1.0485,1.1268,1.2522,1.3392,1.4172,1.5439,1.5832,1.5792,1.5631,1.5712,1.5832,1.5832,1.5832,1.6103,1.7404,1.8596,1.976,2.0535,2.1438,2.2187,2.2227,2.2012,2.1914,2.2187,2.2469,2.2835,2.3414,2.3497,2.3971,2.5168,2.4817,2.4738,2.5415,2.5581,2.5761,2.6016,2.699,2.7497,2.7365,2.7936,2.8415,2.8721,2.888,2.9101,2.9499,2.8971,2.8585,2.8393,2.9412,2.9557,2.8971,2.9641,2.9869,0.6566,0.701,0.7475,0.7902,0.8092,0.8205,0.8175,0.8112,0.7992,0.7861,0.7729,0.7711,0.8116,0.7236,0.6696,0.7543,0.0,0.0,0.6061,0.6418,0.722,0.0,0.0,0.0,0.0,0.0,0.0,0.0,0.0,0.0,0.0,0.0,0.0,0.8716,0.871,0.8764,0.8866,0.8764,0.875,0.8832,0.8621,0.8479,0.8411,0.8316,0.0,0.0,0.0,0.0,0.8038,0.8038,0.8038,0.8038,0.8038,0.8038,0.8038,0.8038,0.8038,0.8038,0.8038,0.8726,0.9903,1.117,1.2522,1.3872,1.514,1.5629,1.5832,1.5832,1.5832,1.5832,1.5832,1.5832,1.6116,1.7124,1.8319,1.9505,2.0342,2.1349,2.2071,2.2129,2.2266,2.2344,2.2109,2.2324,2.2562,2.2725,2.2772,2.3177,2.4562,2.4472,2.4657,2.5524,2.5354,2.5282,2.5353,2.5962,2.6834,2.8125,2.8275,2.8607,2.9335,2.9858,3.0128,3.0108,2.9499,2.8901,2.8414,2.9671,2.968,2.8619,2.9876,3.0145,0.4074,0.4164,0.5012,0.741,0.8203,0.8314,0.8205,0.8275,0.8096,0.7416,0.655,0.5761,0.5436,0.4311,0.3702,0.4222,0.0,0.4194,0.0,0.0,0.0,0.0,0.0,0.0,0.0,0.0,0.0,0.0,0.0,0.0,0.0,0.0,0.0,0.8716,0.871,0.8662,0.8554,0.8655,0.8594,0.8377,0.8581,0.8479,0.8113,0.8221,0.8187,0.0,0.0,0.8038,0.8038,0.8038,0.8038,0.8038,0.8038,0.8038,0.8038,0.8038,0.8038,0.8038,0.8038,0.8137,0.8528,0.9903,1.117,1.2425,1.3776,1.4949,1.5832,1.5832,1.5832,1.5832,1.5832,1.5832,1.5832,1.6021,1.703,1.8303,1.943,2.0079,2.0911,2.2553,2.2422,2.2187,2.2832,2.2695,2.2661,2.314,2.2903,2.2947,2.3666,2.4422,2.4753,2.4478,2.523,2.5625,2.519,2.5406,2.5932,2.6759,2.7285,2.8068,2.919,2.9313,2.9596,3.007,3.0006,2.9447,2.8414,2.9833,3.0152,2.9439,2.9636,2.999,0.3675,0.3374,0.3483,0.4798,0.5261,0.54,0.5353,0.5291,0.5184,0.4822,0.4341,0.3995,0.3824,0.2883,0.1943,0.1648,0.0,0.2957,0.0,0.0,0.0,0.0,0.0,0.0,0.0,0.0,0.0,0.0,0.0,0.0,0.0,0.0,0.0,0.0,0.8587,0.8479,0.8241,0.8397,0.8445,0.8384,0.8357,0.8282,0.8167,0.8153,0.8106,0.8038,0.0,0.8038,0.8038,0.8038,0.8038,0.8038,0.8038,0.8038,0.8038,0.8038,0.8038,0.8038,0.8038,0.8038,0.8237,0.9608,1.0386,1.1258,1.3295,1.4268,1.4949,1.5629,1.5832,1.5832,1.5832,1.5832,1.5832,1.5832,1.6763,1.787,1.8411,1.9142,2.0254,2.178,2.182,2.1863,2.2892,2.2988,2.2788,2.2593,2.2413,2.2487,2.2993,2.3238,2.3654,2.4449,2.4481,2.4481,2.45,2.4681,2.53,2.6443,2.716,2.7874,2.8793,2.8838,2.9275,3.0216,3.0216,2.9916,2.9313,3.0592,3.0662,2.9571,3.0055,3.0196,0.353,0.2905,0.227,0.2112,0.2534,0.2967,0.2887,0.2807,0.2816,0.2765,0.2646,0.2537,0.2708,0.1804,0.0,0.0104,0.0877,0.0,0.0,0.0,0.0,0.0,0.0,0.0,0.0,0.0,0.0,0.0,0.0,0.0,0.0,0.0,0.0,0.0,0.8452,0.8303,0.8038,0.816,0.8269,0.8377,0.8187,0.814,0.8214,0.8092,0.8038,0.8038,0.8038,0.8038,0.8038,0.8038,0.8038,0.8038,0.8038,0.8038,0.8038,0.8038,0.8038,0.8038,0.8038,0.8038,0.8137,0.9213,0.9706,1.0386,1.2716,1.368,1.4172,1.5439,1.5832,1.5832,1.5832,1.5832,1.5832,1.5832,1.6574,1.7311,1.7591,1.8349,1.929,2.0639,2.0766,2.1016,2.212,2.2492,2.2438,2.1709,2.1864,2.2185,2.2508,2.2345,2.2714,2.4123,2.3584,2.3333,2.3825,2.4236,2.4983,2.6103,2.6899,2.771,2.8463,2.8511,2.8996,3.0064,3.0225,3.0153,2.9883,3.1093,3.1007,2.9799,3.0451,3.0557,0.2766,0.1948,0.1021,0.0375,0.1614,0.3024,0.2968,0.301,0.3045,0.3077,0.2285,0.1649,0.1745,0.0867,0.0103,0.0,0.0113,0.0,0.0,0.0,0.0,0.0,0.0,0.0,0.0,0.0,0.0,0.0,0.0,0.0,0.0,0.0,0.0,0.0,0.0,0.8208,0.8038,0.8052,0.8058,0.8072,0.8194,0.8187,0.8058,0.8045,0.8038,0.8038,0.8038,0.8038,0.8038,0.8038,0.8038,0.8038,0.8038,0.8038,0.8038,0.8038,0.8038,0.8038,0.8038,0.8038,0.8038,0.8137,0.9023,1.0288,1.1658,1.2909,1.4172,1.5439,1.5832,1.5832,1.5832,1.5832,1.5832,1.5832,1.5832,1.6292,1.7404,1.743,1.7644,1.934,1.9306,1.919,1.9703,2.0657,2.1246,2.0829,2.1741,2.2324,2.1977,2.2369,2.2688,2.2822,2.2812,2.2889,2.3333,2.4405,2.5097,2.5216,2.605,2.7174,2.8463,2.8511,2.8764,2.9451,3.0021,2.9988,2.9303,3.0589,3.1022,3.063,3.063,3.1064,0.1798,0.1074,0.0383,0.0077,0.057,0.1118,0.1145,0.1095,0.113,0.1147,0.0889,0.0605,0.0598,0.031,0.0,0.0,0.0,0.0,0.0,0.0,0.0,0.0,0.0,0.0,0.0,0.0,0.0,0.0,0.0,0.0,0.0,0.0,0.0,0.0,0.0,0.8194,0.8038,0.8038,0.8038,0.8038,0.8099,0.8099,0.8038,0.8038,0.8038,0.8038,0.8038,0.8038,0.8038,0.8038,0.8038,0.8038,0.8038,0.8038,0.8038,0.8038,0.8038,0.8038,0.8038,0.8038,0.8038,0.8038,0.8329,0.9023,1.0288,1.1648,1.2909,1.4268,1.514,1.5832,1.5832,1.5832,1.5832,1.5832,1.5832,1.5913,1.6386,1.6383,1.67,1.8103,1.821,1.8438,1.9389,1.9861,1.9996,1.9638,2.0336,2.0903,2.0755,2.1131,2.1741,2.2631,2.3223,2.3513,2.3337,2.43,2.5086,2.5529,2.6162,2.6707,2.7225,2.768,2.8222,2.881,2.9042,2.9233,2.9297,3.0219,3.0556,3.046,3.0551,3.0802,0.1274,0.0646,0.0,0.0,0.0,0.0,0.0,0.0,0.0,0.0,0.0,0.0,0.0,0.0,0.0,0.0,0.0,0.0,0.0,0.0,0.0,0.0,0.0,0.0,0.0,0.0,0.0,0.0,0.0,0.0,0.0,0.0,0.0,0.0,0.0,0.0,0.8038,0.8038,0.8038,0.8038,0.8038,0.8038,0.8038,0.8038,0.8038,0.8038,0.8038,0.8038,0.8038,0.8038,0.8038,0.8038,0.8038,0.8038,0.8038,0.8038,0.8038,0.8038,0.8038,0.8038,0.8038,0.8038,0.8038,0.8237,0.9608,1.0583,1.156,1.2909,1.4172,1.5235,1.5235,1.5534,1.5832,1.5832,1.5832,1.5832,1.5832,1.5832,1.6008,1.6951,1.7124,1.7404,1.8211,1.8672,1.8867,1.8552,1.9272,1.9887,1.9887,2.0329,2.1072,2.2124,2.301,2.3465,2.3375,2.4116,2.4968,2.5754,2.6108,2.6413,2.6635,2.7423,2.7914,2.8102,2.8578,2.8919,2.9134,2.9717,3.0107,3.0276,3.047,3.0651,0.1274,0.0629,0.0,0.0,0.0,0.0,0.0,0.0,0.0,0.0,0.0,0.0,0.0,0.0,0.0,0.0,0.0,0.0,0.0,0.0,0.0,0.0,0.0,0.0,0.0,0.0,0.0,0.0,0.0,0.0,0.0,0.0,0.0,0.0,0.0,0.0,0.7939,0.8038,0.8038,0.8038,0.8038,0.8038,0.8038,0.8038,0.8038,0.8038,0.8038,0.8038,0.8038,0.8038,0.8038,0.8038,0.8038,0.8038,0.8038,0.8038,0.8038,0.8038,0.8038,0.8038,0.8038,0.8038,0.8038,0.8237,0.9608,1.0002,1.0288,1.156,1.2813,1.3872,1.3872,1.4854,1.5832,1.5832,1.5832,1.5832,1.5832,1.5832,1.5832,1.5832,1.5832,1.5832,1.5832,1.6857,1.7684,1.7684,1.8688,1.948,1.948,2.0236,2.0845,2.1167,2.1659,2.2414,2.3379,2.3956,2.4575,2.5544,2.5806,2.6214,2.6973,2.7824,2.7967,2.7279,2.8716,2.9144,2.8463,2.9088,2.9717,3.0309,3.0309,3.0818,0.0416,0.0219,0.0,0.0,0.0,0.0,0.0,0.0,0.0,0.0,0.0,0.0,0.0,0.0,0.0,0.0,0.0,0.0,0.0,0.0,0.0,0.0,0.0,0.0,0.0,0.0,0.0,0.0,0.0,0.0,0.0,0.0,0.0,0.0,0.0,0.0,0.6631,0.7534,0.8038,0.8038,0.8038,0.8038,0.8038,0.8038,0.8038,0.8038,0.8038,0.8038,0.8038,0.8038,0.8038,0.8038,0.8038,0.8038,0.8038,0.8038,0.8038,0.8038,0.8038,0.8038,0.8038,0.8038,0.8038,0.8038,0.8428,0.9213,1.01,1.0485,1.1463,1.2716,1.368,1.4172,1.4651,1.5629,1.5832,1.5832,1.5832,1.5832,1.5832,1.5832,1.5832,1.5832,1.5832,1.6103,1.6386,1.6386,1.7198,1.8287,1.9627,2.0022,2.0558,2.1554,2.2206,2.2597,2.2905,2.4032,2.4849,2.5129,2.5877,2.6284,2.6241,2.6973,2.7109,2.6524,2.7498,2.7689,2.7122,2.824,2.8857,2.9042,2.9451,3.0031,0.0,0.0,0.0,0.0,0.0,0.0,0.0,0.0,0.0,0.0,0.0,0.0,0.0,0.0,0.0,0.0,0.0,0.0,0.0,0.0,0.0,0.0,0.0,0.0,0.0,0.0,0.0,0.0,0.0,0.0,0.0,0.0,0.0,0.0,0.0,0.0,0.683,0.7633,0.8038,0.8038,0.8038,0.8038,0.8038,0.8038,0.8038,0.8038,0.8038,0.8038,0.8038,0.8038,0.8038,0.8038,0.8038,0.8038,0.8038,0.8038,0.8038,0.8038,0.8038,0.8038,0.8038,0.8038,0.8038,0.8038,0.8038,0.8528,0.9213,0.9213,1.0092,1.1356,1.2134,1.2716,1.3584,1.5343,1.5832,1.5832,1.5832,1.5832,1.5832,1.5832,1.5832,1.5832,1.5832,1.5832,1.5832,1.5832,1.622,1.7113,1.8869,1.9418,2.0022,2.125,2.2026,2.2549,2.2924,2.4033,2.4868,2.523,2.6054,2.6409,2.6155,2.6844,2.6877,2.6067,2.6858,2.6862,2.6068,2.7144,2.7849,2.8064,2.8764,2.9361,0.0,0.0,0.0,0.0,0.0,0.0,0.0,0.0116,0.0242,0.0,0.0,0.0,0.0,0.0,0.0,0.0,0.0,0.0,0.0,0.0,0.0,0.0,0.0,0.0,0.0,0.0,0.0,0.0,0.0,0.0,0.0,0.0,0.0,0.0,0.0,0.0,0.7839,0.7939,0.8038,0.0,0.8038,0.8038,0.8038,0.8038,0.8038,0.8038,0.8038,0.8038,0.8038,0.8038,0.8038,0.8038,0.8038,0.8038,0.8038,0.8038,0.8038,0.8038,0.8038,0.8038,0.8038,0.8038,0.8038,0.8038,0.8038,0.8038,0.8038,0.8038,0.8924,0.9805,1.0002,1.0877,1.2436,1.5045,1.5642,1.5642,1.5737,1.5832,1.5832,1.5832,1.5832,1.5832,1.5832,1.5832,1.5832,1.5832,1.5832,1.6292,1.7498,1.8419,1.9445,2.0586,2.1476,2.2327,2.3163,2.3785,2.4491,2.5312,2.5944,2.6371,2.6371,2.7162,2.7078,2.5887,2.6722,2.6565,2.5355,2.6099,2.6788,2.7309,2.8046,2.867,0.0,0.0,0.0,0.0,0.0,0.0,0.0,0.1055,0.1561,0.0238,0.0,0.0,0.0,0.0,0.0,0.0,0.0,0.0,0.0,0.0,0.0,0.0,0.0,0.0,0.0,0.0,0.0,0.0,0.0,0.0,0.0,0.0,0.0,0.0,0.0,0.6132,0.6431,0.7434,0.8038,0.0,0.8038,0.8038,0.8038,0.8038,0.8038,0.8038,0.8038,0.8038,0.8038,0.8038,0.8038,0.8038,0.8038,0.8038,0.8038,0.8038,0.8038,0.8038,0.8038,0.8038,0.8038,0.8038,0.8038,0.8038,0.8038,0.8038,0.8038,0.8038,0.8237,0.8627,0.9706,1.019,1.1072,1.368,1.4268,1.4555,1.5534,1.5832,1.5832,1.5832,1.5832,1.5832,1.5832,1.5832,1.5832,1.5832,1.5832,1.6292,1.7498,1.87,1.9833,2.1087,2.1911,2.2448,2.2681,2.3609,2.3962,2.3349,2.4603,2.53,2.53,2.6208,2.6384,2.5673,2.6399,2.6286,2.5202,2.5873,2.6411,2.6678,2.6864,2.755,0.0,0.0,0.0166,0.0768,0.1468,0.1998,0.2034,0.2772,0.3171,0.235,0.226,0.2269,0.2216,0.0,0.0,0.0,0.0,0.0,0.0,0.0,0.0,0.0,0.0,0.0,0.0,0.0,0.0,0.0,0.0,0.0,0.0,0.0,0.0,0.0,0.5627,0.6331,0.693,0.7633,0.8038,0.8038,0.8038,0.8038,0.8038,0.8038,0.8038,0.8038,0.8038,0.8038,0.8038,0.8038,0.8038,0.8038,0.8038,0.8038,0.8038,0.8038,0.8038,0.8038,0.8038,0.8038,0.8038,0.8038,0.8038,0.8038,0.8038,0.8038,0.8038,0.8038,0.8038,0.8336,0.9608,1.0002,1.0681,1.3295,1.3872,1.4268,1.5534,1.5832,1.5832,1.5832,1.5832,1.5832,1.5832,1.5832,1.5832,1.5832,1.5832,1.6008,1.6669,1.8395,1.977,2.0387,2.1845,2.2812,2.2812,2.3576,2.3881,2.3322,2.4136,2.4865,2.5301,2.5586,2.5684,2.5611,2.5957,2.5743,2.4983,2.5728,2.6,2.5826,2.6162,2.6755,0.0286,0.0312,0.0691,0.1985,0.3268,0.4134,0.4195,0.4484,0.4892,0.4829,0.4691,0.4604,0.0,0.0,0.0,0.0,0.0,0.0,0.0,0.0,0.0,0.0,0.0,0.0,0.0,0.0,0.0,0.0,0.0,0.0,0.0,0.0,0.5222,0.6331,0.6331,0.683,0.7939,0.8038,0.8038,0.8038,0.8038,0.8038,0.8038,0.8038,0.8038,0.8038,0.8038,0.8038,0.8038,0.8038,0.8038,0.8038,0.8038,0.8038,0.8038,0.8038,0.8038,0.8038,0.8038,0.8038,0.8038,0.8038,0.8038,0.8038,0.8038,0.8038,0.8045,0.8072,0.8272,0.867,0.9747,1.0242,1.1012,1.3307,1.3872,1.4268,1.5534,1.5832,1.5832,1.5832,1.5832,1.5832,1.5832,1.5832,1.5832,1.5832,1.5832,1.5832,1.5832,1.7933,1.9497,1.9497,2.1676,2.3144,2.3144,2.3652,2.3909,2.3742,2.3953,2.4355,2.5089,2.4769,2.4803,2.5241,2.5602,2.5485,2.4958,2.5524,2.5651,2.5222,2.5878,2.6244,0.136,0.1388,0.2026,0.3112,0.369,0.4047,0.4056,0.5194,0.6221,0.6036,0.5242,0.0,0.0,0.0,0.0,0.0,0.0,0.0,0.0,0.0,0.0,0.0,0.0,0.0,0.0,0.0,0.0,0.0,0.0,0.0,0.0,0.683,0.7534,0.7739,0.7739,0.7839,0.8038,0.8038,0.8038,0.8038,0.8038,0.8038,0.8038,0.8038,0.8038,0.8038,0.8038,0.8038,0.8038,0.8038,0.8038,0.8038,0.8038,0.8038,0.8038,0.8038,0.8038,0.8038,0.8038,0.8038,0.8038,0.8038,0.8038,0.8038,0.8038,0.8038,0.8065,0.8201,0.9142,1.0138,1.0129,1.1134,1.2381,1.3642,1.3872,1.4268,1.5534,1.5832,1.5832,1.5832,1.5832,1.5832,1.5832,1.5832,1.5832,1.5832,1.5832,1.5832,1.5832,1.7933,1.9497,1.9497,2.1676,2.3144,2.3144,2.3652,2.3659,2.2755,2.3145,2.3287,2.3118,2.3054,2.3253,2.38,2.546,2.6063,2.5485,2.5618,2.5679,2.5801,2.5924,2.6028,0.2299,0.2908,0.3754,0.4471,0.5387,0.6194,0.6261,0.6939,0.7599,0.7539,0.7124,0.0,0.0,0.0,0.0,0.0,0.0,0.0,0.0,0.0,0.0,0.0,0.0,0.0,0.0,0.0,0.0,0.0,0.0,0.0,0.7135,0.764,0.8038,0.8038,0.8038,0.8038,0.8038,0.8038,0.8038,0.8038,0.8038,0.8038,0.8038,0.8038,0.8038,0.8038,0.8038,0.8038,0.8038,0.8038,0.8038,0.8038,0.8038,0.8038,0.8038,0.8038,0.8038,0.8038,0.8038,0.8038,0.8038,0.8038,0.8038,0.8038,0.8038,0.8038,0.8052,0.8119,0.87,0.9571,1.107,1.1873,1.2741,1.4814,1.5063,1.514,1.5629,1.5832,1.5832,1.5832,1.5832,1.5832,1.5832,1.5832,1.5832,1.5832,1.5832,1.5832,1.5832,1.7933,1.9497,1.9497,2.1676,2.3144,2.3144,2.3295,2.3282,2.2871,2.2864,2.288,2.305,2.2778,2.296,2.3452,2.4921,2.553,2.5286,2.5859,2.5987,2.573,2.573,2.584,0.3523,0.4238,0.5073,0.5566,0.6703,0.774,0.7896,0.8126,0.8323,0.0,0.0,0.0,0.0,0.0,0.0,0.0,0.0,0.0,0.0,0.0,0.0,0.0,0.0,0.0,0.0,0.0,0.0,0.0,0.0,0.0,0.8038,0.8038,0.8038,0.8038,0.8038,0.8038,0.8038,0.8038,0.8038,0.8038,0.8038,0.8038,0.8038,0.8038,0.8038,0.8038,0.8038,0.8038,0.8038,0.8038,0.8038,0.8038,0.8038,0.8038,0.8038,0.8038,0.8038,0.8038,0.8038,0.8038,0.8038,0.8038,0.8038,0.8038,0.8038,0.8038,0.8045,0.8085,0.8679,0.9774,1.1873,1.2773,1.3754,1.568,1.5992,1.5832,1.5832,1.5832,1.5832,1.5832,1.5832,1.5832,1.5832,1.5832,1.5832,1.5832,1.5832,1.5927,1.6197,1.8118,1.9588,1.9951,2.1854,2.3144,2.3144,2.3144,2.3144,2.3144,2.2852,2.28,2.3043,2.2693,2.2631,2.2907,2.3813,2.4325,2.4636,2.5346,2.5664,2.545,2.545,2.5618,0.5306,0.5283,0.5151,0.6325,0.7068,0.7434,0.759,0.774,0.7889,0.8031,0.0,0.0,0.0,0.0,0.0,0.0,0.0,0.0,0.0,0.0,0.0,0.0,0.0,0.0,0.0,0.0,0.0,0.0,0.0,0.0,0.8038,0.8038,0.8038,0.8038,0.8038,0.8038,0.8038,0.8038,0.8038,0.8038,0.8038,0.8038,0.8038,0.8038,0.8038,0.8038,0.8038,0.8038,0.8038,0.8038,0.8038,0.8038,0.8038,0.8038,0.8038,0.8038,0.8038,0.8038,0.8038,0.8038,0.8038,0.8038,0.8038,0.8038,0.8038,0.8038,0.8072,0.8214,1.0171,1.2184,1.2174,1.4161,1.5998,1.5912,1.5845,1.5832,1.5832,1.5832,1.5832,1.5832,1.5832,1.5832,1.5832,1.5832,1.5832,1.5832,1.5832,1.6197,1.7404,1.8688,1.9951,2.1105,2.2315,2.3144,2.3144,2.3144,2.3144,2.3144,2.3125,2.291,2.2585,2.2154,2.1722,2.1371,2.1907,2.2616,2.3599,2.3672,2.4108,2.504,2.504,2.5241,0.5647,0.5597,0.5574,0.6351,0.6675,0.6858,0.7109,0.7353,0.757,0.7726,0.0,0.0,0.0,0.0,0.0,0.0,0.0,0.0,0.0,0.0,0.0,0.0,0.0,0.0,0.0,0.0,0.0,0.0,0.0,0.0,0.8038,0.8038,0.8038,0.8038,0.8038,0.8038,0.8038,0.8038,0.8038,0.8038,0.8038,0.8038,0.8038,0.8038,0.8038,0.8038,0.8038,0.8038,0.8038,0.8038,0.8038,0.8038,0.8038,0.8038,0.8038,0.8038,0.8038,0.8038,0.8038,0.8038,0.8038,0.8038,0.8038,0.8038,0.8038,0.8038,0.8052,0.8106,0.9485,1.1171,1.2074,1.3568,1.4998,1.5612,1.5832,1.5832,1.5832,1.5832,1.5832,1.5832,1.5832,1.5832,1.5832,1.5832,1.5832,1.5832,1.5832,1.5927,1.6386,1.8211,1.9679,2.0116,2.1943,2.3144,2.3144,2.3144,2.3144,2.3144,2.3144,2.2949,2.2539,2.2363,2.1953,2.125,2.1372,2.1814,2.2542,2.3231,2.3672,2.4036,2.4707,2.5039,0.5691,0.5698,0.5779,0.6274,0.6363,0.6417,0.677,0.7007,0.7204,0.0,0.0,0.0,0.0,0.0,0.0,0.0,0.0,0.0,0.0,0.0,0.0,0.0,0.0,0.0,0.0,0.0,0.0,0.0,0.0,0.0,0.8038,0.8038,0.8038,0.8038,0.8038,0.8038,0.8038,0.8038,0.8038,0.8038,0.8038,0.8038,0.8038,0.8038,0.8038,0.8038,0.8038,0.8038,0.8038,0.8038,0.8038,0.8038,0.8038,0.8038,0.8038,0.8038,0.8038,0.8038,0.8038,0.8038,0.8038,0.8038,0.8038,0.8038,0.8038,0.8336,0.8627,0.8627,0.9979,1.1657,1.2657,1.3751,1.4886,1.5586,1.5832,1.5832,1.5832,1.5832,1.5832,1.5832,1.5832,1.5832,1.5832,1.5832,1.5832,1.5832,1.6197,1.6574,1.703,1.884,2.0223,2.0674,2.2138,2.3144,2.3144,2.3144,2.3144,2.3144,2.3144,2.3008,2.2734,2.2578,2.2246,2.168,2.1523,2.1531,2.1753,2.2273,2.2713,2.2988,2.3672,2.4348,0.0,0.0,0.0,0.6179,0.6132,0.6132,0.658,0.0,0.677,0.0,0.0,0.0,0.0,0.0,0.0,0.0,0.0,0.0,0.0,0.0,0.0,0.0,0.0,0.0,0.0,0.0,0.0,0.0,0.0,0.8038,0.8038,0.8038,0.8038,0.8038,0.8038,0.8038,0.8038,0.8038,0.8038,0.8038,0.8038,0.8038,0.8038,0.8038,0.8038,0.8038,0.8038,0.8038,0.8038,0.8038,0.8038,0.8038,0.8038,0.8038,0.8038,0.8038,0.8038,0.8038,0.8038,0.8038,0.8038,0.8038,0.8038,0.8038,0.8038,0.8924,1.0002,1.01,1.195,1.3884,1.398,1.4854,1.5832,1.5845,1.5832,1.5832,1.5845,1.5832,1.5832,1.5832,1.5832,1.5832,1.5832,1.5832,1.5832,1.5832,1.6857,1.8149,1.9314,2.0567,2.1747,2.295,2.3057,2.3144,2.3144,2.3144,2.3144,2.3144,2.3144,2.3144,2.3144,2.2754,2.2519,2.2519,2.2109,2.1699,2.125,2.0801,2.1088,2.1962,2.1962,2.3062,0.5888,0.0,0.0,0.0,0.0,0.0,0.0,0.0,0.0,0.0,0.0,0.0,0.0,0.0,0.0,0.0,0.0,0.0,0.0,0.0,0.0,0.0,0.0,0.0,0.0,0.0,0.0,0.0,0.8038,0.8038,0.8038,0.8038,0.8038,0.8038,0.8038,0.8038,0.8038,0.8038,0.8038,0.8038,0.8038,0.8038,0.8038,0.8038,0.8038,0.8038,0.8038,0.8038,0.8038,0.8038,0.8038,0.8038,0.8038,0.8038,0.8038,0.8038,0.8038,0.8038,0.8038,0.8038,0.8038,0.8038,0.8038,0.8137,0.9114,0.9706,1.0224,1.1449,1.2876,1.4448,1.535,1.5691,1.5885,1.6099,1.5979,1.5885,1.6099,1.5979,1.5832,1.5832,1.5832,1.5832,1.5832,1.5832,1.5832,1.5832,1.6857,1.7777,1.8133,2.0025,2.1391,2.1747,2.258,2.3144,2.3144,2.3144,2.3144,2.3144,2.3144,2.3144,2.3144,2.3027,2.2812,2.2519,2.2402,2.2129,2.1699,2.1269,2.1036,2.1011,2.1659,2.2691,0.0,0.0,0.5827,0.0,0.0,0.0,0.5976,0.6051,0.0,0.0,0.0,0.0,0.0,0.0,0.0,0.0,0.0,0.0,0.0,0.0,0.0,0.0,0.0,0.0,0.0,0.0,0.0,0.0,0.8038,0.8038,0.8038,0.8038,0.8038,0.8038,0.8038,0.8038,0.8038,0.8038,0.8038,0.8038,0.8038,0.8038,0.8038,0.8038,0.8038,0.8038,0.8038,0.8038,0.8038,0.8038,0.8038,0.8038,0.8038,0.8038,0.8038,0.8038,0.8038,0.8038,0.8038,0.8079,0.8126,0.8058,0.8371,0.9122,0.9913,1.0842,1.1893,1.2908,1.3993,1.5118,1.6038,1.6046,1.5872,1.6046,1.6046,1.6032,1.6072,1.6046,1.5979,1.5858,1.5832,1.5832,1.5832,1.5832,1.6008,1.648,1.7684,1.8596,1.9131,2.0854,2.2031,2.2031,2.2687,2.3144,2.3144,2.3144,2.3144,2.3144,2.3144,2.3144,2.3144,2.3144,2.3027,2.2773,2.2773,2.2559,2.2148,2.1719,2.1367,2.1193,2.1326,2.2294,0.0,0.0,0.0,0.0,0.0,0.0,0.5976,0.5915,0.582,0.0,0.0,0.0,0.0,0.0,0.0,0.0,0.0,0.0,0.0,0.0,0.0,0.0,0.0,0.0,0.0,0.7991,0.7991,0.7991,0.8004,0.8024,0.8038,0.8038,0.8038,0.8038,0.8038,0.8038,0.8038,0.8038,0.8038,0.8038,0.8038,0.8038,0.8038,0.8038,0.8038,0.8038,0.8038,0.8038,0.8038,0.8038,0.8038,0.8038,0.8038,0.8038,0.8038,0.8038,0.8038,0.8038,0.8038,0.8133,0.8221,0.8085,0.9014,1.023,1.0541,1.2092,1.4027,1.4421,1.5202,1.5952,1.6286,1.6099,1.5858,1.5952,1.6126,1.6219,1.6019,1.6126,1.6192,1.5925,1.5845,1.5832,1.5832,1.5832,1.6197,1.7498,1.878,1.9951,2.1105,2.2315,2.3144,2.3144,2.3144,2.3144,2.3144,2.3144,2.3144,2.3144,2.3144,2.3144,2.3144,2.3144,2.3144,2.3144,2.3144,2.2949,2.2578,2.2109,2.1894,2.1875,2.1074,2.1875,0.0,0.0,0.0,0.0,0.0,0.0,0.5867,0.5915,0.5949,0.0,0.0,0.0,0.0,0.0,0.0,0.0,0.0,0.0,0.0,0.0,0.0,0.0,0.0,0.0,0.0,0.7685,0.7685,0.7685,0.7794,0.7909,0.8031,0.8038,0.8038,0.8038,0.8038,0.8038,0.8038,0.8038,0.8038,0.8038,0.8038,0.8038,0.8038,0.8038,0.8038,0.8038,0.8038,0.8038,0.8038,0.8038,0.8038,0.8038,0.8038,0.8038,0.8038,0.8038,0.8038,0.8038,0.8038,0.8058,0.8079,0.8052,0.8939,1.0242,1.1325,1.2662,1.4268,1.5754,1.6209,1.6313,1.6834,1.6406,1.6005,1.6727,1.658,1.6393,1.6807,1.6567,1.6259,1.6206,1.5992,1.5832,1.5832,1.5832,1.6197,1.7498,1.878,1.9951,2.1105,2.2315,2.3144,2.3144,2.3144,2.3144,2.3144,2.3144,2.3144,2.3144,2.3144,2.3144,2.3144,2.3144,2.3144,2.3144,2.3144,2.3105,2.3008,2.2246,2.1894,2.1875,2.1719,2.1727,0.0,0.0,0.0,0.6254,0.0,0.0,0.0,0.6396,0.6566,0.5906,0.0,0.0,0.0,0.0,0.0,0.0,0.0,0.0,0.0,0.0,0.0,0.0,0.0,0.0,0.0,0.7489,0.7516,0.7597,0.7733,0.7841,0.7923,0.7997,0.8038,0.8038,0.8038,0.8038,0.8038,0.8038,0.8038,0.8038,0.8038,0.8038,0.8038,0.8038,0.8038,0.8038,0.8038,0.8038,0.8038,0.8038,0.8038,0.8038,0.8038,0.8038,0.8038,0.8038,0.8038,0.8038,0.8038,0.8092,0.8153,0.8153,0.9446,1.126,1.2163,1.3947,1.5706,1.646,1.65,1.6406,1.6994,1.6607,1.6192,1.6794,1.682,1.6754,1.6901,1.6807,1.6673,1.6513,1.6246,1.6005,1.5858,1.6292,1.7124,1.8411,1.9588,2.0854,2.2031,2.2775,2.3144,2.3144,2.3144,2.3144,2.3144,2.3144,2.3144,2.3144,2.3144,2.3144,2.3144,2.3144,2.3144,2.3144,2.3144,2.3144,2.3144,2.2715,2.2519,2.25,2.209,2.2122,0.0,0.0,0.0,0.0,0.0,0.7368,0.0,0.0,0.0,0.605,0.0,0.0,0.0,0.0,0.0,0.0,0.0,0.0,0.0,0.0,0.0,0.0,0.0,0.0,0.0,0.7258,0.7305,0.7461,0.7631,0.774,0.7767,0.7943,0.8038,0.8038,0.8038,0.8038,0.8038,0.8038,0.8038,0.8038,0.8038,0.8038,0.8038,0.8038,0.8038,0.8038,0.8038,0.8038,0.8038,0.8038,0.8038,0.8038,0.8038,0.8038,0.8038,0.8038,0.8038,0.8038,0.8038,0.8119,0.833,0.8561,1.05,1.2798,1.3474,1.5275,1.7021,1.6847,1.658,1.6486,1.7074,1.6794,1.6446,1.6794,1.7021,1.7101,1.6914,1.7021,1.7074,1.6834,1.6553,1.6259,1.5965,1.6711,1.7855,1.9314,2.0133,2.123,2.2862,2.2862,2.2862,2.3057,2.3144,2.3144,2.3144,2.3144,2.3144,2.3144,2.3144,2.3144,2.3144,2.3144,2.3144,2.3144,2.3144,2.3144,2.3144,2.3144,2.3144,2.3125,2.2441,2.2665,0.0,0.0,0.0,0.0,0.6743,0.0,0.0,0.0,0.7425,0.6078,0.0,0.0,0.0,0.0,0.0,0.0,0.0,0.0,0.0,0.0,0.0,0.0,0.0,0.0,0.0,0.0,0.6837,0.6993,0.7265,0.7482,0.7617,0.7889,0.8038,0.8038,0.8038,0.8038,0.8038,0.8038,0.8038,0.8038,0.8038,0.8038,0.8038,0.8038,0.8038,0.8038,0.8038,0.8038,0.8038,0.8038,0.8038,0.8038,0.8038,0.8038,0.8038,0.8038,0.8038,0.8038,0.8038,0.8052,0.8285,0.9718,1.2102,1.4713,1.591,1.6539,1.6807,1.7034,1.6887,1.6794,1.7382,1.7101,1.6794,1.7355,1.7315,1.7208,1.7435,1.7301,1.7141,1.7101,1.686,1.6567,1.6273,1.6101,1.6842,1.9131,1.8688,1.933,2.2687,2.212,2.1943,2.295,2.3144,2.3144,2.3144,2.3144,2.3144,2.3144,2.3144,2.3144,2.3144,2.3144,2.3144,2.3144,2.3144,2.3144,2.3144,2.3144,2.3144,2.3144,2.3047,2.2812,0.0,0.0,0.0,0.0,0.0,0.0,0.6688,0.0,0.7577,0.0,0.0,0.0,0.0,0.0,0.0,0.0,0.0,0.0,0.0,0.0,0.0,0.0,0.0,0.0,0.0,0.0,0.0,0.0,0.0,0.7177,0.7326,0.7617,0.7821,0.7902,0.7991,0.8038,0.8038,0.8038,0.8038,0.8038,0.8038,0.8038,0.8038,0.8038,0.8038,0.8038,0.8038,0.8038,0.8038,0.8038,0.8038,0.8038,0.8038,0.8038,0.8038,0.8038,0.8099,0.8261,0.8954,0.9345,0.9916,1.2223,1.3934,1.5359,1.639,1.6941,1.7208,1.7168,1.7061,1.7061,1.7475,1.7275,1.7061,1.7488,1.7488,1.7435,1.7555,1.7488,1.7395,1.7395,1.7021,1.6727,1.6767,1.7538,1.8442,1.9347,2.0223,2.1409,2.2862,2.2687,2.258,2.3057,2.3144,2.3144,2.3144,2.3144,2.3144,2.3144,2.3144,2.3144,2.3144,2.3144,2.3144,2.3144,2.3144,2.3144,2.3144,2.3144,2.3144,2.3144,2.3144,2.3047,0.717,0.0,0.0,0.0,0.0,0.0,0.0,0.0,0.0,0.0,0.0,0.0,0.0,0.0,0.0,0.0,0.0,0.0,0.0,0.0,0.0,0.0,0.0,0.0,0.0,0.0,0.0,0.0,0.0,0.0,0.7075,0.7414,0.7665,0.7807,0.7963,0.8038,0.8038,0.8038,0.8038,0.8038,0.8038,0.8038,0.8038,0.8038,0.8038,0.8038,0.8038,0.8038,0.8038,0.8038,0.8038,0.8045,0.8085,0.8106,0.8099,0.8058,0.814,0.8459,0.9237,1.0315,1.1756,1.4128,1.5371,1.6094,1.6754,1.7248,1.7542,1.7328,1.7275,1.7315,1.7528,1.7422,1.7328,1.7528,1.7582,1.7582,1.7582,1.7582,1.7582,1.7582,1.7235,1.6994,1.7128,1.8032,1.8894,1.9108,2.0292,2.1302,2.205,2.1854,2.1765,2.205,2.2403,2.258,2.258,2.295,2.3144,2.3144,2.3144,2.3144,2.3144,2.3144,2.3144,2.3144,2.3144,2.3144,2.3144,2.3144,2.3144,2.3144,2.3144,2.3144,0.0,0.0,0.0,0.7244,0.0,0.0,0.0,0.0,0.8042,0.0,0.0,0.0,0.0,0.0,0.0,0.0,0.0,0.0,0.0,0.0,0.0,0.0,0.0,0.0,0.0,0.0,0.0,0.0,0.0,0.0,0.6926,0.736,0.7665,0.7807,0.7963,0.8038,0.8038,0.8038,0.8038,0.8038,0.8038,0.8038,0.8038,0.8038,0.8038,0.8038,0.8038,0.8038,0.8038,0.8038,0.8038,0.8052,0.8208,0.8262,0.8248,0.8092,0.814,0.8269,0.8364,1.0406,1.3226,1.4711,1.6273,1.7582,1.7555,1.7569,1.7582,1.7569,1.7569,1.7569,1.7582,1.7569,1.7569,1.7582,1.7582,1.7582,1.7582,1.7582,1.7582,1.7582,1.7569,1.7462,1.7194,1.6518,1.6402,1.7912,1.6947,1.6936,1.9314,1.8596,1.8319,1.9497,2.0657,2.1391,2.1391,2.2403,2.3144,2.3144,2.3144,2.3144,2.3144,2.3144,2.3144,2.3144,2.3144,2.3144,2.3144,2.3144,2.3144,2.3144,2.3144,2.3144,0.0,0.0,0.7882,0.7529,0.0,0.0,0.0,0.0,0.0,0.0,0.0,0.0,0.0,0.0,0.0,0.0,0.0,0.0,0.0,0.0,0.0,0.0,0.0,0.0,0.0,0.0,0.0,0.0,0.0,0.0,0.0,0.7054,0.7366,0.7516,0.7862,0.8038,0.8038,0.8038,0.8038,0.8038,0.8038,0.8038,0.8038,0.8038,0.8038,0.8038,0.8038,0.8038,0.8038,0.8038,0.8099,0.8201,0.8248,0.8933,0.9729,0.8756,0.9042,1.0346,1.2355,1.419,1.5902,1.652,1.7187,1.7582,1.7582,1.7582,1.7582,1.7582,1.7582,1.7582,1.7582,1.7582,1.7582,1.7582,1.7582,1.7582,1.7582,1.7582,1.7582,1.7582,1.7422,1.7328,1.7422,1.686,1.6826,1.8184,1.8677,1.9082,1.969,1.9378,1.9204,1.9513,2.0567,2.1302,2.1302,2.2403,2.3144,2.3144,2.3144,2.3144,2.3144,2.3144,2.3144,2.3144,2.3144,2.3144,2.3144,2.3144,2.3144,2.3144,2.3144,2.3144,0.778,0.7896,0.0,0.7733,0.7678,0.0,0.7489,0.0,0.0,0.0,0.0,0.0,0.0,0.0,0.0,0.0,0.0,0.0,0.0,0.6338,0.0,0.0,0.0,0.0,0.0,0.0,0.0,0.0,0.0,0.0,0.0,0.0,0.7183,0.7448,0.778,0.7984,0.8038,0.8038,0.8038,0.8038,0.8038,0.8038,0.8038,0.8038,0.8038,0.8038,0.8038,0.8038,0.8038,0.8038,0.8133,0.8275,0.833,0.9049,0.991,0.9429,1.0241,1.2009,1.4574,1.5952,1.6691,1.741,1.7582,1.7582,1.7582,1.7582,1.7609,1.7716,1.7662,1.7609,1.7716,1.7662,1.7582,1.7582,1.7582,1.7582,1.7582,1.7582,1.7582,1.7582,1.7435,1.7368,1.7555,1.7275,1.7286,1.7967,1.8632,1.9054,1.8824,1.8793,1.867,1.8426,1.9402,2.0451,2.1212,2.2403,2.3144,2.3144,2.3144,2.3144,2.3144,2.3144,2.3281,2.3594,2.3301,2.3281,2.3594,2.3281,2.3144,2.3144,2.3144,2.3144]},{"header":{"parameterUnit":"m.s-1","parameterCategory":1,"la1":30.6,"la2":29.2853,"lo1":-89.7004,"lo2":-87.6739,"dy":0.0162,"dx":0.0183,"nx":112,"ny":82,"refTime":"2023-04-22T18:00:00:Z","depth":0,"parameterNumber":3,"parameterNumberName":"V-component_of_WINDS"},"data":[0.0,0.0,0.0,0.0,0.0,0.0,0.0,0.0,0.0,0.0,0.0,0.0,0.0,0.0,0.0,0.0,0.0,0.0,0.0,0.0,0.0,0.0,0.0,0.0,0.0,0.0,0.0,0.0,0.0,0.0,0.0,0.0,0.0,0.0,0.0,0.0,0.0,0.0,0.0,0.0,0.0,0.0,0.0,0.0,0.0,0.0,0.0,0.0,0.0,0.0,0.0,0.0,0.0,0.0,0.0,0.0,0.0,0.0,0.0,0.0,0.0,0.0,0.0,0.0,0.0,0.0,0.0,0.0,0.0,0.0,0.0,0.0,0.0,0.0,0.0,0.0,0.0,0.0,0.0,0.0,0.0,0.0,0.0,0.0,0.0,0.0,0.0,0.0,0.0,0.0,0.8262,0.8852,0.9978,1.0622,1.0473,1.1202,1.0666,0.8371,0.0,0.0,0.0,0.0,0.0,0.0,0.0,0.0,0.0,0.0,0.0,0.0,0.0,0.0,0.0,0.0,0.0,0.0,0.0,0.0,0.0,0.0,0.0,0.0,0.0,0.0,0.0,0.0,0.0,0.0,0.0,0.0,0.0,0.0,0.0,0.0,0.0,0.0,0.0,0.0,0.0,0.0,0.0,0.0,0.0,0.0,0.0,0.0,0.0,0.0,0.0,0.0,0.0,0.0,0.0,0.0,0.0,0.0,0.0,0.0,0.0,0.0,0.0,0.0,0.0,0.0,0.0,0.0,0.0,0.0,0.0,0.0,0.0,0.0,0.0,0.0,0.0,0.0,0.0,0.0,0.0,0.0,0.0,0.0,0.0,0.0,0.0,0.0,0.0,0.0,0.0,0.0,0.0,0.0,0.0,0.0,0.0,0.0,0.0,0.0,0.0,0.0,0.0,0.0,0.8506,0.9713,1.0256,1.0466,1.0324,1.0715,1.0305,0.9146,0.0,0.0,0.0,0.0,0.0,0.0,0.0,0.0,0.0,0.0,0.0,0.0,0.0,0.0,0.0,0.0,0.0,0.0,0.0,0.0,0.0,0.0,0.0,0.0,0.0,0.0,0.0,0.0,0.0,0.0,0.0,0.0,0.0,0.0,0.0,0.0,0.0,0.0,0.0,0.0,0.0,0.0,0.0,0.0,0.0,0.0,0.0,0.0,0.0,0.0,0.0,0.0,0.0,0.0,0.0,0.0,0.0,0.0,0.0,0.0,0.0,0.0,0.0,0.0,0.0,0.0,0.0,0.0,0.0,0.0,0.0,0.0,0.0,0.0,0.0,0.0,0.0,0.0,0.0,0.0,0.0,0.0,0.0,0.0,0.0,0.0,0.0,0.0,0.0,0.0,0.0,0.0,0.0,0.0,0.0,0.0,0.0,0.0,0.0,0.0,0.0,0.0,0.0,0.8323,0.8859,1.0046,1.0365,1.0399,1.0175,1.0631,1.0174,0.8631,0.8982,0.0,0.0,0.0,0.0,0.0,0.0,0.0,0.0,0.0,0.0,0.0,0.0,0.0,0.0,0.0,0.0,0.0,0.0,0.0,0.0,0.0,0.0,0.0,0.0,0.0,0.0,0.0,0.0,0.0,0.0,0.0,0.0,0.0,0.0,0.0,0.0,0.0,0.0,0.0,0.0,0.0,0.0,0.0,0.0,0.0,0.0,0.0,0.0,0.0,0.0,0.0,0.0,0.0,0.0,0.0,0.0,0.0,0.0,0.0,0.0,0.0,0.0,0.0,0.0,0.0,0.0,0.0,0.0,0.0,0.0,0.0,0.0,0.0,0.0,0.0,0.0,0.0,0.0,0.0,0.0,0.0,0.0,0.0,0.0,0.0,0.0,0.0,0.0,0.0,0.0,0.0,0.0,0.0,0.0,0.0,0.0,0.0,0.0,0.0,0.0,0.0,0.0,0.875,0.9178,1.0127,1.0324,1.0256,0.9917,1.0219,0.9633,0.7856,0.8228,0.0,0.0,0.0,0.0,0.0,0.0,0.0,0.0,0.0,0.0,0.0,0.0,0.0,0.0,0.0,0.0,0.0,0.0,0.0,0.0,0.0,0.0,0.0,0.0,0.0,0.0,0.0,0.0,0.0,0.0,0.0,0.0,0.0,0.0,0.0,0.0,0.0,0.0,0.0,0.0,0.0,0.0,0.0,0.0,0.0,0.0,0.0,0.0,0.0,0.0,0.0,0.0,0.0,0.0,0.0,0.0,0.0,0.0,0.0,0.0,0.0,0.0,0.0,0.0,0.0,0.0,0.0,0.0,0.0,0.0,0.0,0.0,0.0,0.0,0.0,0.0,0.0,0.0,0.0,0.0,0.0,0.0,0.0,0.0,0.0,0.0,0.0,0.0,0.0,0.0,0.0,0.0,0.0,0.0,0.0,0.0,0.0,0.0,0.0,0.0,0.0,0.0,0.8866,0.9361,0.9998,1.0073,0.9903,0.9462,0.8865,0.8165,0.7441,0.6929,0.0,0.0,0.0,0.0,0.0,0.0,0.0,0.0,0.0,0.0,0.0,0.0,0.0,0.0,0.0,0.0,0.0,0.0,0.0,0.0,0.0,0.0,0.0,0.0,0.0,0.0,0.0,0.0,0.0,0.0,0.0,0.0,0.0,0.0,0.0,0.0,0.0,0.0,0.0,0.0,0.0,0.0,0.0,0.0,0.0,0.0,0.0,0.0,0.0,0.0,0.0,0.0,0.0,0.0,0.0,0.0,0.0,0.0,0.0,0.0,0.0,0.0,0.0,0.0,0.0,0.0,0.0,0.0,0.0,0.0,0.0,0.0,0.0,0.0,0.0,0.0,0.0,0.0,0.0,0.0,0.0,0.0,0.0,0.0,0.0,0.0,0.0,0.0,0.0,0.0,0.0,0.0,0.0,0.0,0.0,0.0,0.0,0.0,0.0,0.0,0.0,0.0,0.8682,0.9211,0.0,0.9856,0.9727,0.9279,0.8642,0.8011,0.7407,0.0,0.0,0.0,0.0,0.0,0.0,0.0,0.0,0.0,0.0,0.0,0.0,0.0,0.0,0.0,0.0,0.0,0.0,0.0,0.0,0.0,0.0,0.0,0.0,0.0,0.0,0.0,0.0,0.0,0.0,0.0,0.0,0.0,0.0,0.0,0.0,0.0,0.0,0.0,0.0,0.0,0.0,0.0,0.0,0.0,0.0,0.0,0.0,0.0,0.0,0.0,0.0,0.0,0.0,0.0,0.0,0.0,0.0,0.0,0.0,0.0,0.0,0.0,0.0,0.0,0.0,0.0,0.0,0.0,0.0,0.0,0.0,0.0,0.0,0.0,0.0,0.0,0.0,0.0,0.0,0.0,0.0,0.0,0.0,0.0,0.0,0.0,0.0,0.0,0.0,0.0,0.0,0.0,0.0,0.0,0.0,0.0,0.0,0.0,0.0,0.0,0.0,0.7963,0.8479,0.8967,0.0,0.9551,0.9408,0.8913,0.8241,0.7672,0.7258,0.0,0.0,0.0,0.0,0.0,0.0,0.0,0.0,0.0,0.0,0.0,0.0,0.0,0.0,0.0,0.0,0.0,0.0,0.0,0.0,0.0,0.0,0.0,0.0,0.0,0.0,0.0,0.0,0.0,0.0,0.0,0.0,0.0,0.0,0.0,0.0,0.0,0.0,0.0,0.0,0.0,0.0,0.0,0.0,0.0,0.0,0.0,0.0,0.0,0.0,0.0,0.0,0.0,0.0,0.0,0.0,0.0,0.0,0.0,0.0,0.0,0.0,0.0,0.0,0.0,0.0,0.0,0.0,0.0,0.0,0.0,0.0,0.0,0.0,0.0,0.0,0.0,0.0,0.0,0.0,0.0,0.0,0.0,0.0,0.0,0.0,0.0,0.0,0.0,0.0,0.0,0.0,0.0,0.0,0.0,0.0,0.0,0.0,0.0,0.0,0.0,0.0,0.7957,0.8296,0.8648,0.9096,0.915,0.8906,0.8316,0.7441,0.6926,0.0,0.0,0.0,0.0,0.0,0.0,0.0,0.0,0.0,0.0,0.0,0.0,0.0,0.0,0.0,0.0,0.0,0.0,0.0,0.0,0.0,0.0,0.0,0.0,0.0,0.0,0.0,0.0,0.0,0.0,0.0,0.0,0.0,0.0,0.0,0.0,0.0,0.0,0.0,0.0,0.0,0.0,0.0,0.0,0.0,0.0,0.0,0.0,0.0,0.0,0.0,0.0,0.0,0.0,0.0,0.0,0.0,0.0,0.0,0.0,0.0,0.0,0.0,0.0,0.0,0.0,0.0,0.0,0.0,0.0,0.0,0.0,0.0,0.0,0.0,0.0,0.0,0.0,0.0,0.0,0.0,0.0,0.0,0.0,0.0,0.0,0.0,0.0,0.0,0.0,0.0,0.0,0.0,0.0,0.0,0.0,0.0,0.0,0.0,0.0,0.0,0.0,0.0,0.7516,0.8018,0.8425,0.8655,0.8777,0.8601,0.7997,0.7319,0.6885,0.6776,0.0,0.0,0.0,0.0,0.0,0.0,0.0,0.0,0.0,0.0,0.0,0.0,0.0,0.0,0.0,0.0,0.0,0.0,0.0,0.0,0.0,0.0,0.0,0.0,0.0,0.0,0.0,0.0,0.0,0.0,0.0,0.0,0.0,0.0,0.0,0.0,0.0,0.0,0.0,0.0,0.0,0.0,0.0,0.0,0.0,0.0,0.0,0.0,0.0,0.0,0.0,0.0,0.0,0.0,0.0,0.0,0.0,0.0,0.0,0.0,0.0,0.0,0.0,0.0,0.0,0.0,0.0,0.0,0.0,0.0,0.0,0.0,0.0,0.0,0.0,0.0,0.0,0.0,0.0,0.0,0.0,0.0,0.0,0.0,0.0,0.0,0.0,0.0,0.0,0.0,0.0,0.0,0.0,0.0,0.0,0.0,0.0,0.0,0.0,0.0,0.0,0.0,0.7319,0.774,0.8106,0.837,0.8425,0.8221,0.7678,0.698,0.6532,0.6437,0.0,0.0,0.0,0.0,0.0,0.0,0.0,0.0,0.0,0.0,0.0,0.0,0.0,0.0,0.0,0.0,0.0,0.0,0.0,0.0,0.0,0.0,0.0,0.0,0.0,0.0,0.0,0.0,0.0,0.0,0.0,0.0,0.0,0.0,0.0,0.0,0.0,0.0,0.0,0.0,0.0,0.0,0.0,0.0,0.0,0.0,0.0,0.0,0.0,0.0,0.0,0.0,0.0,0.0,0.0,0.0,0.0,0.0,0.0,0.0,0.0,0.0,0.0,0.0,0.0,0.0,0.0,0.0,0.0,0.0,0.0,0.0,0.0,0.0,0.0,0.0,0.0,0.0,0.0,0.0,0.0,0.0,0.0,0.0,0.0,0.0,0.0,0.0,0.0,0.0,0.0,0.0,0.0,0.0,0.0,0.0,0.0,0.0,0.0,0.0,0.0,0.0,0.7451,0.7561,0.7822,0.8383,0.8179,0.7794,0.7346,0.6512,0.6003,0.5989,0.0,0.0,0.0,0.0,0.0,0.0,0.0,0.0,0.0,0.0,0.0,0.0,0.0,0.0,0.0,0.0,0.0,0.0,0.0,0.0,0.0,0.0,0.0,0.0,0.0,0.0,0.0,0.0,0.0,0.0,0.0,0.0,0.0,0.0,0.0,0.0,0.0,0.0,0.0,0.0,0.0,0.0,0.0,0.0,0.0,0.0,0.0,0.0,0.0,0.0,0.0,0.0,0.0,0.0,0.0,0.0,0.0,0.0,0.0,0.0,1.4558,0.0,0.0,0.0,0.0,0.0,0.0,0.0,0.0,0.0,0.0,0.0,0.0,0.0,0.0,0.0,0.0,0.0,0.0,0.0,0.0,0.0,0.0,0.0,0.0,0.0,0.0,0.0,0.0,0.0,0.0,0.0,0.0,0.0,0.0,0.0,0.0,0.0,0.0,0.0,0.0,0.0,0.8519,0.7834,0.7773,0.93,0.8328,0.7333,0.6885,0.6234,0.58,0.5691,0.5087,0.0,0.0,0.0,0.0,0.0,0.0,0.0,0.0,0.0,0.0,0.0,0.0,0.0,0.0,0.0,0.0,0.0,0.0,0.0,0.0,0.0,0.0,0.0,0.0,0.0,0.0,0.0,0.0,0.0,0.0,0.0,0.0,0.0,0.0,0.0,0.0,0.0,0.0,0.0,0.0,0.0,0.0,0.0,0.0,0.0,0.0,0.0,0.0,0.0,0.0,0.0,0.0,0.0,0.0,0.0,0.0,0.0,0.0,0.0,0.0,1.5723,0.0,0.0,0.0,0.0,0.0,0.0,0.0,0.0,0.0,0.0,0.0,0.0,0.0,0.0,0.0,0.0,0.0,0.0,0.0,0.0,0.0,0.0,0.0,0.0,0.0,0.0,0.0,0.0,0.0,0.0,0.0,0.0,0.0,0.0,0.0,0.0,0.0,0.0,0.0,0.0,0.792,0.7469,0.7443,0.8575,0.7851,0.7075,0.6627,0.6044,0.5603,0.5386,0.4945,0.0,0.0,0.0,0.0,0.0,0.0,0.0,0.0,0.0,0.0,0.0,0.0,0.0,0.0,0.0,0.0,0.0,0.0,0.0,0.0,0.0,0.0,0.0,0.0,0.0,0.0,0.0,0.0,0.0,0.0,0.0,0.0,0.0,0.0,0.0,0.0,0.0,0.0,0.0,0.0,0.0,0.0,0.0,0.0,0.0,0.0,0.0,0.0,0.0,0.0,0.0,0.0,0.0,0.0,1.9545,1.9579,1.9524,1.9293,1.8973,1.8121,1.722,1.6497,0.0,0.0,0.0,0.0,0.0,0.0,0.0,0.0,0.0,0.0,0.0,0.0,0.0,0.0,0.0,0.0,0.0,0.0,0.0,0.0,0.0,0.0,0.0,0.0,0.0,1.154,1.1082,0.0,0.0,0.0,0.0,0.0,0.0,0.0,0.0,0.0,0.0,0.0,0.0,0.7084,0.6949,0.7059,0.7652,0.7231,0.6851,0.643,0.5874,0.542,0.5114,0.4816,0.4667,0.0,0.0,0.0,0.0,0.0,0.0,0.0,0.0,0.0,0.0,0.0,0.0,0.0,0.0,0.0,0.0,0.0,0.0,0.0,0.0,0.0,0.0,0.0,0.0,0.0,0.0,0.0,0.0,0.0,0.0,0.0,0.0,2.123,2.123,0.0,0.0,0.0,0.0,0.0,0.0,0.0,0.0,0.0,0.0,0.0,0.0,0.0,0.0,2.2206,2.2659,2.2043,2.0247,2.0982,2.0755,1.9744,2.0749,2.1031,2.0807,2.1448,0.0,1.7631,1.6168,0.0,0.0,0.0,0.0,0.0,0.0,0.0,0.0,0.0,0.0,0.0,0.0,0.0,0.0,0.0,0.0,0.0,0.0,0.0,0.0,0.0,0.0,1.291,1.291,1.2791,1.2553,0.0,1.0557,0.8808,0.7681,0.0,0.0,0.0,0.0,0.0,0.0,0.0,0.0,0.8237,0.7341,0.7184,0.8686,0.7468,0.643,0.6112,0.5657,0.5336,0.5109,0.4738,0.4515,0.4533,0.4736,0.0,0.0,0.0,0.0,0.0,0.0,0.0,0.0,0.0,0.0,0.0,0.0,0.0,0.0,0.0,0.0,0.0,0.0,0.0,0.0,0.0,0.0,0.0,0.0,0.0,0.0,0.0,0.0,0.0,2.207,2.2324,2.1348,2.2578,2.334,0.0,0.0,0.0,0.0,0.0,0.0,0.0,0.0,0.0,2.5447,2.5542,2.5105,2.4013,2.443,2.4256,2.3404,2.3993,2.3888,2.3075,2.3655,2.3822,2.3725,2.3861,2.3038,2.1423,1.9557,1.814,1.7173,0.0,0.0,0.0,0.0,0.0,1.5017,1.5017,0.0,0.0,0.0,0.0,0.0,0.0,0.0,0.0,0.0,0.0,0.0,0.0,0.0,0.0,1.3908,1.3841,1.3694,1.3534,1.2501,1.1047,0.0,0.8319,0.741,0.7048,0.0,0.0,0.0,0.0,0.0,0.7209,0.6857,0.6789,0.7567,0.7009,0.6402,0.6016,0.5787,0.5431,0.502,0.3892,0.3203,0.3199,0.3299,0.3898,0.0,0.0,0.0,0.0,0.0,0.0,0.0,0.0,0.0,0.0,0.0,0.0,0.0,0.0,0.0,0.0,0.0,0.0,0.0,0.0,0.0,0.0,0.0,0.0,0.0,0.0,0.0,0.0,2.2695,2.3027,2.1426,2.2949,2.3898,0.0,0.0,0.0,0.0,0.0,0.0,2.8451,2.915,2.9103,2.8207,2.8337,2.7809,2.6443,2.6903,2.6943,2.6562,2.6875,2.6816,2.6387,2.6289,2.6172,2.6035,2.5605,2.5156,2.4555,2.224,2.0254,1.8564,1.7787,1.6699,0.0,1.5576,1.5436,1.5177,1.5177,1.5177,1.5164,1.5097,0.0,1.4282,1.4135,0.0,0.0,0.0,0.0,1.3454,1.4041,0.0,1.4295,1.4656,1.4683,1.4549,1.4255,1.3734,1.2792,0.0,0.9391,0.8014,0.7787,0.0,0.0,0.0,0.0,0.6132,0.6247,0.6356,0.6503,0.6503,0.6549,0.6167,0.5299,0.5173,0.5087,0.5039,0.3645,0.246,0.1673,0.1612,0.2255,0.3595,0.0,0.0,0.0,0.0,0.0,0.0,0.0,0.0,0.0,0.0,0.0,0.0,0.0,0.0,0.0,0.0,0.0,0.0,0.0,0.0,0.0,0.0,0.0,0.0,0.0,0.0,0.0,0.0,0.0,2.1387,2.3457,0.0,0.0,0.0,0.0,2.7872,2.9421,3.0124,2.9784,3.0694,3.124,3.124,3.1598,3.1285,3.0263,3.0601,3.011,2.875,2.8789,2.8574,2.8144,2.7754,2.7344,2.6934,2.6504,2.6074,2.5411,2.2382,2.1098,2.0926,1.8922,1.7738,1.7056,1.6443,1.5562,1.4563,1.4563,1.4563,1.4656,1.5204,1.5164,1.4816,1.4255,1.4068,0.0,0.0,1.3546,1.3761,1.4349,1.4496,1.4643,1.5217,1.5137,1.4856,1.4563,1.4041,1.3039,0.0,0.9933,0.8685,0.7655,0.0,0.6023,0.603,0.6152,0.6254,0.6338,0.6274,0.6366,0.6606,0.6409,0.5456,0.3389,0.327,0.3836,0.5262,0.4777,0.3091,0.0224,0.0116,0.0176,0.0235,0.3595,0.0,0.0,0.0,0.0,0.0,0.0,0.0,0.0,0.0,0.0,0.0,0.0,0.0,0.0,0.0,0.0,0.0,0.0,0.0,0.0,0.0,0.0,0.0,0.0,0.0,0.0,0.0,0.0,2.4531,2.5605,0.0,2.6886,2.7225,2.8379,3.0617,3.1734,3.2814,3.3971,3.4795,3.4992,3.4863,3.4621,3.4234,3.3592,3.346,3.3073,3.2512,3.2212,3.1423,3.0134,2.9577,2.879,2.7812,2.7402,2.6973,2.6426,2.4523,2.2809,2.1391,2.0962,1.971,1.8129,1.8636,1.8473,1.7792,1.7125,1.6921,1.6742,1.5273,1.4629,1.4295,1.3694,1.352,1.3534,1.3627,1.3559,1.3774,1.4362,1.4522,1.4616,1.5017,1.4897,1.4656,1.4549,1.4202,1.3692,1.2855,1.0973,0.9433,0.9096,0.7355,0.6064,0.6166,0.6139,0.6112,0.6118,0.6213,0.5802,0.4457,0.5538,0.5992,0.5224,0.2669,0.1353,0.1891,0.1714,0.1121,0.0056,0.0,0.0,0.0,0.3571,0.5202,0.0,0.0,0.0,0.0,0.0,0.0,0.0,0.0,0.0,0.0,0.0,0.0,0.0,0.0,0.0,0.0,0.0,0.0,0.0,0.0,0.0,0.0,0.0,0.0,0.0,0.0,2.6328,2.6777,2.7441,2.8284,2.9385,2.944,3.0611,3.3441,3.4597,3.5837,3.7161,3.7739,3.7941,3.7685,3.737,3.6868,3.6054,3.571,3.5335,3.4795,3.4123,3.321,3.1954,3.0789,2.9807,2.886,2.7885,2.7285,2.6914,2.5762,2.4313,2.2665,2.2516,2.1318,1.9555,2.04,1.9971,1.8888,1.7829,1.7442,1.7188,1.5368,1.4616,1.4295,1.3801,1.3818,1.4086,1.4295,1.4351,1.4379,1.4891,1.477,1.4563,1.4763,1.4669,1.4496,1.4389,1.4229,1.4028,1.3828,1.1665,0.9948,0.9928,0.7857,0.6288,0.6396,0.6274,0.6179,0.6186,0.561,0.4665,0.3286,0.3717,0.4151,0.4204,0.1612,0.0,0.0,0.0,0.0,0.0,0.0,0.0,0.0,0.2366,0.3907,0.4484,0.0,0.0,0.0,0.0,0.0,0.0,0.0,0.0,0.0,0.0,0.0,0.0,0.0,0.0,0.0,0.0,0.0,0.0,0.0,0.0,0.0,0.0,0.0,2.4414,2.6719,2.8184,2.7832,2.8887,3.0194,3.1484,3.2229,3.372,3.6363,3.7965,3.8894,3.8894,3.9396,3.9697,3.9697,3.9697,3.9025,3.7583,3.7583,3.6811,3.5398,3.4409,3.3937,3.3787,3.1481,3.0432,3.0161,2.8001,2.7051,2.6973,2.6113,2.5488,2.4961,2.3711,2.246,2.1409,2.1338,1.9803,1.7512,1.6305,1.5832,1.5778,1.5484,1.519,1.491,1.4603,1.505,1.5696,1.5779,1.5696,1.5771,1.6,1.5247,1.4509,1.4509,1.4509,1.4429,1.4148,1.4082,1.4082,1.4082,1.2134,1.0377,0.9999,0.8172,0.6702,0.6702,0.6566,0.0,0.6464,0.4594,0.3147,0.3001,0.1166,0.0,0.0,0.0,0.0,0.0,0.0,0.0,0.0,0.0,0.0,0.0,0.0,0.1417,0.4343,0.0,0.0,0.0,0.0,0.0,0.0,0.0,0.0,0.0,0.0,0.0,0.0,0.0,0.0,0.0,0.0,0.0,0.0,0.0,0.0,0.0,0.0,2.8678,2.7396,2.8105,2.918,3.0312,3.0762,3.1957,3.4405,3.4594,3.5759,3.8566,3.9195,3.9471,3.9471,3.9622,3.9697,3.9697,3.9697,3.9465,3.9129,3.9129,3.8921,3.8477,3.7795,3.6699,3.5348,3.4287,3.2565,3.0307,2.9642,2.8672,2.7422,2.6562,2.5957,2.5527,2.5156,2.4249,2.3114,2.2777,2.0718,1.8028,1.7757,1.6852,1.5752,1.5244,1.503,1.5048,1.5262,1.5521,1.5861,1.6601,1.6273,1.5726,1.5801,1.5021,1.4202,1.4202,1.4202,1.4188,1.4108,1.4082,1.4082,1.4082,1.2796,1.1516,1.0603,0.8998,0.7671,0.6861,0.0,0.0,0.6329,0.5821,0.4283,0.1152,0.0378,0.0,0.0,0.0,0.0,0.0,0.0,0.0,0.0,0.0,0.0,0.0,0.0,0.0427,0.0,0.0,0.0,0.0,0.0,0.0,0.0,0.0,0.0,0.0,0.0,0.0,0.0,0.0,0.0,0.0,0.0,0.0,0.0,0.0,0.0,0.0,3.0717,3.223,3.1927,3.2002,3.2475,3.3838,3.4004,3.4837,3.6995,3.6966,3.7628,3.9619,3.9898,3.9948,3.9697,4.016,4.0465,4.0465,4.0465,4.0465,4.0465,3.9981,3.9697,3.9697,3.9145,3.814,3.6819,3.5661,3.4016,0.0,3.0632,2.9497,2.8387,2.7041,2.625,0.0,0.0,0.0,0.0,0.0,1.9734,1.7968,1.7399,1.6633,1.5873,1.6077,1.6035,1.6002,1.6606,1.71,1.7434,1.787,1.7577,1.7009,1.6519,1.5545,1.4657,1.4166,1.4082,1.4082,1.4082,1.4082,1.4082,1.4082,0.0,0.0,1.1466,0.9723,0.8272,0.7621,0.6855,0.6349,0.0,0.6254,0.5225,0.2806,0.1038,0.0,0.0,0.0,0.0,0.0,0.0,0.0,0.0,0.0,0.0,0.0,0.0,0.0,0.0,0.0,0.0,0.0,-0.2546,-0.3731,0.0,0.0,0.0,0.0,0.0,0.0,0.0,0.0,0.0,0.0,0.0,0.0,0.0,0.0,0.0,0.0,3.3247,3.5106,3.7155,3.7267,3.7269,3.7601,3.7713,3.7975,3.8989,3.907,3.9322,3.9844,4.0224,4.0304,3.9903,0.0,0.0,0.0,0.0,4.1789,4.1591,4.0465,3.9853,3.9597,3.9094,3.8542,3.7889,3.6159,3.5059,3.4264,3.1306,2.9923,2.9555,2.7442,2.6265,2.5733,2.3419,2.2262,2.17,1.905,1.7873,0.0,0.0,0.0,0.0,1.7267,1.7477,1.7489,1.8284,1.9037,1.9489,1.9225,1.9116,1.8798,1.7738,1.6601,1.5462,1.4489,1.4166,1.4082,1.4082,1.4082,1.4082,1.4082,1.4082,1.373,1.2638,1.0552,0.8994,0.8742,0.7535,0.0,0.6531,0.6227,0.601,0.594,0.0,0.0,0.0063,0.0,0.0,0.0,0.0,0.0,0.0,0.0,0.0,0.0,0.0,0.0,0.0,0.0,-0.1882,-0.5366,-0.3542,-0.3641,0.0,0.0,0.0,0.0,0.0,0.0,0.0,0.0,0.0,0.0,0.0,0.0,0.0,0.0,0.0,3.5547,3.8107,4.0079,4.104,4.146,4.0805,3.8422,3.8089,3.8635,4.0192,3.9498,3.9503,4.0921,4.03,4.0287,4.1219,4.1518,0.0,4.3122,4.3122,4.2641,4.1591,4.1319,4.0511,3.9019,0.0,0.0,3.7337,3.7017,3.5966,3.4264,3.2542,3.1186,3.0036,2.8221,2.5722,2.3066,2.293,2.1417,1.9279,1.8378,1.7304,1.6103,1.5927,1.648,1.736,1.7264,1.7652,1.8354,1.9103,1.9209,0.0,2.0098,1.9687,1.8957,1.8718,1.7172,1.5613,1.5462,1.4741,1.4082,1.4082,1.4082,1.4082,1.4082,1.4082,1.3917,1.343,1.2074,1.0508,0.8699,0.7907,0.7219,0.6457,0.6254,0.6083,0.5787,0.5087,0.3395,0.0266,0.0,0.0,0.0,0.0,0.0,0.0,0.0,0.0,0.0,0.0,0.0,0.0,0.0,-0.1872,-0.5372,-0.3569,-0.3636,0.0,0.0,0.0,0.0,0.0,0.0,0.0,0.0,0.0,0.0,0.0,2.9837,0.0,0.0,3.8018,4.0473,4.251,4.394,4.452,4.4863,4.3939,4.0937,4.0592,4.0841,4.1306,4.0881,4.0889,4.1747,4.1389,4.1533,4.2474,4.3122,4.3787,4.4442,4.4442,4.4023,4.3062,4.1823,4.0612,3.9282,3.8715,3.799,3.7186,3.7186,3.6571,3.5283,3.3231,3.1927,3.1068,2.8387,2.5227,2.1976,2.2025,2.0295,1.7655,1.7513,1.6677,1.5927,1.6574,1.7124,1.784,1.8904,1.9411,1.9661,2.0486,2.0423,2.0207,2.0547,2.0235,1.9687,1.9116,1.8141,1.7286,1.6905,1.6246,1.5756,1.6004,1.5831,1.5545,1.4977,1.4894,1.4685,1.3964,1.3205,1.2011,1.0056,0.865,0.7633,0.7096,0.6492,0.6043,0.5894,0.5695,0.442,0.1613,0.051,0.0,0.0,0.0,0.0,0.0,0.0,0.0,0.0,0.0,0.0,0.0,0.0,-0.1887,-0.5377,-0.448,-0.4509,0.0,0.0,0.0,0.0,0.0,0.0,0.0,2.9061,2.9688,3.0556,3.2066,3.4383,3.7853,4.0227,4.2342,4.4581,4.5757,4.6643,4.7039,4.7011,4.6102,4.3836,4.3643,4.3413,4.2874,4.2721,4.2656,4.2717,4.2658,4.2959,4.3815,4.484,4.5508,4.5779,4.5663,4.5165,4.4378,4.2389,4.0748,3.9623,3.8691,3.7733,3.7036,3.7036,3.6784,3.6238,3.3435,3.1995,3.1504,2.8005,2.4757,2.2013,2.1445,1.9574,1.7288,1.6819,1.6481,1.6292,1.7311,1.8056,1.8688,2.0657,2.1207,2.1188,2.1742,2.1582,2.1133,2.0684,2.0566,2.0411,1.9529,1.9195,1.8869,1.8292,1.7713,1.7416,1.7796,1.7549,1.7009,1.6191,1.5861,1.5448,1.449,1.3966,1.305,1.1504,0.9658,0.8282,0.7863,0.6972,0.6282,0.603,0.5728,0.4711,0.2777,0.1546,0.0642,0.0056,0.0,0.0,0.0,0.0,0.0,0.0,0.0,0.0,0.0,0.0,-0.1505,-0.4341,-0.5054,-0.538,3.1693,3.1003,3.0755,3.2225,3.2697,3.3384,0.0,0.0,3.6443,3.6532,3.7659,3.9142,4.1107,4.2556,4.397,4.5785,4.6671,4.7011,4.7094,4.6652,4.6091,4.5786,4.5786,4.5465,4.4866,4.432,4.4065,4.4123,4.3629,4.3965,4.5115,4.5298,4.5869,4.7019,4.6539,4.5666,4.4378,4.351,4.173,3.8991,3.8897,3.7955,3.6458,3.6458,3.6408,3.6238,3.3064,3.1108,2.9737,2.6092,2.418,2.3349,2.1643,2.0394,1.9241,1.7175,1.6868,1.7498,1.7684,1.9131,2.0926,2.1194,2.1752,2.2252,2.2012,2.1582,2.1133,2.0684,2.0566,2.0566,2.0489,1.9687,1.8975,1.8931,1.8095,1.735,1.74,1.7367,1.7253,1.7172,1.6355,1.5606,1.5242,1.4293,1.3114,1.1822,1.1155,1.0065,0.8034,0.7685,0.7155,0.6119,0.5967,0.4942,0.2443,0.3329,0.287,0.0168,0.0,0.0,0.0,0.0,0.0,0.0,0.0,0.0,0.0,0.0,-0.0188,-0.0708,-0.388,-0.5394,3.2925,3.2818,3.3145,3.4235,3.5377,3.6633,3.8164,3.8559,3.8894,3.9891,4.1075,4.2452,4.4243,4.5561,4.6708,0.0,4.818,4.8354,4.8354,4.8151,4.7688,4.6871,4.6784,4.6367,4.5244,4.4649,4.4581,4.5373,4.4903,4.5115,4.6432,4.655,4.6726,4.7309,4.704,4.6245,4.4902,4.4008,4.245,4.0479,3.9087,3.807,3.7428,3.6709,3.5779,3.4676,3.3264,3.1278,2.8697,2.6939,2.5061,2.3188,2.2065,2.0874,1.9743,1.8814,1.8504,1.8872,1.9588,2.0494,2.1409,2.212,2.2227,2.2168,2.2227,2.1777,2.1191,2.1016,2.0957,2.0898,2.0625,2.0255,1.9979,2.0245,1.9776,1.925,1.9505,1.9359,1.9036,1.8381,1.79,1.7365,1.6573,1.5583,1.4582,1.3936,1.2447,1.0852,0.9126,0.8407,0.748,0.6002,0.5854,0.5325,0.4003,0.4232,0.3936,0.2707,0.1804,0.1295,0.1265,0.1299,0.0851,0.0,0.0,0.0,0.0,0.0,0.0,-0.0061,-0.1523,-0.3378,3.4444,3.492,3.5826,3.7028,3.8517,3.9899,4.0859,4.1453,4.205,4.3393,4.45,4.5704,4.7139,4.8196,4.9017,4.9687,5.0018,5.014,5.014,4.9596,4.8865,4.789,4.7463,4.6856,4.6027,4.5231,4.5324,4.6446,4.613,4.6344,4.7222,4.7309,4.7309,4.7309,4.695,4.6292,4.5304,4.4137,4.2876,4.1587,3.9858,3.889,3.8559,3.7428,3.5893,3.4269,3.3577,3.1872,2.9437,2.7967,2.6067,2.3786,2.2834,2.1751,2.0801,2.0801,2.0446,2.0116,2.1016,2.1498,2.1961,2.2775,2.2734,2.2246,2.2324,2.1992,2.1523,2.1152,2.1133,2.1133,2.0684,2.0566,2.0644,2.0977,2.0801,2.0664,2.0977,2.0801,2.0391,1.959,1.9195,1.8718,1.79,1.6846,1.5919,1.5343,1.3815,1.2037,1.0372,0.8949,0.748,0.5992,0.5734,0.5554,0.5105,0.4827,0.4569,0.4481,0.3473,0.2819,0.2834,0.2828,0.2317,0.1273,0.0395,0.0,0.0,0.0,0.0,0.0,0.0,-0.1413,3.6635,3.737,3.8514,4.1082,4.2212,4.3197,4.4813,4.6471,4.763,4.7665,4.8449,4.9305,4.996,5.0087,5.0388,5.1009,5.1757,5.2203,5.2203,5.0452,4.9069,4.9038,4.7829,4.7257,0.0,4.6946,4.6565,4.7193,4.7222,4.7309,4.7309,4.7309,4.7309,4.7309,4.6052,4.5334,4.5304,4.3937,4.2769,4.1587,4.1504,4.0916,3.9798,3.8559,3.7402,3.6163,3.395,3.2816,3.2464,2.8571,2.6634,2.6062,2.4376,2.3446,2.2969,2.2969,2.2227,2.1284,2.1302,2.2031,2.3057,2.3057,2.3125,2.2949,2.2148,2.2168,2.2207,2.0937,2.0898,2.1133,2.0684,2.0566,2.0566,2.0586,2.0586,2.0566,2.0586,2.0586,2.0566,2.0566,1.9687,1.8957,1.8957,1.798,1.6815,1.5503,1.5203,1.4251,1.1486,0.9212,0.7266,0.5978,0.58,0.5616,0.5169,0.4937,0.4797,0.4533,0.4445,0.4428,0.4448,0.4442,0.4386,0.4386,0.1509,0.0,0.0,0.0,0.0,0.0,0.0,-0.0064,3.8275,4.0364,4.2583,4.4413,4.619,4.7927,4.9334,5.0009,5.0295,5.0222,4.8889,4.769,4.7394,4.7362,4.7585,4.8286,4.9445,5.048,5.0927,5.0416,4.9617,4.8658,4.8147,0.0,0.0,0.0,0.0,4.8285,4.7865,4.7502,4.7279,4.7309,4.7309,4.7309,4.6441,4.5753,4.5304,4.4436,4.3588,4.271,4.1947,4.1,3.9885,3.8247,3.7164,3.6326,3.4449,3.2633,3.1086,2.9491,2.8068,2.6801,2.5894,2.5019,2.4296,2.5062,2.4617,2.3481,2.2736,2.2775,2.3086,2.2812,2.2539,2.2305,2.2305,2.2207,2.207,2.1894,2.1758,2.1562,2.1113,2.0781,2.0566,2.0566,2.0566,2.0566,2.0566,2.0566,2.0566,2.0566,2.0333,2.0079,2.0079,1.8897,1.7398,1.5783,1.3853,1.2245,1.1295,0.9816,0.8309,0.6968,0.6785,0.6418,0.5377,0.506,0.4877,0.4924,0.466,0.4518,0.4619,0.4524,0.4477,0.4484,0.3522,0.2007,0.0,0.0,0.0,0.0,0.0,0.0,4.1205,4.3886,4.6416,4.8183,4.9943,5.1434,5.226,5.2012,5.1447,5.0887,4.894,4.7004,4.5992,4.5602,4.5732,4.6776,4.7789,4.8931,5.0504,4.9975,4.942,4.9328,4.887,4.8576,0.0,0.0,0.0,4.8426,4.8202,4.7834,4.7366,4.7309,4.7309,4.7309,4.6441,4.5753,4.5304,4.4407,4.3629,4.297,4.196,4.0925,3.9732,3.8638,3.7551,3.6534,3.4899,3.3189,3.1477,3.0097,2.8761,2.7638,2.6828,2.6047,2.5462,2.6213,2.5937,2.4954,2.4219,2.3965,2.3903,2.3453,2.331,2.3207,2.3084,2.3186,2.3104,2.2493,2.2291,2.209,2.1649,2.1308,2.1145,2.1527,2.1603,2.1603,2.1603,2.1603,2.1603,2.1603,2.1603,2.1542,2.1398,1.971,1.7953,1.6828,1.4378,1.2395,1.1639,1.0732,0.9604,0.7948,0.7434,0.6785,0.5969,0.5325,0.5033,0.5128,0.4762,0.4585,0.4687,0.4545,0.4519,0.447,0.4477,0.3522,0.1618,0.1083,0.052,0.0,0.0,0.0,4.5289,4.7843,4.9926,5.2337,5.3291,5.3696,5.3582,5.2693,5.1465,4.9912,4.8523,4.7158,4.5703,0.0,4.4959,4.6481,4.6853,4.8003,5.0913,4.9526,4.8951,0.0,0.0,0.0,0.0,0.0,0.0,4.8012,0.0,4.845,4.7452,4.7396,4.7396,4.7309,4.5992,4.5304,4.5304,4.3958,4.297,4.2419,4.1683,4.079,3.9715,3.9549,3.854,3.6824,3.533,3.4336,3.3461,3.0343,2.909,2.8937,2.73,2.6707,2.6707,2.6685,2.6287,2.5836,2.5791,2.5711,2.5427,2.4937,2.5093,2.5395,2.448,2.4837,2.5046,2.2764,2.2471,2.2703,2.226,2.2113,2.2339,2.3283,2.3526,2.3526,2.3576,2.3576,2.3576,2.3649,2.3576,2.3346,2.276,2.0456,1.8625,1.8566,1.6774,1.4641,1.259,1.2042,1.1057,0.8996,0.7734,0.6924,0.6736,0.5788,0.5135,0.5142,0.4924,0.4766,0.4714,0.4615,0.4532,0.4532,0.4477,0.4477,0.4477,0.3012,0.1614,0.0245,0.0061,0.0,4.8808,5.1374,5.3414,5.3978,5.4454,5.4722,5.4667,5.3348,5.1464,4.9471,4.6563,4.382,4.1865,4.2286,4.3572,4.5635,4.78,0.0,5.257,5.2435,0.0,5.2029,0.0,5.1386,5.1251,5.1522,0.0,0.0,4.9685,4.9202,4.8481,4.846,4.8072,4.7309,4.5992,4.5304,4.5304,4.3509,4.2521,4.2419,4.1683,4.1203,4.0837,3.9073,3.7987,3.7451,3.5278,3.4023,3.3349,3.1836,3.1368,3.1474,2.9677,2.9319,2.9808,2.9428,2.9074,2.8893,2.8768,2.7115,2.4937,2.4524,2.4457,2.4502,2.4256,2.4368,2.447,2.4139,2.3985,2.3765,2.3655,2.3348,2.3136,2.3452,2.3526,2.3722,2.4352,2.4472,2.4661,2.529,2.4919,2.4002,2.243,2.1589,2.0625,1.9292,1.8617,1.7366,1.4767,1.358,1.2402,1.0972,0.9705,0.8333,0.6802,0.6301,0.5878,0.5363,0.5632,0.5562,0.5013,0.5416,0.5311,0.469,0.4524,0.4525,0.4477,0.4082,0.3727,0.328,0.1023,0.0,5.2091,5.4338,5.5916,5.5837,5.6111,5.5894,5.4171,5.2304,5.0015,4.6377,4.3986,4.1731,3.9215,4.0043,4.1802,4.4078,0.0,0.0,5.2486,5.303,5.3115,0.0,5.3019,0.0,5.2232,5.2266,5.2236,0.0,5.1177,5.031,4.9584,4.9536,4.909,4.8194,4.7114,4.6155,4.513,4.2995,4.1923,4.1923,4.0965,4.0516,4.0487,3.8797,3.7857,3.7463,0.0,3.4281,3.362,3.2682,3.2391,3.2522,3.1415,3.1129,3.1218,3.0905,3.0422,2.9873,2.9843,2.8392,2.6621,2.6396,2.647,2.6618,2.6371,2.647,2.6596,2.6118,2.5853,2.5636,2.5636,2.5465,2.5387,2.5827,2.5921,2.6034,2.6553,2.6595,2.6796,2.7302,2.6789,2.5861,2.4384,2.3436,2.2283,2.0467,1.9701,1.8623,1.6645,1.4847,1.3369,1.228,1.0558,0.9094,0.7902,0.7397,0.6939,0.6588,0.676,0.6511,0.5691,0.5909,0.5604,0.4694,0.4594,0.4519,0.447,0.447,0.4511,0.4478,0.2767,0.1239,5.5799,5.7387,5.8106,5.7793,5.7621,5.6528,5.2819,5.0381,4.7435,4.2388,4.123,4.0241,3.7373,3.8369,4.043,4.2793,4.4688,4.7429,5.1988,5.2626,5.3188,5.4574,5.42,5.3791,5.3649,5.3039,5.2872,5.345,5.2527,5.154,5.0498,5.0422,5.0037,4.9085,4.8477,4.712,4.4837,4.2755,4.167,4.1579,4.0341,3.9737,3.9707,3.8813,3.8151,3.7481,0.0,0.0,3.4109,3.3185,3.2876,3.2947,3.2664,3.2444,3.2066,3.1873,3.1226,3.0411,3.0326,3.0023,2.951,2.9101,2.9297,2.9628,2.9168,2.9297,2.9443,2.8179,2.7798,2.7798,2.7798,2.7798,2.8045,2.8821,2.9002,2.9002,2.9129,2.9254,2.9317,2.9192,2.8836,2.8201,2.7247,2.5543,2.3717,2.2031,2.0577,1.9309,1.8259,1.6024,1.4082,1.3168,1.1005,0.9524,0.9332,0.8613,0.8096,0.8021,0.7964,0.7539,0.6669,0.641,0.5859,0.4889,0.4713,0.4567,0.4519,0.4519,0.4475,0.45,0.4556,0.2997,6.1072,6.1691,6.1471,6.0206,5.7444,5.4485,5.238,4.8181,4.3883,4.1061,3.9481,3.8044,3.6394,3.8439,4.1379,4.4314,4.6648,4.9513,5.3545,5.4111,5.45,0.0,5.5411,5.5062,5.4482,5.4316,0.0,0.0,0.0,0.0,5.0785,5.0713,4.9766,4.7604,4.7444,4.6638,4.5062,4.4098,4.3332,4.2695,4.1939,4.1559,4.1496,3.952,3.8573,3.8323,0.0,0.0,3.5133,3.4177,3.4245,3.4839,3.3255,3.3513,3.4636,3.3354,3.3245,3.3685,3.3146,3.2864,3.2392,2.9818,2.9058,2.914,2.903,2.9058,2.924,2.9459,2.9558,2.9558,2.9558,2.9558,2.9492,2.9073,2.9002,2.9192,2.9936,3.0598,3.0896,3.0208,3.0001,2.9501,2.8174,2.672,2.5221,2.3754,2.2327,2.0846,1.9309,1.6862,1.4997,1.4148,1.2409,1.0843,0.9396,0.9139,0.8742,0.8021,0.8634,0.8612,0.7777,0.8028,0.7474,0.5994,0.5546,0.5054,0.4519,0.4519,0.4477,0.4511,0.4684,0.3702,6.1777,6.2408,6.2141,5.9781,5.7065,5.3929,4.9706,4.5758,4.1905,3.8267,3.728,3.6744,3.562,3.7715,4.0491,4.3231,4.4998,4.7847,5.3075,5.3435,5.3986,5.6081,5.6313,5.6004,5.5262,5.4793,0.0,0.0,0.0,0.0,5.1596,5.0827,4.9892,4.876,4.7463,4.6543,4.5861,4.4294,4.3389,4.2972,4.2333,4.1821,4.1374,4.0008,3.9156,3.8684,0.0,0.0,3.6662,3.6198,3.6291,3.6569,3.5698,3.5646,3.6012,3.4856,3.4541,3.4558,3.3822,3.3598,3.336,3.1866,3.1414,3.1414,3.1414,3.1414,3.1441,3.1805,3.186,3.186,3.186,3.186,3.1805,3.1441,3.1414,3.1528,3.1926,3.229,3.2407,3.1649,3.1477,3.1041,2.9537,2.8124,2.6578,2.4708,2.3203,2.1742,2.0161,1.8294,1.6574,1.508,1.3421,1.2074,1.1267,1.0829,1.0451,0.9996,0.9958,0.9588,0.8742,0.8641,0.801,0.6813,0.5958,0.5328,0.4999,0.4677,0.4519,0.4525,0.473,0.4436,6.1831,6.2422,6.2114,5.9253,5.6562,5.3041,4.7241,4.3497,4.0084,3.5871,3.5569,3.5862,3.5385,3.7147,3.957,4.2139,4.324,4.592,5.2087,5.2564,5.3419,5.6514,5.7043,0.0,5.6004,5.5415,0.0,0.0,0.0,0.0,5.2081,5.0532,4.9627,4.9627,4.7655,4.654,4.6529,4.4713,4.3774,4.3702,4.3056,4.2374,4.1629,4.0615,3.9758,3.9049,0.0,0.0,0.0,3.793,3.7955,3.7955,3.7955,3.7728,3.7306,3.6535,3.5953,3.5383,3.466,3.4349,3.4349,3.4349,3.4055,3.3738,3.3617,3.3668,3.3738,3.382,3.382,3.382,3.382,3.3949,3.406,3.4066,3.397,3.3822,3.3822,3.3822,3.3582,3.2765,3.2602,3.2185,3.0807,2.9362,2.7721,2.5657,2.4142,2.2639,2.1106,1.9849,1.8407,1.649,1.4551,1.3275,1.3009,1.2443,1.2074,1.2074,1.1296,1.0541,0.9843,0.9248,0.8504,0.7659,0.6682,0.6101,0.5934,0.5226,0.4889,0.484,0.4843,0.4979,6.3525,6.335,6.2375,6.0616,5.5676,5.0288,4.6728,4.1772,3.7367,3.5422,3.5064,3.5349,3.6046,3.7551,3.9717,4.2873,4.4048,4.6361,5.1389,5.2674,5.3989,5.6511,5.7427,0.0,5.6861,5.6737,0.0,0.0,0.0,0.0,0.0,4.9308,4.8105,4.8105,4.7267,4.6714,4.6596,4.6404,4.6221,4.6098,4.5459,4.4819,4.3976,4.1977,4.0663,3.9907,0.0,0.0,0.0,3.8329,3.8537,3.8537,3.8537,3.8824,3.917,3.8367,3.8061,3.7963,3.715,3.6869,3.6869,3.6869,3.5668,3.4169,3.3738,3.3874,3.4266,3.443,3.4544,3.4544,3.4544,3.5037,3.5545,3.5594,3.5059,3.4611,3.4611,3.4611,3.4208,3.2858,3.2602,3.2327,3.1509,3.0221,2.8767,2.7294,2.5861,2.4227,2.2049,2.128,2.0401,1.8917,1.6333,1.4241,1.3103,1.2948,1.2887,1.2887,1.2151,1.164,1.1578,1.054,0.9576,0.8833,0.8504,0.8002,0.7298,0.647,0.6054,0.6054,0.5406,0.5051,6.0709,6.1594,6.1337,5.829,5.4142,4.9554,4.4819,4.0487,3.689,3.4724,3.4284,3.4688,3.6046,3.6413,3.7551,4.0781,4.0781,4.2213,4.7572,4.8196,4.9884,5.4766,5.5647,0.0,0.0,0.0,0.0,0.0,0.0,0.0,0.0,5.0082,4.909,4.909,4.7908,4.7265,4.7171,4.6715,4.6442,4.6365,4.6161,4.5396,4.4202,4.3325,4.225,4.1078,0.0,0.0,0.0,4.0431,4.0526,4.0526,4.0526,4.0676,4.0762,4.0032,3.977,3.962,3.838,3.7919,3.7848,3.7388,3.6876,3.6382,3.5916,3.5874,3.6042,3.6153,3.6187,3.6187,3.6187,3.6473,3.6763,3.6801,3.6367,3.5958,3.5958,3.5578,3.4955,3.3986,3.3495,3.3002,3.2272,3.0952,2.952,2.8139,2.7076,2.5641,2.362,2.273,2.1788,2.051,1.8408,1.6532,1.5216,1.4632,1.4159,1.3734,1.2992,1.232,1.1826,1.1163,1.0449,0.9675,0.8979,0.8434,0.8139,0.7359,0.6703,0.6164,0.5988,0.5572,5.7014,5.8676,5.9024,5.5721,5.2087,4.8049,4.3094,3.946,3.6486,3.4247,3.3807,3.4247,3.5642,3.5422,3.5981,3.9056,3.8579,3.9643,4.4819,4.5259,4.7058,5.2471,0.0,5.4511,0.0,0.0,0.0,0.0,0.0,0.0,0.0,5.1355,5.0279,4.9742,4.8247,4.7522,4.7706,4.7276,4.7075,4.7111,4.6721,4.5853,4.4563,4.3997,4.305,0.0,0.0,0.0,0.0,4.1979,4.2062,4.2062,4.2062,4.2144,4.2199,4.145,4.1163,4.0981,3.9657,3.9227,3.9119,3.8546,3.858,3.8753,3.8438,3.7935,3.7432,3.7532,3.7388,3.7388,3.8061,3.7993,3.784,3.8079,3.7772,3.7285,3.6852,3.6332,3.5677,3.4769,3.4071,3.3391,3.2711,3.1507,3.0191,2.8886,2.8223,2.7131,2.5141,2.4405,2.3449,2.203,2.0692,1.9159,1.7248,1.6341,1.5644,1.4904,1.3897,1.3114,1.2565,1.1843,1.118,1.0601,0.9672,0.9209,0.9209,0.8414,0.7746,0.7135,0.6715,0.6022,5.3349,5.4621,5.5244,5.3628,4.9554,4.5112,4.1846,3.8615,3.5826,3.4137,3.3807,3.4064,3.4844,3.499,3.5797,3.8322,3.8689,4.012,4.4158,4.5406,4.6947,0.0,0.0,5.2487,0.0,0.0,0.0,0.0,0.0,0.0,0.0,5.2868,5.1185,4.937,4.7811,4.7311,4.7974,4.8377,4.8692,4.8844,4.7462,4.6397,4.5626,4.3739,0.0,0.0,0.0,0.0,0.0,4.2422,4.2693,4.2693,4.2693,4.3032,4.3387,4.258,4.2286,4.2176,4.1335,4.1079,4.1079,4.1042,4.1042,4.1042,4.1042,3.9574,3.797,3.8282,3.7813,3.7742,4.0046,3.9514,3.8611,3.9529,3.9232,3.8328,3.7046,3.6772,3.6363,3.4868,3.4071,3.3391,3.2711,3.1966,3.0982,2.961,2.9377,2.8626,2.6606,2.6353,2.56,2.3625,2.3355,2.2026,1.8748,1.7796,1.7138,1.6524,1.5021,1.4213,1.4213,1.261,1.1764,1.1764,1.0982,1.0555,1.0555,0.9716,0.9268,0.9204,0.7502,0.6203,4.687,4.8236,4.8563,4.6985,4.4599,4.1919,3.9239,3.6523,3.4229,3.2911,3.2803,3.314,3.3749,3.4036,3.5165,3.8212,3.8884,4.0057,4.2996,4.5319,4.789,5.1024,5.4593,5.7181,0.0,0.0,0.0,0.0,0.0,0.0,0.0,0.0,5.1732,5.1148,4.9582,4.8828,4.9033,4.9121,4.9251,4.9295,4.8234,4.7348,4.6555,4.5388,0.0,0.0,0.0,0.0,0.0,4.3615,4.3586,4.3553,4.332,4.3321,4.3461,4.3204,4.313,4.302,4.2213,4.1919,4.1846,4.1295,4.1111,4.1222,4.1772,4.0683,3.9272,3.9395,3.9652,4.0051,4.078,4.0709,4.0402,4.0369,3.9914,3.9122,3.7827,3.7144,3.6658,3.6202,3.51,3.4382,3.4702,3.3338,3.1916,3.1049,3.0103,2.8958,2.7367,2.6745,2.5827,2.4213,2.4015,2.2891,2.0027,1.9064,1.8137,1.7217,1.6118,1.5238,1.4671,1.3857,1.3291,1.3042,1.1947,1.1406,1.1406,1.0604,0.9588,0.8355,0.7242,0.6203,4.1139,4.2864,4.3314,4.2029,4.0487,3.8726,3.6597,3.4651,3.3057,3.2038,3.1989,3.2324,3.2939,3.3195,3.4265,3.7026,3.8191,3.9522,4.1734,4.4681,0.0,5.1357,0.0,0.0,0.0,0.0,0.0,0.0,0.0,0.0,0.0,0.0,5.2308,5.1965,5.0502,4.9738,4.9738,4.9872,4.9872,4.97,4.8894,4.8022,4.7188,4.6237,0.0,0.0,0.0,0.0,0.0,4.4318,4.4233,4.4204,4.4004,4.3918,4.3918,4.3918,4.3918,4.3844,4.3324,4.3138,4.3064,4.2395,4.2124,4.2029,4.2249,4.1589,4.0818,4.0818,4.0965,4.1258,4.1846,4.1898,4.1578,4.0806,4.0391,3.9633,3.7874,3.711,3.6705,3.64,3.5666,3.5053,3.5218,3.4266,3.3052,3.2098,3.1236,3.0208,2.8811,2.8057,2.7021,2.526,2.4872,2.3791,2.1624,2.0476,1.9358,1.8099,1.7243,1.6412,1.5607,1.4976,1.4515,1.4104,1.2994,1.2383,1.2258,1.1469,1.0148,0.8484,0.7567,0.6728,0.0,3.8201,3.9129,3.8358,3.7074,3.5532,3.399,3.2999,0.0,3.1458,3.1336,3.1618,3.2438,3.2647,3.3363,3.5442,3.7131,3.8827,0.0,4.4134,0.0,0.0,5.4956,0.0,0.0,0.0,0.0,0.0,0.0,0.0,0.0,0.0,5.2818,5.1933,5.0757,5.0159,5.0159,5.0504,5.0466,5.0021,4.9281,4.8464,4.7487,4.6379,0.0,0.0,0.0,0.0,0.0,4.465,4.465,4.465,4.4624,4.4599,4.4599,4.4599,4.4599,4.4599,4.4599,4.4599,4.4508,4.4117,4.3823,4.3385,4.2616,4.2396,4.2359,4.2323,4.1809,4.1625,4.3094,4.2947,4.2118,4.1078,4.0795,4.0116,3.7581,3.692,3.6671,3.5994,3.5799,3.558,3.5018,3.4836,3.4324,3.2975,3.2625,3.202,3.0694,2.9953,2.8807,2.6721,2.5855,2.4821,2.3305,2.1994,2.0664,1.9276,1.8473,1.7637,1.6782,1.5963,1.5378,1.5049,1.4122,1.3418,1.2887,1.2166,1.0982,0.9268,0.8484,0.7567,2.9551,0.0,3.333,3.3146,3.2816,3.2449,0.0,3.1347,3.0687,3.0393,3.0582,3.1184,3.2567,3.3022,3.4411,3.8033,3.9186,4.0397,4.2775,0.0,0.0,5.4425,0.0,0.0,0.0,0.0,0.0,0.0,0.0,0.0,0.0,0.0,5.2818,5.1933,5.1027,5.0584,5.0584,5.0644,5.0336,4.9565,4.9393,4.851,4.7031,4.6781,0.0,0.0,0.0,0.0,4.5361,4.5077,4.4966,4.4943,4.4701,4.4599,4.4599,4.4599,4.4599,4.4599,4.4599,4.4599,4.4508,4.4117,4.3974,4.3781,4.3343,4.3204,4.3094,4.247,4.2616,4.302,4.3387,4.3351,4.3065,4.2405,4.1895,4.111,3.942,3.8367,3.7753,3.8125,3.732,3.6855,3.7797,3.6589,3.5161,3.4324,3.2823,3.1497,3.0633,2.9953,2.8971,2.7394,2.6582,2.5567,2.4157,2.2614,2.1307,2.0181,1.8775,1.7863,1.7554,1.6491,1.6061,1.6249,1.5159,1.3791,1.2074,1.2223,1.1269,0.9268,0.9075,0.8161,2.7355,2.8858,3.0597,3.0597,3.0916,3.1235,3.1235,3.0581,2.9948,2.9874,3.0014,3.0769,3.278,3.3318,3.4756,3.8664,4.0154,0.0,0.0,0.0,5.2858,5.4916,0.0,0.0,0.0,0.0,0.0,0.0,0.0,0.0,0.0,0.0,5.2049,5.0779,5.0317,5.0279,5.0702,5.0279,5.0048,4.9971,4.9202,4.8317,4.7432,4.7086,0.0,0.0,0.0,0.0,4.5586,4.54,4.5341,4.5303,4.512,4.5055,4.5055,4.5055,4.5055,4.5055,4.5055,4.4966,4.4776,4.4401,4.4146,4.3943,4.3597,4.3497,4.3387,4.2947,4.3167,4.3497,4.3497,4.3497,4.3356,4.2808,4.2262,4.1427,4.0085,3.9076,3.843,3.8497,3.8125,3.7956,3.843,3.7767,3.6721,3.5375,3.4188,3.2993,3.1641,3.0921,2.9877,2.8103,2.7313,2.6329,2.4905,2.3669,2.2466,2.1188,2.0297,1.9621,1.91,1.8134,1.74,1.7031,1.6141,1.4881,1.324,1.3172,1.2243,1.0401,0.9774,0.8918,2.7348,2.8647,2.9981,2.975,3.0467,3.1164,3.1051,3.0542,3.0089,3.0124,3.0158,3.0928,3.3483,3.4044,3.5268,3.8805,0.0,0.0,4.849,5.0453,5.2198,0.0,0.0,0.0,0.0,0.0,0.0,0.0,0.0,0.0,0.0,0.0,0.0,4.9433,4.9394,4.9702,5.0279,4.9702,4.9625,5.0087,4.8894,4.8086,4.7702,4.7163,0.0,0.0,0.0,0.0,4.5586,4.5586,4.5586,4.5586,4.5586,4.5586,4.5586,4.5586,4.5586,4.5586,4.5586,4.5419,4.5137,4.48,4.4401,4.3998,4.366,4.3529,4.3497,4.3497,4.3497,4.3497,4.3497,4.3497,4.3393,4.2921,4.2382,4.1591,4.0358,3.9525,3.8812,3.8328,3.8565,3.87,3.8294,3.8667,3.8302,3.6191,3.5745,3.5017,3.3043,3.2182,3.0999,2.9104,2.8158,2.7111,2.58,2.4962,2.3846,2.2372,2.1992,2.1362,2.0351,1.9576,1.8644,1.7383,1.7031,1.6186,1.487,1.4552,1.3526,1.1854,1.0653,0.9867,2.767,2.9631,3.1202,2.9997,3.0882,3.1863,3.1164,3.1429,3.1879,3.2124,3.2192,3.3096,3.584,3.6425,3.7591,4.1033,0.0,4.7942,0.0,0.0,0.0,0.0,0.0,0.0,0.0,0.0,0.0,0.0,0.0,0.0,0.0,0.0,0.0,4.9433,4.9394,4.9125,4.8509,4.9086,4.874,4.7509,4.8663,4.8086,4.6009,4.6624,4.6432,0.0,0.0,4.5586,4.5586,4.5586,4.5586,4.5586,4.5586,4.5586,4.5586,4.5586,4.5586,4.5586,4.5586,4.5568,4.5457,4.5137,4.48,4.4428,4.4028,4.3726,4.3497,4.3497,4.3497,4.3497,4.3497,4.3497,4.3497,4.3428,4.2958,4.2346,4.1669,4.0053,3.8917,3.9661,3.8836,3.843,3.9546,3.9309,3.847,3.6853,3.6125,3.5168,3.3642,3.2855,3.2114,3.119,2.9411,2.7965,2.725,2.5966,2.4824,2.3989,2.2293,2.058,1.8956,1.8764,1.8315,1.7448,1.7324,1.6491,1.487,1.553,1.4544,1.2119,1.2049,1.1138,2.8396,3.0203,3.1802,3.163,3.3219,3.4581,3.3797,3.3886,3.4179,3.4311,3.473,3.5754,3.7972,3.8799,4.0461,4.4422,0.0,5.0147,0.0,0.0,0.0,0.0,0.0,0.0,0.0,0.0,0.0,0.0,0.0,0.0,0.0,0.0,0.0,0.0,4.8702,4.8086,4.674,4.7625,4.7894,4.7548,4.7394,4.6971,4.6317,4.624,4.597,4.5586,0.0,4.5586,4.5586,4.5586,4.5586,4.5586,4.5586,4.5586,4.5586,4.5586,4.5586,4.5586,4.5586,4.5586,4.555,4.5201,4.4988,4.4738,4.4175,4.3912,4.3726,4.3529,4.3497,4.3497,4.3497,4.3497,4.3497,4.3497,4.3105,4.2616,4.2342,4.1286,4.0403,4.0535,3.998,3.9645,4.0052,3.9817,3.9075,3.7601,3.7117,3.6339,3.4904,3.4129,3.3316,3.2298,3.064,2.9175,2.8184,2.6816,2.5522,2.4337,2.2993,2.168,2.0443,2.038,1.9746,1.8426,1.8426,1.771,1.6249,1.6352,1.5539,1.3947,1.3068,1.2123,2.928,3.0879,3.246,3.3332,3.5143,3.6677,3.6683,3.669,3.6806,3.7202,3.7837,3.8706,3.9986,4.1328,0.0,4.7812,5.0266,0.0,0.0,0.0,0.0,0.0,0.0,0.0,0.0,0.0,0.0,0.0,0.0,0.0,0.0,0.0,0.0,0.0,4.7932,4.7086,4.5586,4.6278,4.6894,4.7509,4.6432,4.6163,4.6586,4.5893,4.5586,4.5586,4.5586,4.5586,4.5586,4.5586,4.5586,4.5586,4.5586,4.5586,4.5586,4.5586,4.5586,4.5586,4.5586,4.5586,4.5568,4.5283,4.518,4.4988,4.4346,4.4058,4.3943,4.3597,4.3497,4.3497,4.3497,4.3497,4.3497,4.3497,4.3178,4.2846,4.2732,4.2199,4.1605,4.1171,4.0976,4.0804,4.0528,4.0368,3.9861,3.8567,3.8255,3.7663,3.6372,3.5415,3.448,3.3509,3.2017,3.0545,2.9161,2.7636,2.6212,2.5097,2.4008,2.2944,2.1939,2.1877,2.1164,1.9617,1.9441,1.875,1.769,1.7147,1.6486,1.5595,1.428,1.3286,3.0107,3.1854,3.3422,3.4373,3.5197,3.6398,3.8793,3.9338,3.9805,4.1409,4.1852,4.196,4.2073,4.4171,4.707,5.0547,5.1953,0.0,0.0,0.0,0.0,0.0,0.0,0.0,0.0,0.0,0.0,0.0,0.0,0.0,0.0,0.0,0.0,0.0,0.0,4.6547,4.5586,4.5663,4.5701,4.5778,4.6471,4.6432,4.5701,4.5624,4.5586,4.5586,4.5586,4.5586,4.5586,4.5586,4.5586,4.5586,4.5586,4.5586,4.5586,4.5586,4.5586,4.5586,4.5586,4.5586,4.5586,4.5568,4.5361,4.5011,4.4676,4.429,4.3943,4.3597,4.3497,4.3497,4.3497,4.3497,4.3497,4.3497,4.3497,4.3286,4.2808,4.208,4.1566,4.1711,4.1167,4.0919,4.1541,4.1206,4.0597,3.9801,3.9221,3.8667,3.7874,3.6504,3.5613,3.5481,3.3662,3.1942,3.0545,2.8575,2.7389,2.7279,2.5377,2.3518,2.1939,2.1877,2.1479,2.0526,1.9683,1.9013,1.8489,1.8108,1.7196,1.586,1.586,1.49,3.0494,3.2795,3.5076,3.543,3.7339,3.9398,4.0374,4.1822,4.3149,4.3813,4.5265,4.6246,4.5699,4.7304,4.9297,5.1094,5.3047,0.0,0.0,0.0,0.0,0.0,0.0,0.0,0.0,0.0,0.0,0.0,0.0,0.0,0.0,0.0,0.0,0.0,0.0,4.6471,4.5586,4.5586,4.5586,4.5586,4.5932,4.5932,4.5586,4.5586,4.5586,4.5586,4.5586,4.5586,4.5586,4.5586,4.5586,4.5586,4.5586,4.5586,4.5586,4.5586,4.5586,4.5586,4.5586,4.5586,4.5586,4.5586,4.5494,4.5361,4.5011,4.4638,4.429,4.3912,4.366,4.3497,4.3497,4.3497,4.3497,4.3497,4.3497,4.3426,4.325,4.2959,4.2668,4.239,4.2131,4.1904,4.1817,4.1639,4.1227,4.0489,3.9485,3.87,3.8425,3.6785,3.5652,3.5696,3.3476,3.1632,3.069,2.9478,2.8605,2.8105,2.5709,2.4047,2.3458,2.2919,2.2249,2.1416,2.1101,2.0565,1.9854,1.9159,1.8542,1.7942,1.6674,1.5695,3.0716,3.2884,3.5234,3.5508,3.8203,4.1133,4.25,4.4375,4.6055,4.6836,4.8008,4.8789,4.8476,4.918,0.0,0.0,0.0,0.0,0.0,0.0,0.0,0.0,0.0,0.0,0.0,0.0,0.0,0.0,0.0,0.0,0.0,0.0,0.0,0.0,0.0,0.0,4.5586,4.5586,4.5586,4.5586,4.5586,4.5586,4.5586,4.5586,4.5586,4.5586,4.5586,4.5586,4.5586,4.5586,4.5586,4.5586,4.5586,4.5586,4.5586,4.5586,4.5586,4.5586,4.5586,4.5586,4.5586,4.5586,4.5586,4.555,4.5201,4.4943,4.4701,4.429,4.3943,4.3627,4.3627,4.3563,4.3497,4.3497,4.3497,4.3497,4.3497,4.3497,4.3391,4.3032,4.2921,4.2808,4.2386,4.2185,4.1884,4.1426,4.0405,3.9669,3.9669,3.8033,3.6683,3.6104,3.3953,3.2297,3.1589,3.0729,2.9888,2.911,2.6918,2.5507,2.5275,2.4476,2.3735,2.296,2.2428,2.1792,2.0974,2.0139,1.9552,1.9288,1.777,1.6816,3.0716,3.2025,3.3633,3.4531,3.7344,4.1055,4.5351,4.6992,4.832,5.0898,5.0078,4.918,5.0039,4.9492,0.0,0.0,0.0,0.0,0.0,0.0,0.0,0.0,0.0,0.0,0.0,0.0,0.0,0.0,0.0,0.0,0.0,0.0,0.0,0.0,0.0,0.0,4.5603,4.5586,4.5586,4.5586,4.5586,4.5586,4.5586,4.5586,4.5586,4.5586,4.5586,4.5586,4.5586,4.5586,4.5586,4.5586,4.5586,4.5586,4.5586,4.5586,4.5586,4.5586,4.5586,4.5586,4.5586,4.5586,4.5586,4.555,4.5201,4.5115,4.5011,4.4701,4.4318,4.3998,4.3998,4.3758,4.3497,4.3497,4.3497,4.3497,4.3497,4.3497,4.3497,4.3497,4.3497,4.3497,4.3497,4.3069,4.2693,4.2693,4.2221,4.1775,4.1775,4.0587,3.8997,3.7034,3.5518,3.435,3.37,3.2374,3.1313,3.0578,2.9168,2.8111,2.7329,2.6519,2.5853,2.5216,2.3567,2.2464,2.1939,2.1037,2.0139,1.9309,1.9309,1.8335,3.1755,3.3476,3.5586,3.707,4.0508,4.4297,4.7422,4.7851,4.8516,5.1641,5.1445,5.0742,5.1016,5.1328,0.0,0.0,0.0,0.0,0.0,0.0,0.0,0.0,0.0,0.0,0.0,0.0,0.0,0.0,0.0,0.0,0.0,0.0,0.0,0.0,0.0,0.0,4.5733,4.5632,4.5586,4.5586,4.5586,4.5586,4.5586,4.5586,4.5586,4.5586,4.5586,4.5586,4.5586,4.5586,4.5586,4.5586,4.5586,4.5586,4.5586,4.5586,4.5586,4.5586,4.5586,4.5586,4.5586,4.5586,4.5586,4.5586,4.5475,4.5283,4.5094,4.4966,4.4726,4.4346,4.4058,4.3943,4.3786,4.3529,4.3497,4.3497,4.3497,4.3497,4.3497,4.3497,4.3497,4.3497,4.3497,4.3356,4.325,4.325,4.2301,4.1074,3.9799,3.9295,3.8663,3.7712,3.6237,3.5301,3.5102,3.3382,3.2238,3.202,3.1114,2.984,2.814,2.7329,2.664,2.6065,2.4977,2.4176,2.3577,2.2163,2.1353,2.1101,2.0526,1.9596,3.1992,3.3828,3.6055,3.8516,4.207,4.5781,4.875,5.0078,5.1328,5.375,5.3281,5.2422,5.2422,5.2305,0.0,0.0,0.0,0.0,0.0,0.0,0.0,0.0,0.0,0.0,0.0,0.0,0.0,0.0,0.0,0.0,0.0,0.0,0.0,0.0,0.0,0.0,4.5703,4.5616,4.5586,4.5586,4.5586,4.5586,4.5586,4.5586,4.5586,4.5586,4.5586,4.5586,4.5586,4.5586,4.5586,4.5586,4.5586,4.5586,4.5586,4.5586,4.5586,4.5586,4.5586,4.5586,4.5586,4.5586,4.5586,4.5586,4.5586,4.5457,4.5283,4.5283,4.5055,4.4713,4.4508,4.4346,4.4087,4.3631,4.3497,4.3497,4.3497,4.3497,4.3497,4.3497,4.3497,4.3497,4.3497,4.3497,4.3497,4.3497,4.2812,4.183,4.0465,3.9814,3.9295,3.8733,3.7393,3.6439,3.6158,3.4482,3.3302,3.3029,3.2031,3.0921,2.9693,2.8913,2.8076,2.723,2.6394,2.5603,2.4738,2.3492,2.2652,2.2323,2.1479,2.0655,3.1953,3.3594,3.5703,3.9336,4.293,4.6445,4.9687,5.2968,5.5507,5.6211,5.5156,5.4101,5.4023,5.2695,0.0,0.0,0.0,0.0,0.0,0.0,0.0,0.0,0.0,0.0,0.0,0.0,0.0,0.0,0.0,0.0,0.0,0.0,0.0,0.0,0.0,0.0,4.562,4.5603,4.5586,0.0,4.5586,4.5586,4.5586,4.5586,4.5586,4.5586,4.5586,4.5586,4.5586,4.5586,4.5586,4.5586,4.5586,4.5586,4.5586,4.5586,4.5586,4.5586,4.5586,4.5586,4.5586,4.5586,4.5586,4.5586,4.5586,4.5586,4.5586,4.5586,4.5381,4.5159,4.5115,4.4872,4.4465,4.3693,4.3566,4.3566,4.3532,4.3497,4.3497,4.3497,4.3497,4.3497,4.3497,4.3497,4.3497,4.3497,4.3497,4.3286,4.277,4.1614,4.0539,3.9971,3.8743,3.7715,3.7069,3.5597,3.4494,3.3897,3.2471,3.1567,3.1567,3.0837,2.9811,2.8624,2.7792,2.6798,2.5578,2.4875,2.4015,2.3119,2.2408,2.1604,3.3711,3.4922,3.6875,4.168,4.6484,5.0391,5.1836,5.37,5.5017,5.4648,5.4805,5.4805,5.4141,0.0,0.0,0.0,0.0,0.0,0.0,0.0,0.0,0.0,0.0,0.0,0.0,0.0,0.0,0.0,0.0,0.0,0.0,0.0,0.0,0.0,0.0,4.5802,4.5761,4.5648,4.5586,0.0,4.5586,4.5586,4.5586,4.5586,4.5586,4.5586,4.5586,4.5586,4.5586,4.5586,4.5586,4.5586,4.5586,4.5586,4.5586,4.5586,4.5586,4.5586,4.5586,4.5586,4.5586,4.5586,4.5586,4.5586,4.5586,4.5586,4.5586,4.5586,4.555,4.5438,4.518,4.5033,4.4825,4.4058,4.3912,4.3818,4.3563,4.3497,4.3497,4.3497,4.3497,4.3497,4.3497,4.3497,4.3497,4.3497,4.3497,4.3286,4.277,4.2002,4.1349,4.0724,3.9529,3.8685,3.8504,3.6182,3.4864,3.5277,3.3401,3.2382,3.2382,3.1652,3.0891,3.006,2.9319,2.8312,2.7026,2.6329,2.5283,2.4021,2.3872,2.3015,3.3516,3.5312,3.8046,4.3978,4.8063,5.0859,5.1757,5.2896,5.3774,5.3816,5.4484,5.4718,5.3431,0.0,0.0,0.0,0.0,0.0,0.0,0.0,0.0,0.0,0.0,0.0,0.0,0.0,0.0,0.0,0.0,0.0,0.0,0.0,0.0,0.0,4.5828,4.5775,4.5688,4.5616,4.5586,4.5586,4.5586,4.5586,4.5586,4.5586,4.5586,4.5586,4.5586,4.5586,4.5586,4.5586,4.5586,4.5586,4.5586,4.5586,4.5586,4.5586,4.5586,4.5586,4.5586,4.5586,4.5586,4.5586,4.5586,4.5586,4.5586,4.5586,4.5586,4.5586,4.5586,4.5532,4.5201,4.5115,4.4919,4.4175,4.3998,4.3912,4.3563,4.3497,4.3497,4.3497,4.3497,4.3497,4.3497,4.3497,4.3497,4.3497,4.3497,4.3391,4.3142,4.2306,4.1682,4.134,4.0233,3.9512,3.9512,3.7548,3.6424,3.6785,3.4792,3.345,3.3122,3.2456,3.1576,3.0522,3.0125,2.9484,2.8488,2.771,2.6806,2.5826,2.5486,2.4516,3.2733,3.5702,3.9564,4.5464,4.8249,4.975,5.049,5.1249,5.1997,5.2552,5.3623,5.3984,0.0,0.0,0.0,0.0,0.0,0.0,0.0,0.0,0.0,0.0,0.0,0.0,0.0,0.0,0.0,0.0,0.0,0.0,0.0,0.0,4.5836,4.5775,4.5775,4.5703,4.5603,4.5586,4.5586,4.5586,4.5586,4.5586,4.5586,4.5586,4.5586,4.5586,4.5586,4.5586,4.5586,4.5586,4.5586,4.5586,4.5586,4.5586,4.5586,4.5586,4.5586,4.5586,4.5586,4.5586,4.5586,4.5586,4.5586,4.5586,4.5586,4.5586,4.5624,4.5778,4.5742,4.5668,4.5371,4.5262,4.5,4.4213,4.3998,4.3912,4.3563,4.3497,4.3497,4.3497,4.3497,4.3497,4.3497,4.3497,4.3497,4.3497,4.3497,4.3497,4.3497,4.2505,4.181,4.181,4.0767,4.0087,4.0087,3.8787,3.8077,3.8181,3.6189,3.4782,3.4062,3.3473,3.247,3.1031,3.0784,3.0372,2.9744,2.9104,2.8364,2.7645,2.7032,2.6015,3.2784,3.7396,4.2178,4.4501,4.6886,4.8699,4.8816,4.9415,4.9769,4.9162,5.0942,0.0,0.0,0.0,0.0,0.0,0.0,0.0,0.0,0.0,0.0,0.0,0.0,0.0,0.0,0.0,0.0,0.0,0.0,0.0,0.0,4.5703,4.5632,4.5637,4.5637,4.562,4.5586,4.5586,4.5586,4.5586,4.5586,4.5586,4.5586,4.5586,4.5586,4.5586,4.5586,4.5586,4.5586,4.5586,4.5586,4.5586,4.5586,4.5586,4.5586,4.5586,4.5586,4.5586,4.5586,4.5586,4.5586,4.5586,4.5586,4.5586,4.5586,4.5586,4.574,4.6509,4.6492,4.6205,4.6167,4.5935,4.5413,4.4274,4.3998,4.3912,4.3563,4.3497,4.3497,4.3497,4.3497,4.3497,4.3497,4.3497,4.3497,4.3497,4.3497,4.3497,4.3497,4.2505,4.181,4.181,4.0767,4.0087,4.0087,3.8787,3.8233,3.8823,3.7402,3.6204,3.5429,3.5331,3.4637,3.3212,3.2007,3.1061,3.0372,3.0261,2.954,2.828,2.8167,2.7428,3.3946,3.6956,3.9902,4.2539,4.4676,4.6267,4.677,4.7859,4.8668,4.8282,4.9135,0.0,0.0,0.0,0.0,0.0,0.0,0.0,0.0,0.0,0.0,0.0,0.0,0.0,0.0,0.0,0.0,0.0,0.0,0.0,4.5696,4.5654,4.5586,4.5586,4.5586,4.5586,4.5586,4.5586,4.5586,4.5586,4.5586,4.5586,4.5586,4.5586,4.5586,4.5586,4.5586,4.5586,4.5586,4.5586,4.5586,4.5586,4.5586,4.5586,4.5586,4.5586,4.5586,4.5586,4.5586,4.5586,4.5586,4.5586,4.5586,4.5586,4.5586,4.5586,4.5663,4.6047,4.6378,4.6526,4.6111,4.5911,4.5556,4.4596,4.4059,4.366,4.3529,4.3497,4.3497,4.3497,4.3497,4.3497,4.3497,4.3497,4.3497,4.3497,4.3497,4.3497,4.3497,4.2505,4.181,4.181,4.0767,4.0087,4.0087,3.9547,3.9328,3.9614,3.8622,3.7519,3.6356,3.5927,3.5019,3.3649,3.2625,3.1952,3.1647,3.1231,3.0562,2.9599,2.9599,2.8824,3.4233,3.5805,3.7274,4.0242,4.2324,4.3893,4.4778,4.6086,4.7201,0.0,0.0,0.0,0.0,0.0,0.0,0.0,0.0,0.0,0.0,0.0,0.0,0.0,0.0,0.0,0.0,0.0,0.0,0.0,0.0,0.0,4.5586,4.5586,4.5586,4.5586,4.5586,4.5586,4.5586,4.5586,4.5586,4.5586,4.5586,4.5586,4.5586,4.5586,4.5586,4.5586,4.5586,4.5586,4.5586,4.5586,4.5586,4.5586,4.5586,4.5586,4.5586,4.5586,4.5586,4.5586,4.5586,4.5586,4.5586,4.5586,4.5586,4.5586,4.5586,4.5586,4.5624,4.5855,4.6263,4.6483,4.5911,4.5669,4.5342,4.4589,4.3938,4.3497,4.3497,4.3497,4.3497,4.3497,4.3497,4.3497,4.3497,4.3497,4.3497,4.3497,4.3497,4.3463,4.3321,4.2426,4.1768,4.1595,4.0672,4.0087,4.0087,4.0087,4.0087,4.0087,3.958,3.8706,3.7419,3.6671,3.5696,3.4446,3.3539,3.3024,3.2841,3.2296,3.1693,3.1011,3.1011,3.0261,3.2579,3.4322,3.6079,3.7795,4.0085,4.2162,4.3047,4.3893,4.4739,4.5547,0.0,0.0,0.0,0.0,0.0,0.0,0.0,0.0,0.0,0.0,0.0,0.0,0.0,0.0,0.0,0.0,0.0,0.0,0.0,0.0,4.5586,4.5586,4.5586,4.5586,4.5586,4.5586,4.5586,4.5586,4.5586,4.5586,4.5586,4.5586,4.5586,4.5586,4.5586,4.5586,4.5586,4.5586,4.5586,4.5586,4.5586,4.5586,4.5586,4.5586,4.5586,4.5586,4.5586,4.5586,4.5586,4.5586,4.5586,4.5586,4.5586,4.5586,4.5586,4.5586,4.5778,4.6586,4.6358,4.587,4.5833,4.5258,4.4559,4.3718,4.3534,4.3497,4.3497,4.3497,4.3497,4.3497,4.3497,4.3497,4.3497,4.3497,4.3497,4.3497,4.3497,4.3321,4.2808,4.2221,4.1595,4.0978,4.0466,4.0087,4.0087,4.0087,4.0087,4.0087,4.0054,3.9681,3.8922,3.8179,3.7435,3.6645,3.5229,3.417,3.3547,3.3495,3.3182,3.2485,3.2485,3.1732,3.2442,3.3005,3.3762,3.6483,3.7853,3.8892,4.0315,4.17,4.2931,4.3816,0.0,0.0,0.0,0.0,0.0,0.0,0.0,0.0,0.0,0.0,0.0,0.0,0.0,0.0,0.0,0.0,0.0,0.0,0.0,0.0,4.5586,4.5586,4.5586,4.5586,4.5586,4.5586,4.5586,4.5586,4.5586,4.5586,4.5586,4.5586,4.5586,4.5586,4.5586,4.5586,4.5586,4.5586,4.5586,4.5586,4.5586,4.5586,4.5586,4.5586,4.5586,4.5586,4.5586,4.5586,4.5586,4.5586,4.5586,4.5586,4.5586,4.5586,4.5586,4.5586,4.5663,4.597,4.6105,4.6087,4.5859,4.5439,4.4823,4.3784,4.3497,4.3497,4.3497,4.3497,4.3497,4.3497,4.3497,4.3497,4.3497,4.3497,4.3497,4.3497,4.3497,4.3463,4.325,4.2386,4.1725,4.1473,4.0625,4.0087,4.0087,4.0087,4.0087,4.0087,4.0087,3.9749,3.9039,3.8734,3.8024,3.6806,3.6283,3.5424,3.4219,3.3802,3.3495,3.3235,3.2788,3.2338,3.2275,3.2314,3.2776,3.5584,3.6084,3.6392,3.8392,3.9738,4.0854,0.0,0.0,0.0,0.0,0.0,0.0,0.0,0.0,0.0,0.0,0.0,0.0,0.0,0.0,0.0,0.0,0.0,0.0,0.0,0.0,0.0,4.5586,4.5586,4.5586,4.5586,4.5586,4.5586,4.5586,4.5586,4.5586,4.5586,4.5586,4.5586,4.5586,4.5586,4.5586,4.5586,4.5586,4.5586,4.5586,4.5586,4.5586,4.5586,4.5586,4.5586,4.5586,4.5586,4.5586,4.5586,4.5586,4.5586,4.5586,4.5586,4.5586,4.5586,4.5586,4.5532,4.5438,4.5438,4.5481,4.5483,4.5255,4.4976,4.449,4.371,4.3497,4.3497,4.3497,4.3497,4.3497,4.3497,4.3497,4.3497,4.3497,4.3497,4.3497,4.3497,4.3321,4.3178,4.2958,4.2068,4.1464,4.1241,4.0563,4.0087,4.0087,4.0087,4.0087,4.0087,4.0087,3.9851,3.9377,3.9106,3.8531,3.755,3.728,3.6552,3.5324,3.4627,3.4153,3.3921,3.3495,3.3055,0.0,0.0,0.0,3.5045,3.4776,3.4776,3.7315,0.0,3.8392,0.0,0.0,0.0,0.0,0.0,0.0,0.0,0.0,0.0,0.0,0.0,0.0,0.0,0.0,0.0,0.0,0.0,0.0,0.0,0.0,4.5586,4.5586,4.5586,4.5586,4.5586,4.5586,4.5586,4.5586,4.5586,4.5586,4.5586,4.5586,4.5586,4.5586,4.5586,4.5586,4.5586,4.5586,4.5586,4.5586,4.5586,4.5586,4.5586,4.5586,4.5586,4.5586,4.5586,4.5586,4.5586,4.5586,4.5586,4.5586,4.5586,4.5586,4.5586,4.5586,4.5381,4.5115,4.5094,4.4599,4.4035,4.4004,4.3758,4.3497,4.3534,4.3497,4.3497,4.3534,4.3497,4.3497,4.3497,4.3497,4.3497,4.3497,4.3497,4.3497,4.3497,4.3069,4.2498,4.1895,4.1251,4.0685,4.0154,4.0138,4.0087,4.0087,4.0087,4.0087,4.0087,4.0087,4.0087,4.0087,3.9411,3.9005,3.9005,3.8294,3.7584,3.6806,3.6028,3.527,3.464,3.464,3.3871,3.3391,0.0,0.0,0.0,0.0,0.0,0.0,0.0,0.0,0.0,0.0,0.0,0.0,0.0,0.0,0.0,0.0,0.0,0.0,0.0,0.0,0.0,0.0,0.0,0.0,0.0,0.0,0.0,4.5586,4.5586,4.5586,4.5586,4.5586,4.5586,4.5586,4.5586,4.5586,4.5586,4.5586,4.5586,4.5586,4.5586,4.5586,4.5586,4.5586,4.5586,4.5586,4.5586,4.5586,4.5586,4.5586,4.5586,4.5586,4.5586,4.5586,4.5586,4.5586,4.5586,4.5586,4.5586,4.5586,4.5586,4.5586,4.5568,4.5303,4.518,4.5186,4.5496,4.5275,4.4798,4.458,4.4005,4.3644,4.4232,4.3901,4.3644,4.4232,4.3901,4.3497,4.3497,4.3497,4.3497,4.3497,4.3497,4.3497,4.3497,4.3069,4.2655,4.2462,4.1516,4.0874,4.0685,4.0319,4.0087,4.0087,4.0087,4.0087,4.0087,4.0087,4.0087,4.0087,3.9884,3.9512,3.9005,3.8802,3.8328,3.7584,3.684,3.6072,3.5316,3.483,3.412,0.0,0.0,3.3045,0.0,0.0,0.0,3.3891,3.4314,0.0,0.0,0.0,0.0,0.0,0.0,0.0,0.0,0.0,0.0,0.0,0.0,0.0,0.0,0.0,0.0,0.0,0.0,0.0,0.0,4.5586,4.5586,4.5586,4.5586,4.5586,4.5586,4.5586,4.5586,4.5586,4.5586,4.5586,4.5586,4.5586,4.5586,4.5586,4.5586,4.5586,4.5586,4.5586,4.5586,4.5586,4.5586,4.5586,4.5586,4.5586,4.5586,4.5586,4.5586,4.5586,4.5586,4.5586,4.5817,4.6086,4.5701,4.5724,4.5859,4.5655,4.5162,4.4775,4.5388,4.5065,4.4535,4.4669,4.4085,4.3608,4.4085,4.4085,4.4048,4.4158,4.4085,4.3901,4.3571,4.3497,4.3497,4.3497,4.3497,4.3391,4.3214,4.2693,4.2262,4.1979,4.115,4.0577,4.0577,4.0303,4.0087,4.0087,4.0087,4.0087,4.0087,4.0087,4.0087,4.0087,4.0087,3.9884,3.9445,3.9445,3.9073,3.8362,3.7618,3.7009,3.6523,3.5492,3.466,0.0,0.0,0.0,0.0,0.0,0.0,3.3891,3.3545,3.3006,0.0,0.0,0.0,0.0,0.0,0.0,0.0,0.0,0.0,0.0,0.0,0.0,0.0,0.0,0.0,0.0,4.5316,4.5316,4.5316,4.5393,4.5509,4.5586,4.5586,4.5586,4.5586,4.5586,4.5586,4.5586,4.5586,4.5586,4.5586,4.5586,4.5586,4.5586,4.5586,4.5586,4.5586,4.5586,4.5586,4.5586,4.5586,4.5586,4.5586,4.5586,4.5586,4.5586,4.5586,4.5586,4.5586,4.5586,4.6124,4.6624,4.5855,4.5841,4.6145,4.6115,4.5127,4.4153,4.5053,4.4465,4.3828,4.4745,4.4232,4.3571,4.3828,4.4305,4.4562,4.4011,4.4305,4.4488,4.3754,4.3534,4.3497,4.3497,4.3497,4.3321,4.277,4.218,4.1595,4.0978,4.0466,4.0087,4.0087,4.0087,4.0087,4.0087,4.0087,4.0087,4.0087,4.0087,4.0087,4.0087,4.0087,4.0087,4.0087,4.0087,3.9749,3.9106,3.8294,3.7922,3.7889,3.6502,3.5523,0.0,0.0,0.0,0.0,0.0,0.0,3.3276,3.3545,3.3737,0.0,0.0,0.0,0.0,0.0,0.0,0.0,0.0,0.0,0.0,0.0,0.0,0.0,0.0,0.0,0.0,4.3585,4.3585,4.3585,4.4201,4.4855,4.5547,4.5586,4.5586,4.5586,4.5586,4.5586,4.5586,4.5586,4.5586,4.5586,4.5586,4.5586,4.5586,4.5586,4.5586,4.5586,4.5586,4.5586,4.5586,4.5586,4.5586,4.5586,4.5586,4.5586,4.5586,4.5586,4.5586,4.5586,4.5586,4.5701,4.5817,4.5663,4.5457,4.5262,4.5003,4.4524,4.424,4.5432,4.5147,4.4819,4.625,4.5076,4.3975,4.5957,4.5553,4.5039,4.6177,4.5516,4.4672,4.4525,4.3938,4.3497,4.3497,4.3497,4.3321,4.277,4.218,4.1595,4.0978,4.0466,4.0087,4.0087,4.0087,4.0087,4.0087,4.0087,4.0087,4.0087,4.0087,4.0087,4.0087,4.0087,4.0087,4.0087,4.0087,4.002,3.9851,3.8531,3.7922,3.7889,3.7618,3.7071,0.0,0.0,0.0,3.5468,0.0,0.0,0.0,3.4093,3.3782,3.3071,0.0,0.0,0.0,0.0,0.0,0.0,0.0,0.0,0.0,0.0,0.0,0.0,0.0,0.0,0.0,4.247,4.2624,4.3085,4.3855,4.447,4.4932,4.5355,4.5586,4.5586,4.5586,4.5586,4.5586,4.5586,4.5586,4.5586,4.5586,4.5586,4.5586,4.5586,4.5586,4.5586,4.5586,4.5586,4.5586,4.5586,4.5586,4.5586,4.5586,4.5586,4.5586,4.5586,4.5586,4.5586,4.5586,4.5893,4.624,4.624,4.5913,4.5583,4.6199,4.5978,4.5614,4.5845,4.5333,4.5076,4.6691,4.5626,4.4488,4.614,4.6214,4.603,4.6434,4.6177,4.581,4.5369,4.4635,4.3975,4.3571,4.3286,4.2921,4.2342,4.1768,4.115,4.0577,4.0254,4.0087,4.0087,4.0087,4.0087,4.0087,4.0087,4.0087,4.0087,4.0087,4.0087,4.0087,4.0087,4.0087,4.0087,4.0087,4.0087,4.0087,3.9343,3.9005,3.8971,3.8261,3.7745,0.0,0.0,0.0,0.0,0.0,3.5812,0.0,0.0,0.0,3.3044,0.0,0.0,0.0,0.0,0.0,0.0,0.0,0.0,0.0,0.0,0.0,0.0,0.0,0.0,0.0,4.1162,4.1431,4.2316,4.3278,4.3893,4.4047,4.5047,4.5586,4.5586,4.5586,4.5586,4.5586,4.5586,4.5586,4.5586,4.5586,4.5586,4.5586,4.5586,4.5586,4.5586,4.5586,4.5586,4.5586,4.5586,4.5586,4.5586,4.5586,4.5586,4.5586,4.5586,4.5586,4.5586,4.5586,4.6047,4.6645,4.6762,4.6405,4.6149,4.7379,4.7363,4.6764,4.6287,4.5553,4.5296,4.6911,4.614,4.5186,4.614,4.6764,4.6985,4.6471,4.6764,4.6911,4.625,4.548,4.4672,4.3864,4.3251,4.258,4.1895,4.1508,4.1001,4.0204,4.0204,4.0204,4.0138,4.0087,4.0087,4.0087,4.0087,4.0087,4.0087,4.0087,4.0087,4.0087,4.0087,4.0087,4.0087,4.0087,4.0087,4.0087,4.0087,4.0087,4.0054,3.887,3.8286,0.0,0.0,0.0,0.0,3.7762,0.0,0.0,0.0,3.4563,3.3198,0.0,0.0,0.0,0.0,0.0,0.0,0.0,0.0,0.0,0.0,0.0,0.0,0.0,0.0,0.0,0.0,3.8777,3.9662,4.12,4.2431,4.3201,4.4739,4.5586,4.5586,4.5586,4.5586,4.5586,4.5586,4.5586,4.5586,4.5586,4.5586,4.5586,4.5586,4.5586,4.5586,4.5586,4.5586,4.5586,4.5586,4.5586,4.5586,4.5586,4.5586,4.5586,4.5586,4.5586,4.5586,4.5586,4.5663,4.5819,4.6216,4.6377,4.6313,4.6205,4.6066,4.6177,4.6801,4.6397,4.614,4.7755,4.6985,4.614,4.7682,4.7572,4.7278,4.7902,4.7535,4.7095,4.6985,4.6324,4.5516,4.4709,4.394,4.3032,4.1979,4.2221,4.1931,4.0303,4.0528,4.0625,4.0154,4.0087,4.0087,4.0087,4.0087,4.0087,4.0087,4.0087,4.0087,4.0087,4.0087,4.0087,4.0087,4.0087,4.0087,4.0087,4.0087,4.0087,4.0087,3.9918,3.9512,0.0,0.0,0.0,0.0,0.0,0.0,3.7454,0.0,3.5649,0.0,0.0,0.0,0.0,0.0,0.0,0.0,0.0,0.0,0.0,0.0,0.0,0.0,0.0,0.0,0.0,0.0,0.0,0.0,0.0,4.07,4.1546,4.3201,4.4355,4.4816,4.5316,4.5586,4.5586,4.5586,4.5586,4.5586,4.5586,4.5586,4.5586,4.5586,4.5586,4.5586,4.5586,4.5586,4.5586,4.5586,4.5586,4.5586,4.5586,4.5586,4.5586,4.5586,4.5932,4.626,4.5534,4.5934,4.6653,4.6426,4.7042,4.7623,4.6285,4.6544,4.7278,4.7168,4.6874,4.6874,4.8012,4.7462,4.6874,4.8049,4.8049,4.7902,4.8233,4.8049,4.7792,4.7792,4.6764,4.5957,4.6067,4.4522,4.2925,4.1966,4.1464,4.0908,4.0204,4.0303,4.0319,4.0138,4.0087,4.0087,4.0087,4.0087,4.0087,4.0087,4.0087,4.0087,4.0087,4.0087,4.0087,4.0087,4.0087,4.0087,4.0087,4.0087,4.0087,4.0087,4.0087,3.9918,4.0662,0.0,0.0,0.0,0.0,0.0,0.0,0.0,0.0,0.0,0.0,0.0,0.0,0.0,0.0,0.0,0.0,0.0,0.0,0.0,0.0,0.0,0.0,0.0,0.0,0.0,0.0,0.0,0.0,0.0,4.0123,4.2047,4.347,4.4278,4.5163,4.5586,4.5586,4.5586,4.5586,4.5586,4.5586,4.5586,4.5586,4.5586,4.5586,4.5586,4.5586,4.5586,4.5586,4.5586,4.5586,4.5624,4.5855,4.597,4.5932,4.5701,4.6163,4.678,4.5916,4.6527,4.7593,4.6943,4.7661,4.8451,4.6985,4.7388,4.8196,4.7609,4.7462,4.7572,4.8159,4.7865,4.7609,4.8159,4.8306,4.8306,4.8306,4.8306,4.8306,4.8306,4.7352,4.6691,4.7058,4.4914,4.2941,4.2418,4.1604,4.092,4.0611,4.0672,4.072,4.0611,4.0417,4.0319,4.0319,4.0154,4.0087,4.0087,4.0087,4.0087,4.0087,4.0087,4.0087,4.0087,4.0087,4.0087,4.0087,4.0087,4.0087,4.0087,4.0087,4.0087,0.0,0.0,0.0,4.1085,0.0,0.0,0.0,0.0,3.8665,0.0,0.0,0.0,0.0,0.0,0.0,0.0,0.0,0.0,0.0,0.0,0.0,0.0,0.0,0.0,0.0,0.0,0.0,0.0,0.0,0.0,3.9277,4.1739,4.347,4.4278,4.5163,4.5586,4.5586,4.5586,4.5586,4.5586,4.5586,4.5586,4.5586,4.5586,4.5586,4.5586,4.5586,4.5586,4.5586,4.5586,4.5586,4.5663,4.6547,4.6855,4.6778,4.5893,4.6163,4.6894,4.6837,4.7426,4.8097,4.7746,4.7938,4.8306,4.8233,4.8269,4.8306,4.8269,4.8269,4.8269,4.8306,4.8269,4.8269,4.8306,4.8306,4.8306,4.8306,4.8306,4.8306,4.8306,4.8269,4.7976,4.7241,4.5077,4.3578,4.3782,4.3579,4.2995,4.1895,4.2262,4.2382,4.181,4.1206,4.0874,4.0874,4.0417,4.0087,4.0087,4.0087,4.0087,4.0087,4.0087,4.0087,4.0087,4.0087,4.0087,4.0087,4.0087,4.0087,4.0087,4.0087,4.0087,0.0,0.0,4.4701,4.2701,0.0,0.0,0.0,0.0,0.0,0.0,0.0,0.0,0.0,0.0,0.0,0.0,0.0,0.0,0.0,0.0,0.0,0.0,0.0,0.0,0.0,0.0,0.0,0.0,0.0,0.0,0.0,4.0008,4.1777,4.2624,4.4586,4.5586,4.5586,4.5586,4.5586,4.5586,4.5586,4.5586,4.5586,4.5586,4.5586,4.5586,4.5586,4.5586,4.5586,4.5586,4.5932,4.6509,4.6778,4.705,4.7291,4.7242,4.7626,4.8159,4.8207,4.7903,4.7527,4.7978,4.8199,4.8306,4.8306,4.8306,4.8306,4.8306,4.8306,4.8306,4.8306,4.8306,4.8306,4.8306,4.8306,4.8306,4.8306,4.8306,4.8306,4.8306,4.7865,4.7609,4.7865,4.6324,4.5004,4.4726,4.4268,4.3626,4.2711,4.2768,4.2632,4.1846,4.1251,4.092,4.092,4.0417,4.0087,4.0087,4.0087,4.0087,4.0087,4.0087,4.0087,4.0087,4.0087,4.0087,4.0087,4.0087,4.0087,4.0087,4.0087,4.0087,4.4124,4.4778,0.0,4.3855,4.3547,0.0,4.247,0.0,0.0,0.0,0.0,0.0,0.0,0.0,0.0,0.0,0.0,0.0,0.0,3.5493,0.0,0.0,0.0,0.0,0.0,0.0,0.0,0.0,0.0,0.0,0.0,0.0,4.0739,4.2239,4.4124,4.5278,4.5586,4.5586,4.5586,4.5586,4.5586,4.5586,4.5586,4.5586,4.5586,4.5586,4.5586,4.5586,4.5586,4.5586,4.6124,4.6932,4.724,4.7664,4.8171,4.7949,4.8181,4.8617,4.8808,4.8375,4.7794,4.8161,4.8306,4.8306,4.8306,4.8306,4.8379,4.8673,4.8526,4.8379,4.8673,4.8526,4.8306,4.8306,4.8306,4.8306,4.8306,4.8306,4.8306,4.8306,4.7902,4.7719,4.8233,4.7462,4.6542,4.5906,4.526,4.4617,4.4078,4.4007,4.3719,4.2889,4.2328,4.17,4.0967,4.0417,4.0087,4.0087,4.0087,4.0087,4.0087,4.0087,4.0324,4.0865,4.0358,4.0324,4.0865,4.0324,4.0087,4.0087,4.0087,4.0087]}]]